     2.11           OBSERVATION DATA    G (GPS)             RINEX VERSION / TYPE
teqc 2010Oct21 OPUS Account 20111027 15:51:11UTC            PGM / RUN BY / DATE
C 1525                                                      MARKER NAME
3009                                                        MARKER NUMBER
CSMIDDLETON NGS                                             OBSERVER / AGENCY
0220390627 TRIMBLE R7 2.32                                  REC # / TYPE / VERS
60124849 TRM41249.00 NONE                                   ANT # / TYPE
  -763620.2203 -5540176.9654  3056431.3556                  APPROX POSITION XYZ
        2.0010        0.0000        0.0000                  ANTENNA: DELTA H/E/N
     1     1                                                WAVELENGTH FACT L1/2
     5    L1    L2    C1    P1    P2                        # / TYPES OF OBSERV
    15                                                      LEAP SECONDS
  2011     8    15    17     5    0.0000000     GPS         TIME OF FIRST OBS
                                                            END OF HEADER
 11  8 15 17  5  0.0000000  0 11G03G06G07G08G10G11G13G16G19G23G28
    167566.22357    121077.98055  21922569.0164                   21922567.9734
    210912.77357    145690.92654  23872242.4924                   23872242.0634
   -313898.10258   -227549.45356  21446140.5704                   21446138.4264
   -388490.17257   -280891.24254  23183424.2344                   23183423.4534
     34546.33656     23499.86753  24309921.1094                   24309921.0744
   -407879.68056   -301752.03553  23859383.0554                   23859383.2734
     10170.40658      7198.09056  20266575.2034                   20266572.5234
    205217.80556    142325.71154  24497228.8594                   24497227.8634
    -87871.40658    -65717.64556  20981873.3524                   20981869.6484
    196794.96958    142425.64856  21401275.6564                   21401272.7734
   -346177.73457   -250225.10954  23826454.8674                   23826454.3794
 11  8 15 17  5 30.0000000  0 11G03G06G07G08G10G11G13G16G19G23G28
    212551.03947    156131.03545  21931128.8984                   21931128.6914
    267371.92247    189685.01644  23882986.2424                   23882985.6334
   -398167.47748   -293213.91846  21430104.7194                   21430102.1604
   -493006.85247   -362332.80144  23163535.8834                   23163535.0434
     43793.92246     30705.69143  24311680.6884                   24311680.2584
   -519993.67646   -389113.52743  23838047.9384                   23838048.5704
     13493.97348      9787.84846  20267207.5554                   20267204.9804
    259728.27047    184801.32844  24507601.8204                   24507600.7154
   -111110.82048    -83826.30146  20977450.8594                   20977447.5664
    249569.43048    183548.53546  21411318.3674                   21411315.0434
   -438779.14147   -322382.05944  23808833.3134                   23808832.4734
 11  8 15 17  6  0.0000000  0 11G03G06G07G08G10G11G13G16G19G23G28
    257885.58647    191456.60245  21939756.2894                   21939754.6884
    324020.69947    233826.87944  23893766.2274                   23893765.6214
   -482410.95348   -358858.19146  21414073.4304                   21414071.4144
   -597644.78947   -443868.84044  23143623.8834                   23143622.7114
     53257.16446     38079.57043  24313481.8444                   24313482.3594
   -632177.36346   -476529.33243  23816700.0234                   23816700.8324
     17314.73448     12765.02346  20267934.7734                   20267932.5434
    314077.84447    227151.57443  24517944.1564                   24517942.9884
   -133813.26647   -101516.53546  20973130.8594                   20973127.0084
    302657.89548    224916.09846  21421421.0234                   21421417.2814
   -531240.69947   -394429.97743  23791238.2424                   23791237.5704
 11  8 15 17  6 30.0000000  0 11G03G06G07G08G10G11G13G16G19G23G28
    303585.86747    227067.16445  21948452.8834                   21948451.6414
    380875.27047    278129.05544  23904585.3594                   23904584.9924
   -566608.38348   -424466.59446  21398051.2274                   21398049.2074
   -702384.50447   -525484.18444  23123692.5784                   23123691.5274
     62952.07046     45633.98843  24315326.1954                   24315327.0594
   -744409.40246   -563982.82843  23795342.9064                   23795343.4024
     21651.13748     16143.99646  20268759.8204                   20268757.5394
    368284.75046    269390.63343  24528260.0704                   24528258.5784
   -155960.35247   -118774.01646  20968916.8284                   20968912.8094
    356076.84848    266541.18046  21431585.9614                   21431583.1804
   -623543.75047   -466354.41444  23773673.9384                   23773672.6414
 11  8 15 17  7  0.0000000  0 11G03G06G07G08G10G11G13G16G19G23G28
    349642.78547    262955.60245  21957216.7424                   21957216.4224
    437926.82046    322584.75044  23915442.4694                   23915441.1954
   -650764.75048   -490042.99246  21382036.8204                   21382034.8054
   -807231.85947   -607183.42244  23103741.0004                   23103739.3594
     72869.61746     53361.85943  24317213.3524                   24317214.3634
   -856693.06646   -651476.52343  23773977.1564                   23773976.2114
     26495.69948     19918.93446  20269681.6884                   20269679.5394
    422341.62146    311512.82043  24538546.7194                   24538544.8914
   -177558.53948   -135603.79746  20964806.6414                   20964802.2504
    409817.67648    308417.08246  21441812.8754                   21441809.0744
   -715694.90247   -538160.47344  23756137.5784                   23756137.4494
 11  8 15 17  7 30.0000000  0 11G03G06G07G08G10G11G13G16G19G23G28
    396066.98847    299130.25045  21966051.5944                   21966050.4264
    495186.41046    367202.52743  23926338.1414                   23926337.6294
   -734865.16048   -555575.78546  21366033.0474                   21366030.8244
   -912172.35547   -688955.23844  23083771.4304                   23083770.6644
     83020.95746     61272.02343  24319145.2034                   24319145.9384
   -969011.93446   -738997.68043  23752603.1254                   23752602.5784
     31861.04348     24099.68446  20270702.6334                   20270700.3914
    476261.09047    353527.93843  24548806.6484                   24548805.3164
   -198594.81648   -151995.71146  20960803.2114                   20960799.5474
    463891.37548    350552.35546  21452102.8284                   21452099.5514
   -807680.54747   -609837.57444  23738633.7974                   23738633.0004
 11  8 15 17  8  0.0000000  0 11G03G06G07G08G10G11G13G16G19G23G28
    442864.25447    335595.61345  21974956.7194                   21974956.0434
    552659.91046    411987.04744  23937275.3444                   23937274.8324
   -818899.70348   -621057.26246  21350041.6334                   21350039.5554
  -1017196.72747   -770792.41444  23063785.9224                   23063784.7854
     93412.08646     69368.91843  24321122.6804                   24321123.1374
  -1081354.59846   -826537.42643  23731225.1414                   23731224.2774
     37754.56348     28691.99246  20271824.3204                   20271821.9804
    530050.53546    395441.74643  24559042.0164                   24559040.8404
   -219061.18748   -167943.55946  20956908.4694                   20956904.8834
    518303.97748    392951.72745  21462457.1804                   21462453.7304
   -899492.54746   -681379.35544  23721162.2974                   23721162.2584
 11  8 15 17  8 30.0000000  0 11G03G06G07G08G10G11G13G16G19G23G28
    490026.18847    372345.10545  21983931.1884                   21983930.3284
    610338.89846    456931.64143  23948251.0864                   23948250.7344
   -902872.97348   -686490.97346  21334062.4304                   21334059.8164
  -1122310.21547   -852699.00044  23043783.4454                   23043781.9454
    104034.38746     77645.93443  24323144.4534                   24323144.3404
  -1193724.54747   -914098.39543  23709841.2664                   23709840.9534
     44169.50448     33690.60546  20273044.9924                   20273042.7194
    583703.18046    437248.89143  24569252.3204                   24569250.4534
   -238964.12548   -183452.35946  20953121.3984                   20953117.9224
    573047.21548    435608.71946  21472874.0944                   21472870.7274
   -991137.07447   -752790.68744  23703722.7114                   23703722.1954
 11  8 15 17  9  0.0000000  0 11G03G06G07G08G10G11G13G16G19G23G28
    537554.31647    409379.96145  21992976.1564                   21992974.7894
    668225.44546    502038.01243  23959266.5704                   23959266.1844
   -986778.67648   -751872.05546  21318095.2344                   21318093.0474
  -1227507.55547   -934670.95344  23023764.4774                   23023763.3204
    114889.79746     86104.60943  24325209.5944                   24325210.2464
  -1306114.23847  -1001674.77044  23688454.4694                   23688454.5274
     51108.91848     39097.89846  20274366.0944                   20274363.0514
    637222.91446    478952.51243  24579436.6174                   24579435.6454
   -258299.12548   -198518.60946  20949442.0864                   20949438.0354
    628122.98848    478524.81645  21483355.2424                   21483351.7274
  -1082609.63347   -824067.98444  23686316.0474                   23686315.4264
 11  8 15 17  9 30.0000000  0 11G03G06G07G08G10G11G13G16G19G23G28
    585441.55547    446694.63745  22002088.3524                   22002087.3594
    726312.12546    547300.26243  23970319.6884                   23970319.9734
  -1070620.80948   -817203.59446  21302140.9224                   21302138.7814
  -1332793.02047  -1016711.56244  23003729.4534                   23003728.6844
    125970.66046     94738.96943  24327319.1564                   24327318.9454
  -1418525.26647  -1089267.74644  23667063.6484                   23667063.4144
     58567.43848     44909.69946  20275785.1334                   20275782.7464
    690603.61346    520547.84043  24589595.0164                   24589594.2194
   -277071.64148   -213146.55546  20945869.5314                   20945866.0204
    683523.71548    521694.14845  21493897.3984                   21493894.2664
  -1173915.66847   -895215.50844  23668941.2894                   23668940.1684
 11  8 15 17 10  0.0000000  0 11G03G06G07G08G10G11G13G16G19G23G28
    633699.39147    484298.07045  22011271.3284                   22011270.5204
    784611.11346    592727.96543  23981413.5784                   23981413.7704
  -1154383.02348   -882472.86346  21286201.2344                   21286199.3364
  -1438151.21547  -1098808.84444  22983680.4224                   22983679.3874
    137289.05546    103558.45343  24329472.4384                   24329473.5394
  -1530940.34047  -1176863.83243  23645671.4224                   23645671.1024
     66558.32848     51136.32446  20277305.2344                   20277302.7664
    743859.38746    562045.75843  24599728.9144                   24599729.0474
   -295267.78548   -227325.38746  20942406.8284                   20942403.3054
    739261.50048    565126.11746  21504504.3754                   21504500.8874
  -1265040.63347   -966221.93444  23651601.0084                   23651599.9104
 11  8 15 17 10 30.0000000  0 11G03G06G07G08G10G11G13G16G19G23G28
    682316.08247    522181.15245  22020523.1724                   22020521.8094
    843110.49646    638311.84843  23992545.7194                   23992545.4344
  -1238073.28548   -947686.06246  21270275.7664                   21270273.1884
  -1543590.58647  -1180969.36344  22963616.5394                   22963615.5944
    148833.28546    112553.86343  24331669.5314                   24331670.4844
  -1643365.75446  -1264468.05943  23624277.3914                   23624277.3714
     75071.78548     57770.14146  20278925.5634                   20278923.4264
    796979.75446    603438.16042  24609838.0394                   24609836.5864
   -312897.25448   -241062.65246  20939052.4384                   20939048.6844
    795324.62948    608811.59846  21515172.7814                   21515169.1994
  -1355993.73847  -1037094.44144  23634292.7814                   23634292.1994
 11  8 15 17 11  0.0000000  0 11G03G06G07G08G10G11G13G16G19G23G28
    731285.16847    560338.82445  22029841.6024                   22029841.3954
    901804.23846    684047.14843  24003714.8284                   24003714.6054
  -1321693.35548  -1012844.57046  21254363.4384                   21254360.9024
  -1649113.48847  -1263194.98844  22943535.7504                   22943534.5234
    160597.61746    121720.80943  24333908.7664                   24333908.7194
  -1755802.35946  -1352080.91843  23602881.2664                   23602881.5904
     84102.67248     64807.15646  20280644.2194                   20280641.7814
    849960.70346    644721.92642  24619919.5784                   24619918.4964
   -329964.13348   -254361.52746  20935804.6564                   20935800.8834
    851707.11348    652745.92246  21525902.1804                   21525898.6134
  -1446778.94147  -1107836.12544  23617017.3594                   23617016.3914
 11  8 15 17 11 30.0000000  0 11G03G06G07G08G10G11G13G16G19G23G28
    780603.37947    598768.54745  22039227.0084                   22039225.5044
    960689.04346    729931.33243  24014920.9454                   24014920.1214
  -1405242.67248  -1077947.94146  21238464.3444                   21238462.1884
  -1754719.82047  -1345485.62144  22923439.7274                   22923438.7194
    172578.48046    131056.50043  24336187.7194                   24336188.9844
  -1868247.38346  -1439700.36743  23581482.7034                   23581483.6724
     93649.35248     72246.08646  20282461.0314                   20282458.6374
    902800.68046    685895.83242  24629975.2424                   24629973.9184
   -346469.67248   -267222.99246  20932663.5314                   20932660.0634
    908405.78548    696926.62545  21536691.4304                   21536687.8244
  -1537397.20347  -1178447.73844  23599772.8134                   23599772.0274
 11  8 15 17 12  0.0000000  0 11G03G06G07G08G10G11G13G16G19G23G28
    830272.80547    637471.93045  22048678.7424                   22048677.4924
   1019767.67246    775966.54343  24026162.4224                   24026162.3954
  -1488714.50848  -1142990.92646  21222580.2584                   21222577.9104
  -1860403.75447  -1427836.71144  22903329.0784                   22903327.7624
    184778.04746    140562.58643  24338509.5314                   24338510.3714
  -1980693.46147  -1527320.63743  23560086.1644                   23560085.9224
    103715.80548     80090.03146  20284376.4144                   20284374.3594
    955503.77346    726963.10943  24640004.1804                   24640003.4024
   -362409.41048   -279643.58646  20929630.3054                   20929626.9654
    965423.05548    741355.59045  21547541.1724                   21547537.8244
  -1627843.62946  -1248925.43743  23582561.6334                   23582559.9104
 11  8 15 17 12 30.0000000  0 11G03G06G07G08G10G11G13G16G19G23G28
    880285.37947    676442.73845  22058195.5164                   22058195.0594
   1079032.32047    822146.69543  24037440.5234                   24037440.5744
  -1572112.59448  -1207976.44146  21206710.1804                   21206707.8714
  -1966169.97747  -1510251.95345  22883201.6174                   22883200.9224
    197188.53946    150232.98443  24340871.9064                   24340872.3054
  -2093143.31647  -1614943.87943  23538688.0784                   23538687.0474
    114295.52748     88333.93046  20286389.6254                   20286387.6524
   1008064.04745    767919.07043  24650006.1414                   24650005.2074
   -377789.22748   -291627.87146  20926703.7504                   20926700.2114
   1022750.88348    786026.55145  21558450.2194                   21558447.5704
  -1718123.78147  -1319273.58244  23565382.0944                   23565380.4344
 11  8 15 17 13  0.0000000  0 11G03G06G07G08G10G11G13G16G19G23G28
    930645.12947    715684.05945  22067778.7894                   22067777.7544
   1138487.02746    868474.95744  24048754.2504                   24048754.5044
  -1655428.97348  -1272898.30146  21190855.4774                   21190853.2814
  -2072010.94147  -1592725.39144  22863061.3594                   22863060.0554
    209814.15646    160071.07444  24343274.2894                   24343274.6254
  -2205586.12946  -1702561.63343  23517289.7584                   23517289.4614
    125394.03948     96982.07446  20288501.4384                   20288499.3714
   1060487.49246    808768.37542  24659982.0474                   24659981.0314
   -392603.27048   -303171.29746  20923885.0554                   20923880.8554
   1080393.49648    830942.80545  21569419.6724                   21569416.5394
  -1808231.23847  -1389487.16444  23548234.8594                   23548234.0084
 11  8 15 17 13 30.0000000  0 11G03G06G07G08G10G11G13G16G19G23G28
    981352.35947    755196.16044  22077427.4924                   22077426.6994
   1198132.30146    914951.69544  24060104.6564                   24060104.5554
  -1738658.86348  -1337752.77746  21175017.3134                   21175015.1604
  -2177922.37947  -1675253.77744  22842906.8984                   22842905.9264
    222655.36346    170077.11344  24345718.2814                   24345718.6524
  -2318016.71547  -1790169.84443  23495895.3674                   23495895.2424
    137013.05548    106035.80946  20290712.8444                   20290711.0594
   1112775.99246    849512.64842  24669931.6644                   24669930.9534
   -406849.04348   -314271.90646  20921173.7034                   20921170.5944
   1138351.33248    876104.67245  21580448.5784                   21580445.6134
  -1898163.46947  -1459564.17644  23531121.3054                   23531120.1054
 11  8 15 17 14  0.0000000  0 11G03G06G07G08G10G11G13G16G19G23G28
   1032408.97347    794980.47744  22087144.2504                   22087142.8754
   1257970.47346    961578.76644  24071491.6954                   24071491.0274
  -1821796.18748  -1402535.10246  21159197.0784                   21159194.4804
  -2283898.46147  -1757832.52044  22822740.0314                   22822738.9384
    235714.21546    180252.78543  24348203.0474                   24348204.0704
  -2430427.19947  -1877762.39543  23474504.7504                   23474504.1254
    149156.21148    115497.96546  20293023.5234                   20293021.2734
   1164933.77746    890155.03542  24679857.0474                   24679856.8284
   -420522.43448   -324926.50846  20918571.7344                   20918568.3914
   1196626.60948    921513.91845  21591538.4694                   21591535.1804
  -1987915.71546  -1529500.98043  23514042.3984                   23514040.9344
 11  8 15 17 14 30.0000000  0 11G03G06G07G08G10G11G13G16G19G23G28
   1083798.57847    835024.29744  22096922.8054                   22096922.0204
   1317985.23847   1008343.44544  24082912.1254                   24082912.5664
  -1904853.00048  -1467254.69946  21143391.7894                   21143389.5514
  -2389952.39847  -1840471.93045  22802558.6954                   22802557.7544
    248974.39146    190585.29744  24350726.7114                   24350727.1644
  -2542828.44947  -1965347.71144  23453115.0784                   23453115.3484
    161808.39148    125356.76246  20295431.5784                   20295429.1564
   1216946.39846    930684.23843  24689755.7734                   24689754.2194
   -433638.03548   -335146.47346  20916076.1484                   20916072.8714
   1255202.77348    967157.59445  21602685.0784                   21602681.0554
  -2077502.09046  -1599308.50843  23496993.0634                   23496993.2424
 11  8 15 17 15  0.0000000  0 11G03G06G07G08G10G11G13G16G19G23G28
   1135530.69947    875334.98845  22106767.3914                   22106766.3164
   1378186.39546   1055253.34844  24094368.0394                   24094368.2424
  -1987815.84848  -1531901.05946  21127604.6334                   21127602.0204
  -2496071.29747  -1923161.97344  22782365.1334                   22782363.9694
    262445.41846    201082.14143  24353289.5704                   24353290.7234
  -2655204.91047  -2052913.73844  23431730.3914                   23431730.3714
    174981.17248    135621.23046  20297937.9304                   20297935.8984
   1268825.44546    971109.44942  24699627.6564                   24699626.7074
   -446184.51648   -344922.97346  20913688.7114                   20913685.0354
   1314089.69548   1013043.43045  21613891.0394                   21613886.8954
  -2166910.68446  -1668977.55144  23479979.5634                   23479979.2344
 11  8 15 17 15 30.0000000  0 11G03G06G07G08G10G11G13G16G19G23G28
   1187604.20347    915911.72344  22116676.2344                   22116675.3754
   1438573.19147   1102307.93443  24105859.2504                   24105859.6094
  -2070680.99648  -1596471.30546  21111835.6414                   21111833.5664
  -2602251.69147  -2005899.92245  22762159.6644                   22762158.5204
    276126.66046    211742.75043  24355892.5474                   24355894.0164
  -2767552.02347  -2140456.87544  23410351.8754                   23410351.5514
    188674.10948    146291.00846  20300543.4774                   20300541.2734
   1320571.80146   1011431.21542  24709473.8524                   24709473.8284
   -458160.71148   -354255.09846  20911409.3914                   20911405.9224
   1373286.44548   1059170.68045  21625155.6884                   21625152.1414
  -2256140.05947  -1738506.89843  23463000.7274                   23462999.3244
 11  8 15 17 16  0.0000000  0 11G03G06G07G08G10G11G13G16G19G23G28
   1240009.26247    956746.76645  22126649.1804                   22126648.2194
   1499136.15647   1149499.77344  24117384.0474                   24117383.7624
  -2153454.03948  -1660969.77746  21096084.8754                   21096082.3054
  -2708500.06647  -2088690.84845  22741941.1804                   22741940.0634
    290008.05547    222559.33643  24358534.8204                   24358535.9144
  -2879874.09047  -2227980.53944  23388978.1484                   23388977.2624
    202879.30948    157359.94946  20303246.7664                   20303244.6454
   1372177.65646   1051643.45742  24719294.8524                   24719294.4884
   -469574.38348   -363148.88346  20909237.9924                   20909234.2894
   1432783.38748   1105531.86345  21636477.4304                   21636474.2664
  -2345197.48847  -1807902.25843  23446053.2344                   23446052.0124
 11  8 15 17 16 30.0000000  0 11G03G06G07G08G10G11G13G16G19G23G28
   1292746.89847    997840.99644  22136684.2814                   22136683.4024
   1559876.36346   1196829.74643  24128942.1954                   24128942.7034
  -2236129.77748  -1725392.42646  21080352.0084                   21080349.6454
  -2814811.88347  -2171531.21945  22721711.2664                   22721709.9454
    304090.63746    233532.72343  24361214.3674                   24361214.7894
  -2992164.19947  -2315479.28144  23367609.7424                   23367608.8094
    217599.16848    168829.93446  20306047.7664                   20306045.7934
   1423646.17646   1091748.78543  24729089.7974                   24729088.2974
   -480422.76648   -371602.18746  20907173.5554                   20907169.6374
   1492581.59448   1152127.79345  21647856.9924                   21647853.6804
  -2434079.48847  -1877160.93744  23429139.3674                   23429138.8094
 11  8 15 17 17  0.0000000  0 11G03G06G07G08G10G11G13G16G19G23G28
   1345812.27347   1039190.59044  22146782.9064                   22146782.0904
   1620789.44546   1244294.40643  24140533.6334                   24140534.7304
  -2318708.64848  -1789739.59846  21064637.1804                   21064635.2934
  -2921188.02047  -2254421.69544  22701468.0394                   22701466.3094
    318369.98046    244659.36343  24363931.8444                   24363933.1684
  -3104421.23447  -2402952.25444  23346248.0394                   23346247.2854
    232830.55148    180698.50446  20308946.4144                   20308944.5944
   1474974.72746   1131744.96143  24738856.5394                   24738855.9414
   -490708.66448   -379617.18446  20905215.9454                   20905212.2734
   1552676.52748   1198954.93445  21659292.6484                   21659289.4144
  -2522788.25847  -1946284.63344  23412258.5704                   23412258.2074
 11  8 15 17 17 30.0000000  0 10G03G06G07G08G10G11G13G19G23G28
   1399199.86747   1080791.23844  22156941.7274                   22156940.8674
   1681870.35846   1291889.88043  24152157.7274                   24152157.8794
  -2401191.42648  -1854011.88746  21048941.2504                   21048939.0084
  -3027629.86747  -2337363.37544  22681212.2034                   22681211.6524
    332841.16046    255935.55143  24366686.5234                   24366685.9774
  -3216644.85247  -2490399.20344  23324892.6564                   23324891.7154
    248569.23448    192962.37546  20311941.6094                   20311939.3674
   -500435.42248   -387196.48846  20903365.1884                   20903361.4844
   1613062.93048   1246009.18845  21670783.9144                   21670780.6414
  -2611326.94547  -2015275.76244  23395411.0004                   23395409.0164
 11  8 15 17 18  0.0000000  0 10G03G06G07G08G10G11G13G19G23G28
   1452918.56347   1122649.92244  22167164.3674                   22167163.5634
   1743128.23846   1339623.21543  24163815.2664                   24163814.3674
  -2483564.64148  -1918198.81246  21033266.3284                   21033264.4104
  -3134124.80147  -2420346.43445  22660947.2734                   22660946.5864
    347512.96546    267368.02043  24369477.9774                   24369478.8984
  -3328820.39847  -2577808.70343  23303545.6024                   23303544.8014
    264825.36348    205629.45346  20315034.9224                   20315032.7584
   -509592.55948   -394331.93746  20901622.1724                   20901618.4694
   1673749.78148   1293297.55145  21682332.4694                   21682329.1454
  -2699684.21947  -2084125.54744  23378596.9454                   23378596.1724
 11  8 15 17 18 30.0000000  0 10G03G06G07G08G10G11G13G19G23G28
   3082374.88347   2392356.09845  22477239.7734                   22477238.5204
   3379969.38746   2615083.81643  24475294.3674                   24475295.2424
   -990413.69948   -754704.56646  21317403.5634                   21317401.4614
  -1665257.46947  -1275774.46945  22940463.5704                   22940462.5514
   1937792.91446   1506547.12943  24672098.1564                   24672098.8164
  -1865530.44547  -1437582.71543  23582000.2894                   23581999.7814
   1857008.30148   1446291.44546  20618017.3524                   20618014.8404
   1057230.16048    826568.86346  21199778.9694                   21199775.3134
   3310143.09848   2568409.13745  21993727.6954                   21993724.3954
  -1212446.58647   -925239.04744  23661608.6954                   23661607.8364
 11  8 15 17 19  0.0000000  0 10G03G06G07G08G10G11G13G19G23G28
   3136746.55147   2434723.57044  22487586.6724                   22487585.6094
   3441572.72346   2663086.32043  24487018.0234                   24487018.1254
  -1072564.85248   -818718.44946  21301770.9694                   21301768.6334
  -1771856.67247  -1358838.76645  22920178.2034                   22920177.1684
   1952856.86347   1518285.20343  24674964.8364                   24674965.5394
  -1977601.99247  -1524911.14144  23560674.1564                   23560673.7814
   1874294.25448   1459760.98046  20621307.0314                   20621304.7934
   1049208.57848    820318.27746  21198252.4454                   21198248.6294
   3371421.77348   2616158.66445  22005388.4064                   22005385.6024
  -1300442.77347   -993807.47344  23644863.6564                   23644862.6294
 11  8 15 17 19 30.0000000  0 10G03G06G07G08G10G11G13G19G23G28
   3191439.41847   2477341.34045  22497994.2274                   22497993.1914
   3503343.79746   2711219.60543  24498772.6564                   24498773.1804
  -1154603.95748   -882645.02746  21286159.5784                   21286156.9924
  -1878507.82847  -1441943.53945  22899883.2424                   22899882.4654
   1968111.77046   1530172.03943  24677867.8134                   24677868.9064
  -2089618.18447  -1612196.44144  23539357.6254                   23539357.4694
   1892091.53548   1473628.94946  20624693.5944                   20624691.2544
   1041751.96548    814507.91846  21196833.5634                   21196829.9104
   3432991.02048   2664134.61345  22017104.9534                   22017101.7234
  -1388260.39847  -1062236.75044  23628152.1484                   23628151.7034
 11  8 15 17 20  0.0000000  0 10G03G06G07G08G10G11G13G19G23G28
   3246454.74247   2520210.35945  22508463.1644                   22508462.3874
   3565284.27046   2759484.84843  24510559.8364                   24510559.8524
  -1236524.81248   -946479.45346  21270570.3284                   21270567.7734
  -1985205.56247  -1525084.62945  22879579.3134                   22879578.1294
   1983558.77746   1542208.57443  24680807.1954                   24680807.9304
  -2201571.98047  -1699433.11744  23518054.5004                   23518053.7504
   1910402.69948   1487897.35546  20628177.9384                   20628175.6804
   1034863.47748    809140.25046  21195523.1334                   21195519.0904
   3494852.26248   2712338.08645  22028876.8134                   22028873.4494
  -1475895.80547  -1130524.06244  23611476.0634                   23611474.4414
 11  8 15 17 20 30.0000000  0 10G03G06G07G08G10G11G13G19G23G28
   3301778.39547   2563319.65244  22518990.9224                   22518989.9224
   3627380.46146   2807871.43043  24522376.2734                   24522376.1484
  -1318336.73448  -1010228.99646  21255002.1884                   21254999.2624
  -2091960.02747  -1608269.91044  22859264.5944                   22859263.3594
   1999184.04746   1554384.05943  24683780.3444                   24683780.9694
  -2313471.10247  -1786627.19143  23496760.4844                   23496759.5554
   1929215.48448   1502556.62946  20631758.2504                   20631755.6844
   1028531.18448    804205.98046  21194317.5474                   21194314.1174
   3556991.84448   2760758.44945  22040701.6094                   22040698.3834
  -1563359.94547  -1198677.87944  23594831.9224                   23594831.3794
 11  8 15 17 21  0.0000000  0 10G03G06G07G08G10G11G13G19G23G28
   3357417.57847   2606674.78944  22529578.9144                   22529578.1454
   3689639.52346   2856384.93843  24534223.9304                   24534223.7934
  -1400028.85548  -1073885.19946  21239456.6094                   21239453.9224
  -2198760.80547  -1691491.29345  22838941.0554                   22838939.6454
   2014994.58246   1566703.86343  24686788.6884                   24686789.9024
  -2425303.37147  -1873769.18443  23475478.6484                   23475478.6094
   1948537.85948   1517612.98046  20635434.9224                   20635432.7974
   1022763.42648    799711.60246  21193220.5394                   21193216.4924
   3619416.57048   2809401.00445  22052581.2894                   22052578.1094
  -1650643.85547  -1266691.30544  23578221.9534                   23578221.2814
 11  8 15 17 21 30.0000000  0 10G03G06G07G08G10G11G13G19G23G28
   3413359.97747   2650266.21544  22540224.4144                   22540223.8094
   3752050.26646   2905016.59043  24546100.1334                   24546099.6954
  -1481608.09848  -1137453.43046  21223932.3134                   21223930.2304
  -2305615.37547  -1774754.57845  22818607.0474                   22818606.2344
   2030979.30946   1579159.41043  24689831.4224                   24689831.7194
  -2537074.53147  -1960863.56243  23454209.6884                   23454208.7974
   1968359.25048   1533058.18046  20639206.8204                   20639204.7384
   1017550.42648    795649.51246  21192228.3984                   21192224.9144
   3682114.60548   2858256.52045  22064511.6174                   22064508.7304
  -1737757.09847  -1334571.72744  23561645.4614                   23561643.7774
 11  8 15 17 22  0.0000000  0 10G03G06G07G08G10G11G13G19G23G28
   3469616.07047   2694102.07444  22550929.3984                   22550928.4384
   3814623.18446   2953774.64143  24558007.2114                   24558007.1484
  -1563059.93448  -1200922.39546  21208432.7344                   21208430.4534
  -2412509.75847  -1858048.90245  22798265.8594                   22798265.0474
   2047148.52346   1591758.72343  24692908.8914                   24692908.9694
  -2648768.20347  -2047897.52343  23432954.7584                   23432954.1454
   1988691.49248   1548901.44546  20643075.9614                   20643073.8674
   1012903.89848    792028.82046  21191344.1254                   21191340.2194
   3745097.04348   2907333.66445  22076497.1254                   22076493.9024
  -1824686.60547  -1402308.99244  23545103.0234                   23545101.9734
 11  8 15 17 22 30.0000000  0 10G03G06G07G08G10G11G13G19G23G28
   3526181.60547   2738179.06344  22561693.6724                   22561692.7624
   3877354.14846   3002655.84843  24569944.6334                   24569944.5634
  -1644384.25048  -1264291.99246  21192956.8054                   21192954.6524
  -2519444.70347  -1941374.81244  22777917.3284                   22777915.9774
   2063497.28946   1604497.91843  24696019.3054                   24696020.0744
  -2760382.96547  -2134870.03144  23411714.9844                   23411714.2934
   2009530.91048   1565139.91446  20647041.7114                   20647039.4494
   1008821.04348    788847.35946  21190567.2894                   21190563.4304
   3808359.04748   2956628.63745  22088535.4534                   22088532.5314
  -1911434.63347  -1469904.84044  23528595.0394                   23528595.0314
 11  8 15 17 23  0.0000000  0 10G03G06G07G08G10G11G13G19G23G28
   3583052.61347   2782494.08644  22572515.3754                   22572514.9264
   3940239.48046   3051657.34843  24581911.3364                   24581910.9924
  -1725580.71148  -1327561.96546  21177505.9144                   21177503.7544
  -2626419.67247  -2024731.91845  22757560.2194                   22757558.8444
   2080021.99646   1617374.26243  24699164.3984                   24699165.0984
  -2871917.41847  -2221779.92243  23390490.9384                   23390490.6334
   2030875.06348   1581771.68446  20651103.3754                   20651101.1334
   1005299.57048    786103.34446  21189897.1334                   21189893.4144
   3871896.78948   3006138.48445  22100626.4614                   22100623.9884
  -1998002.84447  -1537360.55944  23512121.9844                   23512121.5984
 11  8 15 17 23 30.0000000  0 10G03G06G07G08G10G11G13G19G23G28
   3640225.84047   2827044.58644  22583395.4224                   22583394.6294
   4003276.48846   3100776.98843  24593907.2814                   24593907.2304
  -1806647.89148  -1390731.20346  21162079.4224                   21162077.0044
  -2733433.74247  -2108119.49245  22737196.3914                   22737194.6054
   2096719.82046   1630385.43442  24702341.5314                   24702342.0354
  -2983368.30547  -2308624.72344  23369282.4694                   23369282.0554
   2052721.61348   1598794.93446  20655260.7974                   20655258.2934
   1002337.91047    783795.53146  21189333.5554                   21189329.7034
   3935707.17648   3055860.77045  22112769.3674                   22112766.1684
  -2084391.93447  -1604676.71544  23495682.6254                   23495681.6414
 11  8 15 17 24  0.0000000  0 10G03G06G07G08G10G11G13G19G23G28
   3697706.68847   2871834.78944  22594334.1724                   22594333.0354
   4066471.26647   3150019.60943  24605933.1804                   24605932.7154
  -1887575.53148  -1453791.70746  21146679.3834                   21146676.6764
  -2840477.74247  -2191530.38345  22716826.6644                   22716825.0984
   2113596.37146   1643535.85542  24705552.9384                   24705553.9144
  -3094724.16047  -2395395.44944  23348092.2344                   23348091.9104
   2075077.46948   1616215.03146  20659514.8054                   20659512.7114
    999943.65248    781929.85246  21188877.9844                   21188874.1334
   3999796.29748   3105800.24645  22124964.9304                   22124962.1134
  -2170593.48847  -1671846.74244  23479279.1804                   23479278.2624
 11  8 15 17 24 30.0000000  0 10G03G06G07G08G10G11G13G19G23G28
   3755475.46547   2916849.37944  22605327.0634                   22605325.8524
   4129803.89546   3199369.62943  24617984.6724                   24617984.3204
  -1968379.09848  -1516755.53546  21131302.8204                   21131300.7464
  -2947567.69147  -2274977.09045  22696448.5084                   22696447.0784
   2130631.75046   1656810.11742  24708794.7194                   24708796.0704
  -3205999.68047  -2482103.55544  23326916.6094                   23326916.4144
   2097923.82448   1634017.34846  20663862.3134                   20663860.2384
    998098.08248    780491.73446  21188526.4844                   21188523.3444
   4064143.65648   3155940.95345  22137209.7734                   22137207.6684
  -2256625.54347  -1738884.69944  23462907.6094                   23462906.1094
 11  8 15 17 25  0.0000000  0 10G03G06G07G08G10G11G13G19G23G28
   3813522.40247   2962080.67644  22616372.6484                   22616372.3404
   4193265.30546   3248820.00043  24630061.6644                   24630060.5204
  -2049063.67248  -1579626.62946  21115949.3754                   21115946.6844
  -3054708.89847  -2358463.73045  22676059.7584                   22676058.7504
   2147816.53546   1670200.75042  24712065.4694                   24712067.0514
  -3317198.00047  -2568751.51644  23305756.2344                   23305756.2114
   2121252.17248   1652195.24646  20668301.7734                   20668299.5984
    996793.06348    779474.80146  21188278.4924                   21188274.9264
   4128740.02748   3206275.69145  22149502.6954                   22149499.2274
  -2342495.27047  -1805796.13744  23446567.0084                   23446565.8054
 11  8 15 17 25 30.0000000  0 10G03G06G07G08G10G11G13G19G23G28
   3871851.02047   3007531.51244  22627472.6804                   22627471.6374
   4256859.50846   3298373.83643  24642162.1644                   24642162.4454
  -2129621.15248  -1642398.69146  21100619.5314                   21100616.9104
  -3161894.28147  -2441984.79745  22655662.8364                   22655661.3484
   2165154.24646   1683710.59042  24715365.1414                   24715366.6024
  -3428309.82847  -2655332.06244  23284612.6094                   23284612.2074
   2145067.10248   1670752.30946  20672833.6954                   20672831.2464
    996033.68448    778883.05546  21188133.9064                   21188130.3954
   4193588.75848   3256807.05545  22161842.6094                   22161840.1214
  -2428196.53147  -1872576.32844  23430258.5234                   23430257.7894
 11  8 15 17 26  0.0000000  0 10G03G06G07G08G10G11G13G19G23G28
   3930464.68847   3053204.44144  22638626.3984                   22638625.3874
   4320590.16846   3348034.00843  24654290.7664                   24654289.6644
  -2210043.58248  -1705065.53146  21085316.0394                   21085313.3484
  -3269116.20747  -2525534.34045  22635259.2894                   22635258.2894
   2182648.46146   1697342.34442  24718692.7424                   24718694.7154
  -3539325.94147  -2741838.07844  23263487.0084                   23263486.3634
   2169373.10948   1689692.01646  20677458.8134                   20677456.4534
    995825.14848    778720.53146  21188094.5554                   21188090.6564
   4258693.49247   3307537.93045  22174231.3054                   22174229.0314
  -2513723.78547  -1939220.93744  23413983.2114                   23413982.4264
 11  8 15 17 26 30.0000000  0 10G03G06G07G08G10G11G13G19G23G28
   3989363.61347   3099099.64144  22649834.6644                   22649833.5984
   4384457.79746   3397800.93043  24666443.8914                   24666443.4454
  -2290326.57848  -1767623.71546  21070038.6254                   21070035.6134
  -3376370.48847  -2609109.10245  22614849.4144                   22614848.0864
   2200299.64146   1711096.41442  24722052.2584                   24722054.5234
  -3650240.29347  -2828264.80144  23242380.8364                   23242380.2934
   2194171.35948   1709015.28946  20682177.9454                   20682175.7234
    996168.94548    778988.40246  21188159.9454                   21188156.2464
   4324054.54747   3358468.54345  22186669.4614                   22186666.6174
  -2599074.37947  -2005727.88344  23397741.7274                   23397740.5274
 11  8 15 17 27  0.0000000  0 10G03G06G07G08G10G11G13G19G23G28
   4048533.30547   3145205.82444  22661094.1334                   22661093.8094
   4448448.07046   3447663.39543  24678621.3054                   24678620.8954
  -2370480.11748  -1830081.02046  21054785.7974                   21054783.5394
  -3483667.76247  -2692717.36345  22594431.3524                   22594429.9844
   2218092.78146   1724961.18842  24725438.4454                   24725439.1254
  -3761061.66047  -2914619.05544  23221291.9774                   23221291.6054
   2219448.07848   1728711.39146  20686987.6804                   20686985.9654
    997051.69548    779676.23846  21188327.5084                   21188324.0004
   4389657.07848   3409587.28945  22199153.6414                   22199150.6914
  -2684260.84047  -2072106.94944  23381531.5314                   23381530.3754
 11  8 15 17 27 30.0000000  0 10G03G06G07G08G10G11G13G19G23G28
   4107976.33647   3191525.03544  22672406.2034                   22672405.0354
   4512564.26246   3497623.99243  24690821.5164                   24690822.4494
  -2450496.51248  -1892431.46146  21039559.2894                   21039556.6764
  -3591001.12547  -2776353.73845  22574006.7274                   22574005.2504
   2236031.16046   1738939.02343  24728851.6414                   24728853.4924
  -3871781.10547  -3000893.89844  23200222.5394                   23200222.4694
   2245207.58648   1748783.69546  20691889.4774                   20691887.6884
    998477.92648    780787.56646  21188598.8134                   21188595.4344
   4455504.26647   3460896.69945  22211683.7584                   22211681.2664
  -2769277.63347  -2138353.77344  23365353.7194                   23365352.0274
 11  8 15 17 28  0.0000000  0 10G03G06G07G08G10G11G13G19G23G28
   4167687.59047   3238053.21144  22683768.5314                   22683768.2704
   4576801.90246   3547679.23042  24703045.6644                   24703045.7344
  -2530376.32448  -1954675.48046  21024358.2194                   21024356.2154
  -3698371.25047  -2860018.75445  22553574.8364                   22553573.4574
   2254109.90246   1753026.25043  24732292.5474                   24732293.1054
  -3982397.93447  -3087088.75844  23179173.1414                   23179172.4024
   2271445.69148   1769228.93046  20696882.7114                   20696881.2194
   1000444.04348    782319.58246  21188973.1484                   21188969.7814
   4521591.02047   3512392.76245  22224259.7734                   22224256.6914
  -2854127.51647  -2204470.54744  23349206.7734                   23349205.6174
 11  8 15 17 28 30.0000000  0 10G03G06G07G08G10G11G13G19G23G28
   4227664.62147   3284788.51644  22695182.1884                   22695180.9344
   4641158.74646   3597827.37143  24715292.3594                   24715292.4844
  -2610117.59448  -2016811.54746  21009184.5474                   21009182.1564
  -3805776.88347  -2943711.46145  22533136.0634                   22533134.7774
   2272326.42646   1767220.86743  24735758.9384                   24735760.4224
  -4092908.99247  -3173201.18044  23158143.8204                   23158143.0084
   2298160.50448   1790045.62546  20701966.5004                   20701964.5164
   1002948.63748    784271.19146  21189450.0784                   21189446.2034
   4587914.87947   3564073.57845  22236881.0554                   22236877.9734
  -2938811.01647  -2270457.69144  23333091.8834                   23333090.7464
 11  8 15 17 29  0.0000000  0 10G03G06G07G08G10G11G13G19G23G28
   4287916.53547   3331737.98844  22706647.8834                   22706647.4494
   4705644.11346   3648075.64143  24727563.1334                   24727563.5704
  -2689706.50048  -2078828.87946  20994039.2114                   20994036.9534
  -3913204.82047  -3027421.53145  22512693.2194                   22512691.6954
   2290689.98846   1781530.07443  24739253.4774                   24739254.2624
  -4203298.84846  -3259219.19544  23137137.2894                   23137136.5864
   2325362.25448   1811241.74646  20707142.5784                   20707141.0044
   1006002.41848    786650.74246  21190031.0784                   21190027.5354
   4654485.04747   3615946.34045  22249549.1644                   22249546.2774
  -3023316.46947  -2336306.09444  23317011.4844                   23317010.1684
 11  8 15 17 29 30.0000000  0 10G03G06G07G08G10G11G13G19G23G28
   4348427.41446   3378889.24644  22718162.5474                   22718161.3014
   4770242.84846   3698412.27043  24739856.1414                   24739856.8954
  -2769154.46548  -2140736.39546  20978920.7974                   20978918.6094
  -4020667.04747  -3111158.31645  22492243.9534                   22492242.2114
   2309184.52046   1795941.32843  24742773.1254                   24742774.4804
  -4313577.55147  -3345150.62944  23116151.3054                   23116151.0744
   2353036.08248   1832805.72346  20712408.7814                   20712407.4774
   1009590.62548    789446.73046  21190714.0944                   21190710.2234
   4721285.46147   3667998.52345  22262260.7894                   22262257.3164
  -3107657.39147  -2402026.27044  23300961.5864                   23300960.6844
 11  8 15 17 30  0.0000000  0 10G03G06G07G08G10G11G13G19G23G28
   4409192.33647   3426238.48444  22729725.8914                   22729725.4104
   4834950.20346   3748833.55943  24752169.0554                   24752170.8134
  -2848461.46148  -2202534.06646  20963828.7034                   20963826.7504
  -4128164.14547  -3194922.28145  22471788.0704                   22471786.4024
   2327805.62546   1810451.20344  24746316.7664                   24746318.0434
  -4423744.15247  -3430994.71144  23095187.7734                   23095186.2894
   2381177.83248   1854734.32046  20717763.8444                   20717762.2194
   1013709.75848    792656.41446  21191497.6334                   21191494.1564
   4788310.98047   3720226.10245  22275015.1884                   22275012.9144
  -3191836.60247  -2467620.43444  23284942.6724                   23284941.8244
 11  8 15 17 30 30.0000000  0 10G03G06G07G08G10G11G13G19G23G28
   4470228.30547   3473798.88344  22741340.5314                   22741340.0434
   4899783.85946   3799353.27343  24764506.8054                   24764507.6684
  -2927606.36348  -2264205.41446  20948768.1174                   20948765.9304
  -4235674.63747  -3278696.69145  22451329.1484                   22451328.0944
   2346570.32847   1825072.96143  24749888.6254                   24749889.0984
  -4533775.60547  -3516733.48844  23074248.8134                   23074248.1644
   2409805.90248   1877041.86346  20723211.7894                   20723210.0274
   1018378.34848    796294.25846  21192386.0944                   21192382.7344
   4855579.31647   3772642.89145  22287816.0704                   22287813.1024
  -3275834.41847  -2533073.28944  23268958.7424                   23268957.6294
 11  8 15 17 31  0.0000000  0 10G03G06G07G08G10G11G13G19G23G28
   4531513.82047   3521553.75044  22753002.9384                   22753002.0904
   4964722.46546   3849954.77343  24776864.5784                   24776865.1524
  -3006605.73048  -2325763.36746  20933735.1094                   20933733.0664
  -4343216.13747  -3362495.25045  22430864.9614                   22430863.0124
   2365456.88747   1839789.67643  24753481.3674                   24753482.4144
  -4643687.77047  -3602379.29744  23053333.5944                   23053332.5984
   2438899.05948   1899711.81346  20728748.0474                   20728746.2734
   1023575.62148    800344.07046  21193375.2114                   21193371.4104
   4923068.47747   3825231.74245  22300658.4924                   22300656.0984
  -3359670.31247  -2598399.96944  23253005.3754                   23253003.5634
 11  8 15 17 31 30.0000000  0 10G03G06G07G08G10G11G13G19G23G28
   4593060.37546   3569512.02744  22764714.7584                   22764714.3134
   5029778.19145   3900647.51643  24789244.6484                   24789245.5554
  -3085443.46948  -2387195.38346  20918732.7894                   20918730.6684
  -4450773.02347  -3446305.79745  22410397.2974                   22410395.6884
   2384477.18446   1854610.61343  24757100.4844                   24757102.6134
  -4753462.91847  -3687918.35544  23032443.8204                   23032443.1644
   2468469.92648   1922754.00446  20734374.8284                   20734373.1134
   1029314.98448    804816.28146  21194467.7274                   21194463.5394
   4990790.23447   3878001.83645  22313545.9064                   22313543.6914
  -3443330.35547  -2663589.60544  23237085.3054                   23237083.7854
 11  8 15 17 32  0.0000000  0 10G03G06G07G08G10G11G13G19G23G28
   4654867.35547   3617673.23444  22776476.1564                   22776475.3594
   5094950.53146   3951431.07043  24801645.8134                   24801646.9694
  -3164115.84048  -2448498.52346  20903761.9454                   20903759.6954
  -4558341.98447  -3530125.76645  22389927.6174                   22389926.4144
   2403630.68446   1869535.35943  24760745.4064                   24760746.7304
  -4863095.96947  -3773346.68444  23011581.8754                   23011580.8244
   2498518.17248   1946168.18046  20740093.5314                   20740091.5044
   1035596.71148    809711.12546  21195662.7424                   21195659.3754
   5058743.82847   3930952.59445  22326477.1254                   22326474.2114
  -3526813.06247  -2728641.02744  23221199.1804                   23221198.0434
 11  8 15 17 32 30.0000000  0 10G03G06G07G08G10G11G13G19G23G28
   4716909.87547   3666017.96944  22788282.4774                   22788282.2384
   5160215.14846   4002286.58643  24814066.2734                   24814066.1724
  -3242642.83248  -2509688.38746  20888818.9924                   20888816.7974
  -4665943.67647  -3613971.22345  22369451.9304                   22369450.7734
   2422892.66846   1884544.60543  24764411.7114                   24764412.5824
  -4972605.83647  -3858679.02344  22990742.5554                   22990742.0474
   2529020.33248   1969936.06646  20745897.6414                   20745895.7854
   1042397.16848    815010.17246  21196956.6024                   21196953.3204
   5126904.37947   3984064.59445  22339447.7734                   22339445.3794
  -3610141.08247  -2793571.95344  23205342.5234                   23205341.0274
 11  8 15 17 33  0.0000000  0 10G03G06G07G08G10G11G13G19G23G28
   4779204.18447   3714558.92244  22800136.8284                   22800136.2464
   5225588.69946   4053226.98843  24826506.4694                   24826507.5514
  -3321003.68048  -2570748.78946  20873907.4224                   20873904.8094
  -4773557.41047  -3697826.06645  22348973.4304                   22348972.0394
   2442279.35546   1899651.05943  24768099.9534                   24768101.4844
  -5081970.23847  -3943898.02044  22969931.8364                   22969930.1914
   2559993.30548   1994070.81346  20751791.6954                   20751789.8164
   1049733.86348    820727.07446  21198353.2974                   21198349.5824
   5195288.44547   4037350.76645  22352461.5004                   22352458.6454
  -3693295.56247  -2858367.63744  23189518.7344                   23189517.6054
 11  8 15 17 33 30.0000000  0  9G03G07G08G10G11G13G19G23G28
   4841750.41447   3763296.18444  22812039.5554                   22812038.3204
  -3399193.45748  -2631675.89146  20859028.4304                   20859026.2074
  -4881179.08647  -3781687.10545  22328493.7114                   22328492.1024
   2461790.76246   1914854.64843  24771813.3134                   24771814.6374
  -5191183.34847  -4028999.12144  22949148.9844                   22949148.0864
   2591438.03148   2018573.16446  20757775.3674                   20757773.8324
   1057608.19947    826862.91846  21199851.5394                   21199847.7664
   5263895.93847   4090811.03545  22365516.5784                   22365514.2274
  -3776274.26247  -2923026.37544  23173728.2194                   23173727.0124
 11  8 15 17 34  0.0000000  0  9G03G07G08G10G11G13G19G23G28
   4904544.72747   3812226.74644  22823988.7274                   22823987.8914
  -3477211.42248  -2692469.11346  20844181.5394                   20844179.6564
  -4988808.11347  -3865553.87945  22308012.6484                   22308010.9264
   2481423.36746   1930152.70343  24775549.2734                   24775550.9184
  -5300242.68746  -4113980.43444  22928395.3914                   22928393.6094
   2623351.54348   2043440.78946  20763848.5554                   20763846.4844
   1066017.43848    833415.55946  21201451.4844                   21201447.8094
   5332722.93447   4144442.35545  22378613.6954                   22378611.5124
  -3859078.69947  -2987549.27344  23157970.5864                   23157969.9454
 11  8 15 17 34 30.0000000  0  9G03G07G08G10G11G13G19G23G28
   4967574.96147   3861341.15644  22835983.4614                   22835982.5394
  -3555065.31248  -2753134.49246  20829366.5784                   20829364.2854
  -5096452.61347  -3949432.69145  22287528.3914                   22287527.0204
   2501164.70746   1945535.52743  24779306.5004                   24779307.8364
  -5409154.84047  -4198847.02044  22907669.9454                   22907669.2854
   2655722.04748   2068664.52046  20770008.6024                   20770006.2734
   1074950.11748    840376.08646  21203151.5004                   21203147.3404
   5401757.26247   4198235.22345  22391750.6024                   22391747.8094
  -3941719.15247  -3051944.38344  23142244.8054                   23142243.6764
 11  8 15 17 35  0.0000000  0  9G03G07G08G10G11G13G19G23G28
   5030854.26647   3910649.60244  22848024.6254                   22848023.7504
  -3632736.69548  -2813657.64146  20814586.4304                   20814584.0594
  -5204094.75847  -4033309.68445  22267044.9384                   22267043.4534
   2521028.65246   1961013.87543  24783086.5474                   24783087.6644
  -5517900.23047  -4283583.68044  22886976.2974                   22886975.1884
   2688563.96148   2094255.58246  20776258.1804                   20776256.2734
   1084421.10548    847756.06346  21204953.7734                   21204950.3364
   5471012.44947   4252200.19545  22404930.1174                   22404927.3284
  -4024179.58647  -3116199.23044  23126553.1024                   23126551.3834
 11  8 15 17 35 30.0000000  0  9G03G07G08G10G11G13G19G23G28
   5094357.94947   3960132.91444  22860108.9694                   22860109.1524
  -3710246.23848  -2874054.68046  20799837.0784                   20799834.5274
  -5311755.41047  -4117201.07445  22246557.6644                   22246556.2624
   2540990.10246   1976568.16843  24786884.5704                   24786886.6564
  -5626498.02747  -4368205.32044  22866310.9384                   22866310.5124
   2721852.88748   2120194.96146  20782592.7814                   20782591.0434
   1094406.59447    855536.94546  21206853.7344                   21206850.5554
   5540463.51247   4306317.78545  22418146.6174                   22418143.7304
  -4106482.79347  -3180331.57444  23110891.5704                   23110889.9654
 11  8 15 17 36  0.0000000  0  9G03G07G08G10G11G13G19G23G28
   5158107.18047   4009807.55944  22872240.2114                   22872239.8754
  -3787567.86748  -2934305.31246  20785122.9224                   20785120.8954
  -5419408.93747  -4201086.93045  22226071.8674                   22226070.6214
   2561070.60546   1992215.24242  24790706.0554                   24790707.6764
  -5734921.06247  -4452690.77044  22845678.9924                   22845678.0944
   2755610.77348   2146499.77746  20789016.7584                   20789014.7504
   1104928.60548    863735.90646  21208855.7274                   21208852.6684
   5610131.62147   4360604.52045  22431403.7194                   22431400.9884
  -4188605.35547  -3244323.14144  23095263.5164                   23095262.5514
 11  8 15 17 36 30.0000000  0  9G03G07G08G10G11G13G19G23G28
   5222083.63347   4059659.25444  22884414.3594                   22884414.3244
  -3864715.19148  -2994420.10546  20770442.2894                   20770440.1804
  -5527069.38747  -4284978.18445  22205584.9924                   22205583.1844
   2581251.86746   2007940.81643  24794547.2664                   24794547.6604
  -5843181.67647  -4537049.66844  22825077.7274                   22825077.5474
   2789820.28948   2173156.49246  20795526.7274                   20795524.5864
   1115970.24648    872339.76246  21210957.2974                   21210953.7344
   5679998.46547   4415046.11345  22444699.0784                   22444696.6884
  -4270563.15647  -3308186.31644  23079667.7584                   23079666.2934
 11  8 15 17 37  0.0000000  0  9G03G07G08G10G11G13G19G23G28
   5286279.94547   4109682.27344  22896630.1884                   22896630.5354
  -3941690.73848  -3054401.06646  20755794.3914                   20755791.9344
  -5634739.75847  -4368877.16445  22185095.9064                   22185094.6214
   2601526.52346   2023739.09843  24798404.2734                   24798406.3204
  -5951281.35247  -4621283.12944  22804506.3524                   22804506.0004
   2824474.62148   2200159.83246  20802121.3984                   20802119.2734
   1127524.89848    881343.36346  21213156.1884                   21213152.7934
   5750056.65647   4469636.81645  22458030.4064                   22458028.0594
  -4352361.45747  -3371925.19544  23064102.0944                   23064100.8954
 11  8 15 17 37 30.0000000  0  9G03G07G08G10G11G13G19G23G28
   5350693.01247   4159874.19944  22908887.6094                   22908887.8874
  -4018492.95348  -3114246.95346  20741179.6174                   20741177.0944
  -5742419.17647  -4452783.19145  22164605.0084                   22164603.4454
   2621891.78146   2039608.11342  24802279.1094                   24802281.3484
  -6059216.94147  -4705388.74244  22783966.6024                   22783966.5234
   2859571.28948   2227507.84046  20808799.9844                   20808797.8554
   1139590.70748    890745.26646  21215452.2734                   21215448.7814
   5820303.36747   4524374.38745  22471397.8204                   22471395.8014
  -4434001.09047  -3435540.45744  23048566.3524                   23048565.5354
 11  8 15 17 38  0.0000000  0  9G03G07G08G10G11G13G19G23G28
   5415313.02347   4210227.35544  22921184.7114                   22921185.2274
  -4095127.12947  -3173961.91446  20726596.5634                   20726593.9264
  -5850113.63347  -4536700.95345  22144111.6564                   22144110.3364
   2642337.56346   2055539.81643  24806171.1644                   24806171.9694
  -6166992.95347  -4789370.00444  22763457.8284                   22763457.2274
   2895100.58248   2255192.96546  20815560.5554                   20815559.0164
   1152158.27048    900538.14846  21217843.7344                   21217840.2774
   5890727.94947   4579250.57045  22484799.2664                   22484796.7544
  -4515490.29747  -3499038.50044  23033059.3914                   23033058.1884
 11  8 15 17 38 30.0000000  0  9G03G24G07G08G11G13G19G23G28
   5480144.59846   4260745.38344  22933521.6564                   22933521.5164
   1440890.46915                  24245099.875
  -4171584.71548  -3233539.26246  20712047.1724                   20712044.7774
  -5957813.62947  -4620623.02045  22123617.2344                   22123615.1764
  -6274598.66847  -4873218.59044  22742981.2194                   22742980.3594
   2931067.97748   2283219.44946  20822405.4304                   20822403.2384
   1165233.53948    910726.64846  21220331.8984                   21220328.5394
   5961335.45347   4634269.28545  22498235.6484                   22498233.8284
  -4596821.86347  -3562413.70744  23017582.4384                   23017581.1294
 11  8 15 17 39  0.0000000  0  9G03G24G07G08G11G13G19G23G28
   5545185.01246   4311426.14144  22945899.5234                   22945898.6374
   1331931.762 5                  24224365.336
  -4247863.06648  -3292976.94546  20697531.5004                   20697529.2814
  -6065517.59447  -4704548.18745  22103121.9304                   22103120.4454
  -6382030.91047  -4956931.99644  22722537.8984                   22722536.9654
   2967471.05948   2311585.44546  20829332.6254                   20829330.9574
   1178814.60548    921309.27346  21222916.3914                   21222912.4694
   6032122.81647   4689428.13744  22511705.8364                   22511703.9184
  -4677996.57847  -3625666.69144  23002135.4144                   23002134.2814
 11  8 15 17 39 30.0000000  0  9G03G24G07G08G11G13G19G23G28
   5610429.30146   4362265.79344  22958313.9614                   22958314.3134
   1222870.59845   1220008.90253  24203612.2814                   24203616.2854
  -4323962.48048  -3352275.19946  20683050.5784                   20683048.2774
  -6173226.22747  -4788476.99245  22082625.0634                   22082623.7194
  -6489288.36347  -5040509.16844  22702126.3134                   22702126.6914
   3004305.76248   2340287.75846  20836341.8284                   20836340.1684
   1192897.63348    932283.03146  21225596.2114                   21225592.5784
   6103085.50447   4744723.58645  22525210.0944                   22525208.1564
  -4759016.79347  -3688799.31244  22986718.1174                   22986716.9414
 11  8 15 17 40  0.0000000  0  9G03G24G07G08G11G13G19G23G28
   5675882.12946   4413267.93444  22970769.6174                   22970769.5554
   1113717.29746   1134954.49643  24182842.4144                   24182846.3754
  -4399873.20748  -3411426.42646  20668605.1174                   20668602.8754
  -6280930.61747  -4872402.48045  22062129.9774                   22062128.1644
  -6596360.67646  -5123942.07844  22681752.2814                   22681751.4104
   3041577.30948   2369330.47346  20843434.3204                   20843432.8284
   1207488.08648    943652.20746  21228372.6644                   21228368.8364
   6174228.05547   4800159.21945  22538748.2584                   22538746.0784
  -4839875.72347  -3751806.22744  22971330.9844                   22971329.7274
 11  8 15 17 40 30.0000000  0  9G03G24G07G08G11G13G19G23G28
   5741535.25847   4464426.15643  22983263.1644                   22983262.6914
   1004469.07446   1049826.08643  24162052.1334                   24162057.4654
  -4475599.24648  -3470433.73446  20654194.9614                   20654192.5434
  -6388634.70347  -4956327.73045  22041634.5234                   22041632.7774
  -6703250.32047  -5207232.67244  22661411.5164                   22661410.6094
   3079277.78948   2398707.43446  20850608.5394                   20850607.0164
   1222578.30147    955410.78946  21231244.3054                   21231240.9774
   6245541.77347   4855728.22345  22552318.4304                   22552316.2664
  -4920579.57047  -3814692.30144  22955973.3364                   22955972.0274
 11  8 15 17 41  0.0000000  0  9G03G24G07G08G11G13G19G23G28
   7382813.11347   5743343.89544  23295588.2114                   23295588.0234
   2470561.68846   2192236.02743  24441040.1414                   24441045.0744
  -2975707.12948  -2301686.64546  20939615.3054                   20939612.8244
  -4920903.93447  -3812641.41045  22320934.3914                   22320932.9614
  -5234521.45347  -4062768.57444  22940900.9614                   22940899.8984
   4692832.89548   3656023.04746  21157658.1954                   21157656.7544
   2813595.14147   2195164.16046  21534004.7194                   21534001.2154
   7892450.97747   6139033.96144  22865715.1724                   22865713.2234
  -3425697.12547  -2649848.79344  23240440.1644                   23240438.2114
 11  8 15 17 41 30.0000000  0  9G03G24G07G08G11G13G19G23G28
   7448878.07847   5794823.06643  23308160.1804                   23308158.8594
   2361151.71946   2106981.58643  24420220.5084                   24420224.9264
  -3051038.77748  -2360386.62146  20925279.9064                   20925277.5124
  -5028582.71547  -3896546.94145  22300443.9064                   22300442.2464
  -5341016.71147  -4145751.84844  22920636.2584                   22920634.8914
   4731404.10948   3686078.49646  21164997.8204                   21164996.4144
   2829698.93047   2207712.57846  21537069.1804                   21537065.6484
   7964118.46147   6194878.63744  22879352.9844                   22879350.8984
  -3506073.19147  -2712479.47344  23225145.1094                   23225143.5234
 11  8 15 17 42  0.0000000  0  9G03G24G07G08G11G13G19G23G28
   7515140.34447   5846455.93843  23320769.3594                   23320768.8444
   2251660.78946   2021664.09443  24399384.0784                   24399389.6914
  -3126174.47748  -2418933.93746  20910982.2034                   20910979.3954
  -5136251.18447  -3980444.45745  22279954.9614                   22279953.4144
  -5447314.50447  -4228581.28144  22900408.1484                   22900406.9964
   4770402.55548   3716466.83646  21172419.2814                   21172417.2464
   2846302.02348   2220650.02746  21540228.6724                   21540225.0124
   8035953.93047   6250854.18044  22893023.1724                   22893020.8874
  -3586290.82847  -2774986.71144  23209880.4454                   23209878.3634
 11  8 15 17 42 30.0000000  0  9G03G24G07G08G11G13G19G23G28
   7581602.87546   5898244.89543  23333416.6334                   23333415.9694
   2142097.77746   1936290.40243  24378536.1644                   24378539.9534
  -3201106.37548  -2477322.43446  20896722.7424                   20896720.5354
  -5243901.55147  -4064327.85545  22259469.8054                   22259468.6684
  -5553405.72747  -4311249.69944  22880219.0634                   22880218.5664
   4809832.11348   3747191.11746  21179922.6024                   21179920.4344
   2863408.61748   2233979.83646  21543483.7274                   21543480.5864
   8107960.92247   6306963.40244  22906725.7114                   22906723.9384
  -3666344.50447  -2837366.15644  23194646.2974                   23194645.1054
 11  8 15 17 43  0.0000000  0  9G03G24G07G08G11G13G19G23G28
   7648264.01246   5950188.59443  23346101.7344                   23346101.4224
   2032466.65246   1850863.64543  24357673.3204                   24357677.5274
  -3275831.64848  -2535549.93046  20882503.1644                   20882501.1684
  -5351530.77747  -4148194.77345  22238989.2114                   22238987.3984
  -5659286.06647  -4393753.82044  22860070.8134                   22860070.1414
   4849691.66048   3778250.45346  21187507.7894                   21187505.8054
   2881017.92248   2247701.34846  21546834.8054                   21546831.1954
   8180137.60547   6363204.85244  22920460.4144                   22920458.2814
  -3746233.86747  -2899617.59844  23179443.8984                   23179442.9384
 11  8 15 17 43 30.0000000  0  9G03G24G07G08G11G13G19G23G28
   7715106.64547   6002273.67244  23358822.0164                   23358821.4024
   1922755.31346   1765374.39143  24336796.9614                   24336800.5594
  -3350363.00448  -2593626.31646  20868320.6884                   20868318.1054
  -5459152.16047  -4232055.58645  22218509.3204                   22218507.8484
  -5764967.38747  -4476102.85244  22839960.7814                   22839959.3524
   4889964.00448   3809631.45346  21195171.2584                   21195169.5474
   2899112.85947   2261801.29346  21550278.2584                   21550274.7114
   8252466.40247   6419564.82044  22934224.5084                   22934221.8014
  -3825974.34047  -2961753.02044  23164270.0864                   23164268.2424
 11  8 15 17 44  0.0000000  0  9G03G24G07G08G11G13G19G23G28
   7782139.22747   6054506.77343  23371577.8834                   23371577.0824
   1812978.31346   1679833.95743  24315906.1884                   24315910.4574
  -3424686.90648  -2651541.05546  20854177.0784                   20854174.6294
  -5566752.92647  -4315900.32445  22198033.2734                   22198031.8054
  -5870434.87547  -4558285.27344  22819890.9304                   22819889.6604
   4930658.08248   3841341.07846  21202915.0784                   21202913.5864
   2917702.94947   2276287.05146  21553815.6334                   21553811.9384
   8324956.00047   6476050.05544  22948018.5474                   22948016.8594
  -3905555.08247  -3023763.95744  23149125.9304                   23149124.5314
 11  8 15 17 44 30.0000000  0  9G03G24G07G08G11G13G19G23G28
   7849343.87946   6106873.99643  23384366.0944                   23384365.7734
   1703123.54346   1594232.93443  24295001.7814                   24295006.0124
  -3498816.68748  -2709304.52046  20840070.8444                   20840068.0664
  -5674346.16447  -4399739.19945  22177558.4694                   22177557.6914
  -5975700.56647  -4640310.45744  22799859.8054                   22799858.3754
   4971756.55548   3873365.80946  21210735.6564                   21210733.8794
   2936771.23047   2291145.43446  21557444.7664                   21557440.8094
   8397588.09047   6532646.37944  22961839.8204                   22961838.4304
  -3984992.02047  -3085662.85944  23134009.9844                   23134008.1054
 11  8 15 17 45  0.0000000  0  9G03G24G07G08G11G13G19G23G28
   7916728.75446   6159381.61343  23397188.6564                   23397188.8324
   1593204.37146   1508581.72743  24274085.0554                   24274089.2504
  -3572739.66848  -2766906.85546  20826003.5474                   20826001.1254
  -5781920.09447  -4483563.03145  22157088.3204                   22157086.8444
  -6080750.93047  -4722167.84444  22779868.5864                   22779867.1804
   5013267.98848   3905712.32846  21218635.1174                   21218633.4774
   2956326.01248   2306382.90646  21561165.8834                   21561161.8954
   8470370.76247   6589360.00044  22975690.4144                   22975688.6094
  -4064274.83647  -3147441.65244  23118922.7274                   23118921.2544
 11  8 15 17 45 30.0000000  0  9G03G24G07G08G11G13G19G23G28
   7984292.04346   6212028.25043  23410046.3834                   23410045.4064
   1483224.64546   1422883.35243  24253155.5004                   24253159.6804
  -3646453.02748  -2824345.83646  20811976.3134                   20811973.9614
  -5889471.74247  -4567369.48845  22136622.1254                   22136620.4884
  -6185581.25047  -4803853.76644  22759920.5234                   22759919.8204
   5055190.31648   3938379.02746  21226612.6254                   21226611.4494
   2976366.26648   2321998.66846  21564979.0314                   21564975.3954
   8543302.08647   6646189.44944  22989569.0004                   22989567.3834
  -4143403.31247  -3209100.18044  23103865.2034                   23103864.0394
 11  8 15 17 46  0.0000000  0  9G03G24G07G08G11G13G19G23G28
   8052032.90647   6264813.25444  23422936.8834                   23422936.6764
   1373188.85946   1337141.24243  24232216.7344                   24232220.7624
  -3719953.21948  -2881618.71946  20797989.7814                   20797987.3794
  -5996997.99647  -4651156.18045  22116159.8444                   22116159.3914
  -6290187.34447  -4885364.98444  22740014.5634                   22740013.3554
   5097522.95348   3971365.44946  21234668.3834                   21234666.8594
   2996891.59847   2337992.41446  21568885.1254                   21568881.5744
   8616380.78147   6703133.74644  23003475.8984                   23003473.8014
  -4222376.70747  -3270637.87944  23088837.1094                   23088835.0554
 11  8 15 17 46 30.0000000  0  9G03G24G07G08G11G13G19G23G28
   8119939.91047   6317727.71144  23435858.9304                   23435858.7894
   1263091.68846   1251351.32043  24211266.2194                   24211269.7854
  -3793246.61348  -2938730.44546  20784042.6484                   20784039.9064
  -6104504.82847  -4734927.72745  22095702.4384                   22095701.0784
  -6394574.56647  -4966705.62544  22720150.2584                   22720149.4614
   5140255.08648   4004663.14846  21242800.2344                   21242798.5514
   3017891.39848   2354355.87146  21572881.7274                   21572877.6884
   8689595.73447   6760184.20344  23017408.3204                   23017406.8324
  -4301203.91847  -3332061.64844  23073836.1024                   23073834.8554
 11  8 15 17 47  0.0000000  0  9G03G24G07G08G11G13G19G23G28
   8188023.77747   6370779.99644  23448815.0084                   23448815.0664
   1152949.58246   1165526.46943  24190306.2274                   24190310.9454
  -3866317.64148  -2995668.91446  20770137.5864                   20770135.3874
  -6211977.62148  -4818672.74645  22075251.1174                   22075250.2384
  -6498726.24247  -5047862.74644  22700331.0944                   22700330.2154
   5183397.86748   4038280.84846  21251010.0394                   21251008.4264
   3039376.89548   2371097.79346  21576969.7894                   21576966.0084
   8762957.50447   6817349.06644  23031368.9064                   23031366.4184
  -4379872.12547  -3393361.50044  23058866.3524                   23058864.7274
 11  8 15 17 47 30.0000000  0  9G03G24G07G08G11G13G19G23G28
   8256274.80547   6423962.54743  23461803.0234                   23461802.6254
   1042758.42246   1079663.28543  24169337.9454                   24169342.0474
  -3939171.64148  -3052438.27346  20756273.8524                   20756271.6764
  -6319421.91047  -4902395.56245  22054805.1884                   22054803.8164
  -6602646.23447  -5128839.33644  22680555.5554                   22680553.9064
   5226941.80548   4072211.12546  21259296.1724                   21259294.8984
   3061339.24648   2388211.29746  21581149.1174                   21581145.4184
   8836456.40647   6874620.78944  23045355.2894                   23045353.2234
  -4458389.26647  -3454543.67644  23043925.5704                   23043923.7034
 11  8 15 17 48  0.0000000  0  9G03G24G07G08G11G13G19G23G28
   8324690.30547   6477273.27044  23474822.2114                   23474821.5434
    932520.96946    993764.08243  24148360.1884                   24148363.9694
  -4011806.70748  -3109037.02746  20742451.7974                   20742449.6094
  -6426835.86747  -4986094.73445  22034364.9144                   22034363.1604
  -6706331.56647  -5209633.07444  22660824.8524                   22660823.7814
   5270884.24648   4106451.93046  21267658.2114                   21267656.4614
   3083775.89548   2405694.37146  21585418.9064                   21585415.4414
   8910089.21547   6931996.84844  23059367.0944                   23059365.3634
  -4536755.98847  -3515608.60545  23029012.3444                   23029011.1294
 11  8 15 17 48 30.0000000  0  9G03G24G07G08G11G13G19G23G28
   8393256.29347   6530701.24644  23487870.1174                   23487870.2074
    822229.22346    907822.58643  24127372.7114                   24127376.4344
  -4084231.53948  -3165471.96546  20728669.9384                   20728667.4064
  -6534228.52047  -5069777.30545  22013928.6174                   22013927.3914
  -6809789.91847  -5290249.96145  22641137.2504                   22641136.2304
   5315211.89548   4140992.90646  21276093.5164                   21276091.7274
   3106673.80547   2423536.88346  21589775.9064                   21589772.4224
   8983842.24247   6989466.58644  23073401.5164                   23073400.3204
  -4614983.93447  -3576565.41844  23014126.1804                   23014124.3054
 11  8 15 17 49  0.0000000  0  9G03G24G07G08G11G13G19G23G28
   8461982.83247   6584254.31344  23500947.9774                   23500947.8834
    711898.70746    821850.90243  24106376.7274                   24106381.2194
  -4156431.95748  -3221732.03946  20714930.5314                   20714928.5274
  -6641585.66847  -5153432.21545  21993499.1174                   21993498.0434
  -6913005.70347  -5370677.80145  22621495.9454                   22621494.7034
   5359934.60248   4175841.70346  21284603.8674                   21284602.4534
   3130043.35948   2441746.89846  21594223.0784                   21594219.4844
   9057725.27347   7047037.60944  23087461.2974                   23087460.1684
  -4693061.19947  -3637404.80144  22999268.7344                   22999267.4304
 11  8 15 17 49 30.0000000  0  9G03G24G07G08G11G13G19G23G28
   8530865.97747   6637929.42644  23514056.0704                   23514055.9844
    601531.00046    735850.22743  24085374.3134                   24085377.7384
  -4228407.30948  -3277816.72346  20701234.0234                   20701231.9964
  -6748906.87147  -5237059.12545  21973076.6094                   21973075.3244
  -7015977.27747  -5450915.35945  22601901.7194                   22601900.3794
   5405048.05148   4210994.98446  21293189.2734                   21293187.0984
   3153880.83248   2460321.52746  21598758.9064                   21598755.3204
   9131733.96147   7104706.55144  23101545.0704                   23101543.2424
  -4770989.94947  -3698128.46544  22984439.3204                   22984437.6174
 11  8 15 17 50  0.0000000  0  9G03G24G07G08G11G13G19G23G28
   8599905.81347   6691726.65643  23527194.1564                   23527193.9384
    491132.10546    649825.34843  24064366.0394                   24064369.5704
  -4300152.52748  -3333722.08646  20687581.7274                   20687579.4534
  -6856187.42247  -5320654.35545  21952661.8204                   21952660.1994
  -7118698.71147  -5530958.00044  22582353.9614                   22582353.1294
   5450553.15648   4246453.45346  21301848.2974                   21301846.4534
   3178187.10248   2479261.44546  21603384.6644                   21603380.9064
   9205868.46547   7162473.54344  23115651.8674                   23115650.3524
  -4848767.80547  -3758734.53144  22969638.4774                   22969636.8524
 11  8 15 17 50 30.0000000  0  9G03G24G07G08G11G13G19G23G28
   8669100.75447   6745644.72743  23540361.4064                   23540361.8364
    380706.12546    563779.30143  24043352.8984                   24043356.7544
  -4371664.59048  -3389445.78546  20673973.3914                   20673970.5434
  -6963424.34847  -5404215.57845  21932255.4844                   21932254.3794
  -7221165.09047  -5610801.91845  22562855.1094                   22562854.0944
   5496448.51247   4282216.01646  21310582.0864                   21310580.1604
   3202960.97348   2498565.72346  21608098.7114                   21608095.3444
   9280127.31647   7220337.43444  23129783.4224                   23129781.4264
  -4926394.58647  -3819222.88744  22954866.6954                   22954865.3794
 11  8 15 17 51  0.0000000  0  9G03G24G07G08G11G13G19G23G28
   8738441.15246   6799676.16043  23553557.2584                   23553556.6094
    270248.83646    477708.86343  24022332.9144                   24022336.9574
  -4442948.73448  -3444991.86746  20660408.0314                   20660406.1334
  -7070623.05548  -5487747.03945  21911856.2664                   21911854.9614
  -7323381.39147  -5690450.93745  22543404.1414                   22543403.1254
   5542724.51647   4318275.18846  21319387.9614                   21319386.3594
   3228193.00848   2518227.01246  21612900.4694                   21612896.6764
   9354500.37947   7278290.28544  23143936.1564                   23143935.1414
  -5003878.04347  -3879599.57045  22940121.7584                   22940120.9184
 11  8 15 17 51 30.0000000  0  9G03G24G07G08G11G13G19G23G28
   8807935.63746   6853827.61743  23566781.0944                   23566781.1994
    159774.36746    391625.07843  24001311.1414                   24001314.2424
  -4513991.84048  -3500350.12946  20646889.2814                   20646886.7734
  -7177770.53148  -5571238.57045  21891466.8364                   21891465.6214
  -7425333.30947  -5769893.96545  22524002.7894                   22524002.0824
   5589389.77048   4354637.66046  21328267.6644                   21328266.4614
   3253892.25448   2538252.37146  21617790.9224                   21617787.8134
   9428996.17247   7336338.77744  23158112.3594                   23158111.1994
  -5081207.79347  -3939856.48045  22925406.1484                   22925405.2894
 11  8 15 17 52  0.0000000  0  9G03G24G07G08G11G13G19G23G28
   8877567.75846   6908086.36343  23580031.8594                   23580031.5864
     49272.50047    305519.89143  23980283.3134                   23980285.7734
  -4584805.21948  -3555529.39546  20633413.7274                   20633411.3794
  -7284878.23448  -5654699.10545  21871084.9614                   21871083.3634
  -7527030.91847  -5849138.83245  22504650.7894                   22504650.0864
   5636427.72348   4391290.54746  21337219.0164                   21337217.9184
   3280042.87948   2558629.44146  21622767.0784                   21622763.4844
   9503597.91847   7394469.84844  23172309.1414                   23172307.3134
  -5158397.86747  -4000004.56644  22910716.9144                   22910716.7774
 11  8 15 17 52 30.0000000  0  9G03G24G07G08G11G13G19G23G28
   8947344.27046   6962457.62143  23593309.7664                   23593309.8914
    -61244.69947    219402.73043  23959252.1254                   23959255.8364
  -4655377.29748  -3610520.62546  20619984.7424                   20619981.8404
  -7391934.97748  -5738119.93445  21850712.0394                   21850711.0944
  -7628461.54747  -5928175.65244  22485349.2344                   22485347.9774
   5683845.80548   4428239.63746  21346242.9844                   21346240.8244
   3306652.02048   2579363.80146  21627830.4614                   21627827.4064
   9578312.48047   7452688.78944  23186526.7974                   23186525.4964
  -5235439.44147  -4060036.92245  22896057.2734                   22896055.8714
 11  8 15 17 53  0.0000000  0  9G03G24G07G08G11G13G19G23G28
   9017254.46146   7016933.09043  23606612.5234                   23606612.8874
   -171782.11347    133269.86343  23938216.9224                   23938220.5274
  -4725714.36348  -3665328.73046  20606599.7114                   20606597.2424
  -7498947.03948  -5821505.94945  21830348.6804                   21830347.4694
  -7729630.45747  -6007008.53944  22466096.9224                   22466096.3874
   5731632.96548   4465476.32845  21355336.1484                   21355334.7774
   3333709.46948   2600447.49646  21632979.9454                   21632976.0514
   9653129.00847   7510987.21144  23200763.7894                   23200762.5594
  -5312341.57847  -4119960.65245  22881422.9534                   22881421.4774
 11  8 15 17 53 30.0000000  0  9G03G24G07G08G11G13G19G23G28
   9087292.84046   7071508.36343  23619940.6884                   23619941.3284
   -282340.03547     47121.00443  23917178.5474                   23917181.0594
  -4795818.14148  -3719955.05546  20593259.6174                   20593257.1454
  -7605916.37948  -5904858.66445  21809992.9384                   21809991.6134
  -7830537.82847  -6085637.62545  22446895.4454                   22446894.2074
   5779783.37148   4502996.07046  21364498.9694                   21364497.6454
   3361209.29748   2621875.91046  21638212.3284                   21638208.9924
   9728041.13347   7569360.11744  23215019.2274                   23215018.3014
  -5389108.29747  -4179778.85245  22866814.9924                   22866813.5594
 11  8 15 17 54  0.0000000  0  9G03G24G07G08G11G13G19G23G28
   9157456.55146   7126181.31343  23633293.2814                   23633293.1954
   -392915.16047    -39041.26243  23896136.6024                   23896139.7894
  -4865685.78148  -3774397.37546  20579964.0634                   20579961.7774
  -7712840.35948  -5988176.04745  21789646.0634                   21789644.8484
  -7931180.55147  -6164060.49245  22427743.6804                   22427742.2544
   5828294.52048   4540796.91045  21373730.2424                   21373728.7074
   3389149.51248   2643647.46946  21643529.5234                   21643526.1054
   9803046.57847   7627805.73444  23229292.9224                   23229291.8404
  -5465740.22347  -4239491.99645  22852232.3674                   22852231.3014
 11  8 15 17 54 30.0000000  0  9G03G24G07G08G11G13G19G23G28
   9227732.60246   7180941.78543  23646665.0164                   23646665.8714
   -503515.07047   -125222.85243  23875089.8914                   23875093.2934
  -4935326.48048  -3828662.86346  20566711.7814                   20566709.7734
  -7819727.66848  -6071464.84445  21769306.0864                   21769304.6524
  -8031566.05947  -6242282.93044  22408640.0554                   22408639.3324
   5877153.47348   4578868.75845  21383028.2664                   21383026.3524
   3417517.12948   2665752.07446  21648927.8984                   21648924.1914
   9878131.90647   7686313.57444  23243581.4614                   23243580.5744
  -5542248.60247  -4299108.90245  22837673.4304                   22837672.3524
 11  8 15 17 55  0.0000000  0  9G03G24G07G08G11G13G19G23G28
   9298136.55546   7235801.91443  23660063.6024                   23660063.9224
   -614118.32047   -211406.96543  23854042.8594                   23854046.4264
  -5004719.55948  -3882735.39146  20553506.8914                   20553504.9184
  -7926558.31248  -6154709.48845  21748977.1564                   21748975.7624
  -8131673.09047  -6320288.38745  22389590.9534                   22389589.6524
   5926375.69548   4617223.67245  21392394.5474                   21392392.9844
   3446328.09848   2688202.15246  21654410.1484                   21654406.9304
   9953312.52747   7744895.68844  23257887.4694                   23257886.4104
  -5618615.80947  -4358615.80945  22823141.3364                   22823140.0664
 11  8 15 17 55 30.0000000  0  9G03G24G07G08G11G13G19G23G28
   9368655.01646   7290751.32843  23673482.7504                   23673482.8204
   -724732.57847   -297599.72343  23832993.3054                   23832997.0634
  -5073873.90648  -3936621.89846  20540347.0634                   20540344.9534
  -8033340.80948  -6237916.62145  21728657.2114                   21728655.5594
  -8231509.03947  -6398082.59044  22370592.6804                   22370592.1174
   5975947.90247   4655851.30545  21401828.1024                   21401826.3404
   3475569.65648   2710987.74246  21659975.2194                   21659971.7774
  10028575.05547   7803541.61344  23272209.4534                   23272208.5234
  -5694853.16447  -4418021.49645  22808633.0164                   22808631.7114
 11  8 15 17 56  0.0000000  0  9G03G24G07G08G11G13G19G23G28
   9439299.89146   7345799.21143  23686926.1564                   23686926.1174
   -835340.56247   -383787.57443  23811945.2504                   23811948.6914
  -5142772.80548  -3990309.35546  20527236.0554                   20527234.0984
  -8140058.96148  -6321073.62545  21708349.0554                   21708347.9574
  -8331056.69547  -6475652.13345  22351649.3284                   22351648.2544
   6025882.03547   4694760.95745  21411329.9924                   21411328.7464
   3505253.55548   2734118.01646  21665623.7974                   21665619.9804
  10103930.96146   7862260.26644  23286550.1954                   23286548.0124
  -5770946.96147  -4477315.35245  22794153.5234                   22794151.8014
 11  8 15 17 56 30.0000000  0  9G03G24G07G08G11G13G19G23G28
   9510065.22346   7400941.00043  23700391.5554                   23700392.8754
   -945942.37946   -469970.65243  23790898.4304                   23790901.9774
  -5211417.99648  -4043799.12546  20514173.3364                   20514170.9344
  -8246714.41848  -6404181.76645  21688053.3134                   21688051.9614
  -8430316.35547  -6552997.28945  22332760.9384                   22332759.3874
   6076171.64148   4733947.60545  21420899.9224                   21420898.2034
   3535373.96948   2757588.44946  21671355.1724                   21671351.6254
  10179373.94947   7921046.83244  23300906.1564                   23300904.8094
  -5846901.62547  -4536500.78145  22779699.2424                   22779698.5004
 11  8 15 17 57  0.0000000  0  9G03G24G07G08G11G13G19G23G28
   9580940.91846   7456168.75843  23713879.1094                   23713879.2544
  -1056542.70746   -556152.55943  23769851.2814                   23769855.3714
  -5279815.00848  -4097095.50446  20501158.0084                   20501155.5904
  -8353312.68048  -6487245.34445  21667768.3364                   21667767.0664
  -8529292.50447  -6630121.51245  22313926.1024                   22313924.7734
   6126806.98048   4773403.64545  21430535.6334                   21430533.7934
   3565921.06648   2781391.34046  21677168.5554                   21677164.6484
  10254893.50047   7979893.01644  23315277.6254                   23315276.1334
  -5922725.19147  -4595584.05545  22765270.6414                   22765269.1914
 11  8 15 17 57 30.0000000  0  9G03G24G07G08G11G13G19G23G28
   9651921.59446   7511478.32043  23727386.5314                   23727386.6644
  -1167141.04346   -642332.91043  23748804.9614                   23748809.1024
  -5347964.32448  -4150198.86346  20488189.6174                   20488187.2304
  -8459854.68048  -6570265.08245  21647494.1484                   21647492.6454
  -8627984.87947  -6707024.61344  22295145.7664                   22295144.7344
   6177782.07848   4813124.44145  21440236.1334                   21440234.5354
   3596889.54348   2805522.59446  21683061.2194                   21683057.3954
  10330484.18447   8038794.67244  23329661.2974                   23329660.9384
  -5998421.21947  -4654567.94945  22750866.2664                   22750864.7544
 11  8 15 17 58  0.0000000  0  9G03G24G07G08G11G13G19G23G28
   9723000.84846   7566864.68043  23740912.7664                   23740913.0904
  -1277738.15246   -728512.35943  23727758.5084                   23727762.4734
  -5415867.90648  -4203110.75846  20475267.8054                   20475265.5234
  -8566341.99648  -6653242.21145  21627230.2584                   21627228.8404
  -8726394.67247  -6783707.53144  22276418.9534                   22276417.5434
   6229090.82048   4853105.21945  21449999.3444                   21449998.2584
   3628273.25448   2829977.39146  21689033.2734                   21689029.9184
  10406139.75847   8097746.85544  23344058.7274                   23344058.2774
  -6073994.25447  -4713456.01245  22736485.1174                   22736484.1454
 11  8 15 17 58 30.0000000  0  9G03G24G07G08G11G13G19G23G28
   9794194.07846   7622339.82843  23754459.8364                   23754461.0124
  -1388312.99646   -814674.46143  23706717.6884                   23706720.5514
  -5483505.71148  -4255815.54346  20462396.9144                   20462394.5514
  -8672754.62548  -6736161.13745  21606980.7974                   21606979.2234
  -8824500.35547  -6860153.48445  22257750.2584                   22257749.0944
   6280748.28148   4893357.70745  21459829.7734                   21459828.8244
   3660087.91448   2854767.99646  21695087.5784                   21695083.8324
  10481875.48847   8156761.50444  23358471.6954                   23358469.6214
  -6149427.15647  -4772234.86745  22722130.8524                   22722129.5744
 11  8 15 17 59  0.0000000  0  9G03G24G07G08G11G13G19G23G28
   9865499.64846   7677902.53143  23768028.2344                   23768029.3484
  -1498861.64546   -900816.16843  23685680.6644                   23685683.3554
  -5550875.11348  -4308311.18046  20449577.0314                   20449574.4574
  -8779089.80548  -6819019.70345  21586745.6254                   21586744.1684
  -8922298.10947  -6936359.48845  22239139.8134                   22239138.4264
   6332752.43048   4933880.35945  21469726.1644                   21469725.1914
   3692331.85548   2879893.10546  21701223.5474                   21701219.8914
  10557689.05947   8215836.83244  23372897.6174                   23372896.8014
  -6224719.69947  -4830904.33644  22707802.9694                   22707801.9844
 11  8 15 17 59 30.0000000  0  9G03G24G07G08G11G13G19G23G28
   9936894.62145   7733534.96543  23781614.6884                   23781616.0354
  -1609401.20347   -986950.73843  23664645.3444                   23664648.4224
  -5617994.16848  -4360611.76246  20436804.8204                   20436802.1954
  -8885365.81648  -6901832.16045  21566522.0944                   21566520.5314
  -9019805.04747  -7012338.87545  22220584.6024                   22220583.5084
   6385080.73448   4974655.58246  21479683.8364                   21479682.6254
   3724981.96148   2905334.71146  21707436.6884                   21707433.3164
  10633557.66447   8274955.06344  23387335.1094                   23387334.3554
  -6299893.19547  -4889481.06245  22693497.9694                   22693496.4884
 11  8 15 18  0  0.0000000  0  9G03G24G07G08G11G13G19G23G28
  10008397.48446   7789251.42242  23795221.6254                   23795222.5394
  -1719908.21546  -1073060.02043  23643616.2274                   23643619.1764
  -5684840.55148  -4412699.85246  20424084.5004                   20424081.9454
  -8991560.30948  -6984581.10245  21546314.2274                   21546312.4264
  -9116998.46547  -7088073.96945  22202089.3284                   22202087.9734
   6437751.05948   5015697.32845  21489706.2814                   21489705.7464
   3758056.87548   2931107.33245  21713730.5314                   21713727.1024
  10709498.69547   8334129.65644  23401786.3984                   23401785.8524
  -6374927.78547  -4947949.55145  22679219.2034                   22679217.9344
 11  8 15 18  0 30.0000000  0  9G03G24G07G08G11G13G19G23G28
  10080001.49246   7845046.65243  23808848.0704                   23808848.0124
  -1830383.26646  -1159144.37943  23622593.0394                   23622596.7854
  -5751416.12148  -4464576.93746  20411415.3444                   20411413.0514
  -9097674.98848  -7067267.85946  21526121.1094                   21526119.5314
  -9213878.61347  -7163564.95345  22183653.4144                   22183652.1484
   6490756.19548   5056999.94945  21499793.5784                   21499792.0514
   3791550.04748   2957205.86746  21720104.1724                   21720100.5164
  10785505.67647   8393355.68044  23416250.2814                   23416249.4414
  -6449827.94947  -5006313.29745  22664966.0474                   22664964.7584
 11  8 15 18  1  0.0000000  0  9G03G24G07G08G11G13G19G23G28
  10151702.64846   7900917.68043  23822491.4534                   23822492.6024
  -1940824.55946  -1245202.41043  23601577.3134                   23601580.9104
  -5817719.84448  -4516242.18446  20398798.4304                   20398795.8444
  -9203709.29348  -7149891.98045  21505943.0634                   21505941.4104
  -9310444.02347  -7238810.69945  22165277.6334                   22165276.5904
   6544092.37548   5098560.53945  21509943.1884                   21509941.9344
   3825457.71948   2983627.39846  21726556.8834                   21726553.4804
  10861574.71947   8452630.03544  23430725.8134                   23430725.7814
  -6524595.59047  -5064573.76245  22650738.3754                   22650737.1994
 11  8 15 18  1 30.0000000  0  9G03G24G07G08G11G13G19G23G28
  10223494.75046   7956859.50442  23836152.9304                   23836154.0824
  -2051232.68447  -1331234.62943  23580568.2194                   23580570.4494
  -5883753.48448  -4567696.97346  20386232.1884                   20386230.1604
  -9309664.64848  -7232454.58245  21485780.6954                   21485779.0704
  -9406695.27047  -7313811.63745  22146962.2504                   22146960.3834
   6597753.22348   5140374.10545  21520154.2584                   21520152.7854
   3859773.63748   3010367.03546  21733086.5474                   21733082.9224
  10937699.03946   8511947.41843  23445211.7894                   23445212.0984
  -6599235.39547  -5122734.62545  22636535.2974                   22636533.2894
 11  8 15 18  2  0.0000000  0  9G03G24G07G08G11G13G19G23G28
  10295382.04746   8012875.55143  23849833.3204                   23849834.0124
  -2161598.03947  -1417233.51643  23559565.1884                   23559568.5704
  -5949509.03148  -4618935.07046  20373719.3984                   20373717.0234
  -9415532.39848  -7314948.91845  21465634.9924                   21465633.0474
  -9502622.84847  -7388560.36345  22128707.3914                   22128706.2384
   6651742.23047   5182443.38345  21530428.1174                   21530426.9414
   3894501.76648   3037427.87146  21739695.3754                   21739692.0664
  11013882.59047   8571311.00444  23459709.6254                   23459708.7464
  -6673741.69547  -5180791.45745  22622357.1094                   22622355.3364
 11  8 15 18  2 30.0000000  0  9G03G24G07G08G11G13G19G23G28
  11942779.97346   9296562.20343  24163323.2424                   24163323.3284
   -696493.44147   -275593.49244  23838366.1564                   23838369.3134
  -4439561.60548  -3442352.66846  20661052.7894                   20661050.2664
  -7945886.66448  -6169770.41046  21745298.9694                   21745297.3444
  -8022800.38747  -6235451.89545  22410308.7194                   22410307.4344
   8281475.35247   6452365.22745  21840555.7894                   21840555.6054
   5505058.73448   4292407.29345  22046173.9224                   22046170.8794
  12665540.30547   9858316.76644  23774010.0394                   23774009.5474
  -5172692.49247  -4011142.69545  22907996.8204                   22907995.4384
 11  8 15 18  3  0.0000000  0  9G03G24G07G08G11G13G19G23G28
  12014845.10246   9352716.79743  24177036.9304                   24177036.7934
   -806768.70747   -361522.18743  23817381.1804                   23817383.6374
  -4504759.05548  -3493155.89146  20648646.5084                   20648643.8914
  -8051578.03148  -6252127.30946  21725186.3204                   21725185.0784
  -8118076.97347  -6309693.37545  22392178.1024                   22392176.8914
   8336108.25447   6494936.23045  21850952.0234                   21850950.8484
   5540598.88748   4320100.88346  22052937.3754                   22052933.6994
  12741829.06646   9917762.33643  23788527.0084                   23788526.6134
  -5246938.71147  -4068996.85945  22893868.7814                   22893867.1134
 11  8 15 18  3 30.0000000  0  9G03G24G07G08G11G13G19G23G28
  12086984.02746   9408928.91443  24190764.5084                   24190764.3054
   -917005.43447   -447420.86743  23796403.9144                   23796406.6294
  -4569685.95348  -3543748.29746  20636291.1564                   20636288.7154
  -8157189.52748  -6334421.97346  21705089.0864                   21705087.3404
  -8213035.17647  -6383686.73845  22374107.4224                   22374106.9734
   8391047.18847   6537745.71945  21861406.9774                   21861405.5634
   5576530.21148   4348099.27345  22059774.6954                   22059771.0824
  12818154.84446   9977236.71944  23803050.9224                   23803051.3794
  -5321067.57847  -4126759.58245  22879762.2344                   22879760.3014
 11  8 15 18  4  0.0000000  0  9G03G24G07G08G11G13G19G23G28
  12159201.71546   9465202.37943  24204506.7814                   24204506.5904
  -1027193.09447   -533281.30543  23775435.9304                   23775438.2934
  -4634332.80948  -3594122.47746  20623988.9774                   20623986.5274
  -8262711.74648  -6416647.06245  21685009.0314                   21685007.6994
  -8307664.51247  -6457423.85545  22356100.0234                   22356099.2034
   8446296.96147   6580797.41445  21871920.5944                   21871918.9804
   5612857.34048   4376406.09846  22066687.5084                   22066684.1884
  12894522.40247  10036743.68844  23817583.6644                   23817583.8874
  -5395072.16047  -4184425.46545  22865679.4844                   22865678.0234
 11  8 15 18  4 30.0000000  0  9G03G24G07G08G11G13G19G23G28
  12231510.11746   9521546.57843  24218266.4924                   24218266.4654
  -1137314.22747   -619089.94543  23754480.4304                   23754483.1644
  -4698683.01648  -3644265.50846  20611743.7424                   20611741.3524
  -8368128.00448  -6498789.59846  21664949.0164                   21664947.4694
  -8401947.18747  -6530890.84045  22338159.4774                   22338158.1524
   8501869.06348   6624100.26645  21882495.8444                   21882494.8094
   5649592.23448   4405030.65246  22073678.0864                   22073674.6214
  12970943.43447  10096292.31344  23832126.8134                   23832126.8754
  -5468938.72747  -4241983.80945  22851623.2584                   22851621.5474
 11  8 15 18  5  0.0000000  0  9G03G24G07G08G11G13G19G23G28
  12303894.49646   9577949.94143  24232041.2814                   24232040.9454
  -1247377.94946   -704853.82843  23733535.7974                   23733538.3834
  -4762747.16048  -3694185.64146  20599553.1334                   20599550.2704
  -8473448.32848  -6580857.38346  21644907.1174                   21644905.5634
  -8495893.27347  -6604095.55145  22320281.4224                   22320280.1844
   8557748.82048   6667642.85945  21893129.4384                   21893128.1454
   5686720.07048   4433961.39545  22080743.3674                   22080739.8554
  13047402.89847  10155870.90244  23846677.0004                   23846676.3484
  -5542680.64847  -4299445.01645  22837590.4844                   22837589.2074
 11  8 15 18  5 30.0000000  0  9G03G24G07G08G11G13G19G23G28
  12376349.35546   9634408.23443  24245829.1094                   24245829.0944
  -1357384.05946   -790572.78543  23712601.6024                   23712604.7734
  -4826526.26248  -3743883.64146  20587416.2424                   20587413.5824
  -8578673.61748  -6662851.10546  21624883.6724                   21624882.2934
  -8589502.54747  -6677037.82445  22302468.1954                   22302467.5554
   8613930.19547   6711420.46545  21903820.0084                   21903819.5204
   5724234.91048   4463193.70746  22087882.3754                   22087878.6454
  13123894.91847  10215474.85543  23861232.7894                   23861232.5514
  -5616301.85247  -4356812.14845  22823580.9224                   22823579.1174
 11  8 15 18  6  0.0000000  0  8G24G07G08G11G13G19G23G28
  -1467326.00846   -876241.74643  23691681.2734                   23691683.3014
  -4890014.81648  -3793355.26246  20575334.6174                   20575332.1134
  -8683798.47748  -6744766.55946  21604879.1254                   21604877.5784
  -8682768.81647  -6749712.81645  22284720.5864                   22284719.0984
   8670413.80947   6755433.59045  21914568.6884                   21914568.0984
   5762137.91448   4492728.45345  22095094.9144                   22095091.5634
  13200420.51246  10275104.92643  23875795.3134                   23875794.6414
  -5689799.39847  -4414082.94545  22809594.8914                   22809592.8204
 11  8 15 18  6 30.0000000  0  8G24G07G08G11G13G19G23G28
  -1577207.19546   -961863.37943  23670770.9224                   23670774.2424
  -4953217.64148  -3842604.22346  20563307.0784                   20563304.7974
  -8788827.33248  -6826607.22346  21584892.3594                   21584890.6484
  -8775695.58647  -6822123.26245  22267036.6254                   22267035.1764
   8727190.21948   6799674.84845  21925373.7344                   21925372.5744
   5800420.03148   4522558.64845  22102379.8284                   22102376.6804
  13276970.10246  10334753.71543  23890361.6884                   23890361.7424
  -5763180.85947  -4471263.27345  22795630.5554                   22795629.2074
 11  8 15 18  7  0.0000000  0  8G24G07G08G11G13G19G23G28
  -1687008.34447  -1047422.63743  23649876.6484                   23649879.4344
  -5016116.67248  -3891616.45746  20551338.0554                   20551335.7974
  -8893742.09448  -6908358.97346  21564927.7034                   21564926.5554
  -8868264.48847  -6894254.85245  22249421.1564                   22249420.2934
   8784272.05147   6844154.12545  21936235.3754                   21936234.8554
   5839094.39848   4552694.49245  22109739.1414                   22109736.2934
  13353556.72346  10394431.34043  23904935.9384                   23904935.9024
  -5836431.02347  -4528341.30945  22781691.7734                   22781690.2504
 11  8 15 18  7 30.0000000  0  8G24G07G08G11G13G19G23G28
  -1796725.24647  -1132916.22744  23628999.7344                   23629000.9844
  -5078708.23448  -3940389.11346  20539427.1094                   20539424.7384
  -8998539.38748  -6990019.19146  21544985.5084                   21544984.1454
  -8960471.09447  -6966104.13745  22231875.1024                   22231873.6804
   8841658.29348   6888870.59045  21947155.9064                   21947155.2034
   5878159.64848   4583134.90245  22117173.3674                   22117170.1724
  13430179.09446  10454136.82043  23919517.8594                   23919516.9614
  -5909549.17647  -4585316.48045  22767777.9694                   22767776.0514
 11  8 15 18  8  0.0000000  0  8G24G07G08G11G13G19G23G28
  -1906368.12147  -1218352.14543  23608134.1334                   23608136.6884
  -5141004.20348  -3988931.43746  20527573.2424                   20527570.3674
  -9103230.38348  -7071596.59046  21525063.7504                   21525061.9414
  -9052325.84847  -7037679.24645  22214396.2114                   22214394.6294
   8899332.61348   6933811.53945  21958131.3134                   21958130.3674
   5917599.99248   4613867.60245  22124678.1884                   22124675.4414
  13506821.03146  10513857.56343  23934102.2274                   23934102.5864
  -5982549.93047  -4642200.16045  22753886.6174                   22753884.9024
 11  8 15 18  8 30.0000000  0  8G24G07G08G11G13G19G23G28
  -2015930.49246  -1303725.32444  23587284.3984                   23587287.8714
  -5202999.37148  -4037239.37546  20515775.8134                   20515773.2234
  -9207809.41448  -7153086.73846  21505162.8524                   21505161.4734
  -9143822.68047  -7108975.44945  22196983.9384                   22196983.8554
   8957295.44548   6978977.29745  21969161.3284                   21969160.3164
   5957415.93848   4644892.98845  22132255.0004                   22132252.0904
  13583483.19146  10573594.02343  23948690.5474                   23948691.2504
  -6055430.64547  -4698990.31645  22740017.6644                   22740015.9884
 11  8 15 18  9  0.0000000  0  8G24G07G08G11G13G19G23G28
  -2125405.35547  -1389030.31644  23566452.0314                   23566454.7814
  -5264688.27348  -4085308.66046  20504037.0394                   20504034.2584
  -9312271.37948  -7234485.65646  21485284.2814                   21485283.3284
  -9234955.32047  -7179987.87945  22179642.6884                   22179641.5274
   9015547.43048   7024368.36745  21980246.0784                   21980245.3444
   5997608.53948   4676211.84845  22139903.8364                   22139900.3984
  13660166.65647  10633347.10544  23963283.3444                   23963283.8134
  -6128188.30547  -4755684.58645  22726171.7974                   22726170.8404
 11  8 15 18  9 30.0000000  0  8G24G07G08G11G13G19G23G28
  -2234802.54747  -1474274.77043  23545634.6484                   23545636.8054
  -5326081.63348  -4133147.65646  20492353.8834                   20492351.6884
  -9416626.27048  -7315801.15246  21465425.9384                   21465424.6604
  -9325733.71947  -7250724.26245  22162368.1954                   22162366.8754
   9074073.02047   7069972.63345  21991383.1254                   21991381.6524
   6038162.61748   4707812.39545  22147620.6564                   22147617.6214
  13736855.75047  10693104.56343  23977876.6954                   23977877.8054
  -6200836.48047  -4812293.54745  22712347.6024                   22712345.7074
 11  8 15 18 10  0.0000000  0  8G24G07G08G11G13G19G23G28
  -2344110.37147  -1559449.61743  23524833.9774                   23524836.7814
  -5387168.91848  -4180748.15246  20480729.5234                   20480726.5824
  -9520863.45748  -7397024.92246  21445590.5784                   21445589.3164
  -9416146.66047  -7321175.87545  22145163.0784                   22145161.6254
   9132877.67647   7115794.36745  22002573.8754                   22002573.1764
   6079083.63748   4739698.86345  22155407.9534                   22155404.3484
  13813555.91847  10752870.61744  23992472.5634                   23992473.2894
  -6273367.77347  -4868811.42645  22698545.4614                   22698543.9454
 11  8 15 18 10 30.0000000  0  8G24G07G08G11G13G19G23G28
  -2453331.00047  -1644556.55144  23504050.1564                   23504052.4964
  -5447953.55948  -4228112.82046  20469162.7584                   20469160.5704
  -9624986.23448  -7478159.54746  21425776.9614                   21425775.5514
  -9506196.77047  -7391344.76645  22128027.0084                   22128026.0274
   9191953.10947   7161827.08645  22013815.1414                   22013814.2814
   6120363.57048   4771865.00845  22163263.1414                   22163260.0124
  13890259.30947  10812639.22343  24007070.0944                   24007070.3054
  -6345788.21147  -4925242.92645  22684764.4064                   22684762.7274
 11  8 15 18 11  0.0000000  0  8G24G07G08G11G13G19G23G28
  -2562469.62147  -1729599.53944  23483281.6804                   23483284.0124
  -5508441.86748  -4275246.59046  20457651.7814                   20457649.7704
  -9729000.68448  -7559209.77046  21405983.4844                   21405981.8284
  -9595889.36347  -7461235.07045  22110959.0864                   22110958.0704
   9251288.19548   7208062.12945  22025106.3674                   22025105.9614
   6161991.58247   4804302.37545  22171184.8914                   22171181.8054
  13966954.91847  10872401.76643  24021664.0474                   24021664.8484
  -6418107.15247  -4981595.34845  22671002.6884                   22671000.6604
 11  8 15 18 11 30.0000000  0  8G24G07G08G11G13G19G23G28
  -2671517.22347  -1814571.62944  23462529.4694                   23462532.5474
  -5568626.39148  -4322143.63746  20446199.3204                   20446196.6954
  -9832898.93748  -7640169.44146  21386211.9774                   21386210.7194
  -9685216.03947  -7530840.24245  22093960.8204                   22093959.4774
   9310885.94947   7254501.82445  22036447.2974                   22036446.9734
   6203970.99247   4837013.57045  22179173.3524                   22179169.7504
  14043645.81347  10932160.64143  24036258.2664                   24036257.9964
  -6490319.25847  -5037864.51645  22657260.6334                   22657258.9844
 11  8 15 18 12  0.0000000  0  9G17G24G07G08G11G13G19G23G28
   4549696.67257   3574893.31654  24634874.8984                   24634879.3484
  -2780472.68047  -1899471.84843  23441797.0944                   23441798.8834
  -5628507.05148  -4368803.89846  20434804.5004                   20434801.7814
  -9936680.38748  -7721038.10246  21366463.5164                   21366461.6254
  -9774176.01647  -7600159.68445  22077032.1094                   22077031.1764
   9370741.39147   7301142.33645  22047837.4384                   22047836.9454
   6246297.05147   4869994.87145  22187227.7274                   22187224.6844
  14120327.49247  10991912.36343  24050849.5474                   24050850.2274
  -6562427.61747  -5094052.83245  22643539.0394                   22643537.8794
 11  8 15 18 12 30.0000000  0  9G17G24G07G08G11G13G19G23G28
   4406979.33647   3463685.25043  24607716.5004                   24607720.6954
  -2889343.37547  -1984306.05144  23421078.9304                   23421081.6994
  -5688092.50848  -4415234.13746  20423465.7664                   20423462.8954
 -10040354.07848  -7801822.79346  21346734.7974                   21346733.7034
  -9862777.42647  -7669199.72345  22060171.8364                   22060170.9964
   9430840.69947   7347972.87145  22059274.4534                   22059273.1334
   6288956.09847   4903235.64545  22195345.8284                   22195342.5164
  14196986.46546  11051646.36343  24065438.3674                   24065437.9304
  -6634443.50447  -5150169.08645  22629835.0634                   22629833.6414
 11  8 15 18 13  0.0000000  0  9G17G24G07G08G11G13G19G23G28
   4264335.64547   3352534.58644  24580571.9064                   24580575.7464
  -2998109.94547  -2069059.11344  23400381.5004                   23400384.5314
  -5747364.09848  -4461419.80146  20412186.4144                   20412184.1954
 -10143900.75448  -7882508.52046  21327030.5784                   21327029.5944
  -9951001.09047  -7737945.39845  22043383.4454                   22043381.9064
   9491197.50447   7395004.05945  22070760.3284                   22070758.9774
   6331962.36347   4936746.98445  22203529.2034                   22203526.2424
  14273636.36746  11111373.25043  24080024.3364                   24080024.5354
  -6706351.35247  -5206201.16445  22616151.0474                   22616149.9344
 11  8 15 18 13 30.0000000  0  9G17G24G07G08G11G13G19G23G28
   4121758.54747   3241435.77744  24553441.5944                   24553444.4414
  -3106777.94946  -2153735.37943  23379702.2814                   23379705.1684
  -5806329.46548  -4507366.85246  20400965.6884                   20400963.6294
 -10247327.03548  -7963100.42646  21307349.5704                   21307347.6644
 -10038853.01247  -7806401.40645  22026665.6804                   22026664.5204
   9551800.02047   7442226.70345  22082291.9614                   22082291.1764
   6375303.85547   4970519.53145  22211777.1254                   22211773.9184
  14350265.76246  11171084.21542  24094605.4774                   24094607.1294
  -6778161.06647  -5262156.75845  22602486.2584                   22602485.4964
 11  8 15 18 14  0.0000000  0  9G17G24G07G08G11G13G19G23G28
   3979257.21547   3130395.98844  24526323.5084                   24526327.0164
  -3215337.89847  -2238327.44943  23359044.2194                   23359046.6414
  -5864980.34048  -4553068.84846  20389804.8754                   20389802.1804
 -10350624.71948  -8043592.11346  21287692.6414                   21287690.5944
 -10126324.29347  -7874560.81245  22010020.3364                   22010018.9144
   9612651.78947   7489643.57445  22093872.1024                   22093871.3674
   6418984.60547   5004556.44545  22220089.1644                   22220086.0124
  14426878.00846  11230781.76243  24109184.7274                   24109186.3984
  -6849866.82447  -5318031.35945  22588841.1884                   22588839.6294
 11  8 15 18 14 30.0000000  0  9G17G24G07G08G11G13G19G23G28
   3836842.88747   3019424.01644  24499222.4534                   24499226.4804
  -3323777.37947  -2322825.65243  23338409.0474                   23338410.4654
  -5923305.45748  -4598517.00846  20378706.0394                   20378703.9614
 -10453782.19548  -8123974.55946  21268062.0944                   21268060.6484
 -10213402.83647  -7942414.18445  21993450.1954                   21993448.7624
   9673758.98447   7537259.48445  22105500.5004                   22105499.6604
   6463010.80547   5038862.51645  22228467.0944                   22228464.1454
  14503479.90646  11290471.26643  24123762.4534                   24123763.8164
  -6921460.46947  -5373818.59445  22575216.9924                   22575215.8324
 11  8 15 18 15  0.0000000  0  9G17G24G07G08G11G13G19G23G28
   3694514.95747   2908519.36344  24472138.2584                   24472141.7704
  -3432095.96147  -2407229.69543  23317796.3204                   23317797.9534
  -5981305.62548  -4643711.96146  20367669.0004                   20367666.6214
 -10556799.79348  -8204248.00846  21248458.6724                   21248457.0634
 -10300089.07847  -8009961.88345  21976953.7194                   21976952.2854
   9735115.72747   7585069.83245  22117176.5554                   22117175.5784
   6507377.03147   5073433.55145  22236909.6094                   22236906.9454
  14580065.85946  11350148.32843  24138336.6644                   24138338.3674
  -6992945.53547  -5429521.21945  22561614.0784                   22561612.4534
 11  8 15 18 15 30.0000000  0  9G17G24G07G08G11G13G19G23G28
   3552267.43446   2797677.34444  24445069.3284                   24445072.5904
  -3540298.33647  -2491543.13743  23297205.4304                   23297207.8404
  -6038987.00448  -4688658.51246  20356692.9694                   20356690.2974
 -10659683.24248  -8284416.92646  21228880.3914                   21228879.3554
 -10386388.31247  -8077207.99645  21960531.9144                   21960530.4844
   9796711.38347   7633066.36745  22128897.5784                   22128896.8054
   6552072.62147   5108261.25445  22245414.7734                   22245412.2624
  14656625.25847  11409804.72743  24152905.8914                   24152907.3284
  -7064330.78947  -5485146.07845  22548029.7814                   22548028.4454
 11  8 15 18 16  0.0000000  0  9G17G24G07G08G11G13G19G23G28
   3410112.18046   2686907.22743  24418018.1644                   24418021.0594
  -3648371.82446  -2575756.14543  23276639.5234                   23276642.1524
  -6096338.02348  -4733347.63746  20345779.1564                   20345776.8054
 -10762421.04348  -8364472.35246  21209330.1804                   21209328.4654
 -10472288.48447  -8144143.16445  21944185.2814                   21944184.3014
   9858552.39147   7681254.07045  22140665.3444                   22140664.4454
   6597104.40247   5143350.90645  22253984.4064                   22253981.3794
  14733165.02746  11469445.83243  24167471.5314                   24167472.7894
  -7135607.73047  -5540686.53145  22534466.3204                   22534465.1414
 11  8 15 18 16 30.0000000  0  9G17G24G07G08G11G13G19G23G28
   3268044.90246   2576205.60543  24390983.7034                   24390986.3524
  -3756320.00047  -2659871.46543  23256097.5784                   23256101.0204
  -6153363.45748  -4777783.05146  20334927.3284                   20334925.2854
 -10865017.04748  -8444417.28546  21189807.0164                   21189804.8094
 -10557793.09047  -8210770.09045  21927914.2344                   21927913.3014
   9920629.19947   7729625.50845  22152478.2584                   22152477.8754
   6642463.26647   5178695.42645  22262615.6174                   22262613.0004
  14809675.98446  11529064.45744  24182030.8594                   24182032.6414
  -7206783.42647  -5596148.10245  22520922.4304                   22520920.8554
 11  8 15 18 17  0.0000000  0  9G17G24G07G08G11G13G19G23G28
   3126077.93446   2465582.17643  24363967.7734                   24363970.6374
  -3864129.12947  -2743878.45744  23235582.7424                   23235585.6884
  -6210051.13748  -4821955.28946  20324139.9844                   20324138.1294
 -10967458.71148  -8524241.95346  21170312.5234                   21170311.0944
 -10642889.44547  -8277078.91045  21911720.9614                   21911720.2194
   9982949.05147   7778186.34045  22164337.4924                   22164336.7234
   6688156.54747   5214300.53145  22271310.9144                   22271308.5234
  14886165.64146  11588666.51644  24196586.8834                   24196588.5554
  -7277848.43447  -5651523.42645  22507398.5234                   22507397.1024
 11  8 15 18 17 30.0000000  0  9G17G24G07G08G11G13G19G23G28
   2984203.45746   2355030.83243  24336970.2274                   24336972.7974
  -3971806.02347  -2827782.43044  23215092.9304                   23215094.9694
  -6266408.95748  -4865870.50046  20313415.6334                   20313413.2194
 -11069753.68048  -8603952.30946  21150846.6094                   21150845.0044
 -10727585.02747  -8343075.42645  21895604.1024                   21895602.9304
  10045499.15247   7826926.58245  22176240.5554                   22176240.6454
   6734171.82847   5250156.55545  22280067.8054                   22280064.4964
  14962621.35546  11648242.11744  24211135.6804                   24211137.7304
  -7348813.95747  -5706821.22345  22493894.9064                   22493893.0234
 11  8 15 18 18  0.0000000  0  9G17G24G07G08G11G13G19G23G28
   2842431.12546   2244559.01243  24309991.2974                   24309994.3404
  -4079340.23847  -2911575.22744  23194629.5394                   23194631.4774
  -6322427.98848  -4909521.70346  20302755.9144                   20302753.3444
 -11171892.28548  -8683540.83246  21131410.1884                   21131408.8594
 -10811869.66847  -8408751.74245  21879565.2034                   21879563.7584
  10108284.13347   7875849.83645  22188188.5234                   22188187.8554
   6780513.68447   5286267.04745  22288886.2194                   22288882.8714
  15039048.35246  11707795.34043  24225679.2664                   24225681.2304
  -7419672.93447  -5762036.00445  22480410.7274                   22480408.5354
 11  8 15 18 18 30.0000000  0  9G17G24G07G08G11G13G19G23G28
   2700772.25046   2134175.66043  24283034.8054                   24283037.3404
  -4186719.60547  -2995247.35944  23174195.5394                   23174197.6724
  -6378097.10548  -4952900.25446  20292162.4774                   20292159.8244
 -11273863.28548  -8762998.75846  21112005.8054                   21112004.4384
 -10895731.79347  -8474098.82045  21863606.6094                   21863605.5744
  10171309.80147   7924960.65245  22200181.6804                   22200180.8874
   6827188.23447   5322636.77745  22297767.8284                   22297764.5474
  15115452.85546  11767331.05943  24240219.0474                   24240221.0004
  -7490417.07047  -5817161.31645  22466948.4614                   22466946.5594
 11  8 15 18 19  0.0000000  0  9G17G24G07G08G11G13G19G23G28
   2559224.92246   2023879.19943  24256099.2274                   24256101.1484
  -4293944.77047  -3078799.32844  23153791.0314                   23153793.9384
  -6433418.43448  -4996007.80546  20281634.9224                   20281632.5204
 -11375668.16448  -8842327.22746  21092633.3444                   21092631.6804
 -10979172.90647  -8539117.84045  21847728.4614                   21847727.3594
  10234569.52347   7974253.81345  22212219.9694                   22212219.4804
   6874189.15247   5359260.82845  22306712.3754                   22306708.8404
  15191827.77346  11826843.69943  24254752.6644                   24254754.2344
  -7561051.45347  -5872201.09045  22453507.0004                   22453504.7304
 11  8 15 18 19 30.0000000  0  9G17G24G07G08G11G13G19G23G28
   2417786.10246   1913667.29743  24229183.5474                   24229185.9494
  -4401017.86747  -3162232.80544  23133415.6174                   23133418.5664
  -6488395.49248  -5038847.09046  20271172.8524                   20271170.7074
 -11477310.20748  -8921528.81646  21073290.8984                   21073289.3164
 -11062195.73847  -8603810.92645  21831929.7034                   21831928.1724
  10298054.88347   8023722.82045  22224300.7034                   22224300.5944
   6921508.44947   5396132.95345  22315716.5164                   22315713.3444
  15268165.66046  11886327.50443  24269280.5944                   24269281.0314
  -7631581.95747  -5927159.90645  22440085.5474                   22440083.3834
 11  8 15 18 20  0.0000000  0  9G17G24G07G08G11G13G19G23G28
   2276453.98847   1803538.53143  24202289.0704                   24202291.9344
  -4507939.12547  -3245547.98044  23113068.9144                   23113071.5234
  -6543030.10948  -5081419.53546  20260776.7584                   20260774.2344
 -11578790.28948  -9000604.20346  21053980.1564                   21053978.7814
 -11144801.38747  -8668178.93745  21816210.5944                   21816208.8094
  10361759.39847   8073362.59445  22236423.1414                   22236422.8524
   6969139.57047   5433248.08245  22324780.6174                   22324776.9104
  15344460.25446  11945777.54743  24283797.5084                   24283799.9654
  -7702013.16847  -5982041.35945  22426683.4304                   22426681.1054
 11  8 15 18 20 30.0000000  0  9G17G24G07G08G11G13G19G23G28
   2135214.60946   1693482.01644  24175412.2814                   24175414.9264
  -4614721.99247  -3328755.32044  23092749.3284                   23092751.6484
  -6597336.85248  -5123736.48447  20250442.2424                   20250439.9964
 -11680122.55148  -9079564.39546  21034697.0474                   21034695.7344
 -11227004.00447  -8732232.88345  21800567.9064                   21800566.1484
  10425663.34847   8123157.76645  22248583.8674                   22248583.1724
   7017063.09847   5470591.03945  22333900.1644                   22333896.4964
  15420692.32045  12005178.91843  24298304.9384                   24298307.0004
  -7772362.48447  -6036858.98445  22413296.0004                   22413293.9694
 11  8 15 18 21  0.0000000  0  9G17G24G07G08G11G13G19G23G28
   1994082.33246   1583508.97744  24148555.3134                   24148558.0704
  -4721350.97347  -3411842.74644  23072458.4844                   23072460.4734
  -6651301.21148  -5165786.65246  20240173.3444                   20240171.2504
 -11781292.53948  -9158398.15246  21015444.9614                   21015443.6954
 -11308788.61347  -8795961.12545  21785004.5944                   21785003.1804
  10489776.28947   8173115.79344  22260783.5784                   22260783.9654
   7065288.98847   5508169.60945  22343077.4224                   22343074.1294
  15496871.60546  12064539.09442  24312801.7894                   24312802.9414
  -7842618.10247  -6091603.59445  22399926.7814                   22399925.3524
 11  8 15 18 21 30.0000000  0  8G17G24G07G08G11G13G19G28
   1853078.03146   1473635.68444  24121723.1484                   24121726.0904
  -4827804.49247  -3494793.45344  23052201.2814                   23052203.0004
  -6704903.15648  -5207554.42246  20229973.2114                   20229970.6684
 -11882278.63348  -9237088.60546  20996228.1094                   20996226.6604
 -11390133.94548  -8859347.07045  21769525.0474                   21769523.4344
  10554113.88747   8223248.85944  22273027.2894                   22273026.6644
   7113833.05147   5545996.12545  22352315.1174                   22352311.2074
  -7912762.42647  -6146261.49245  22386578.6804                   22386576.7854
 11  8 15 18 22  0.0000000  0  8G17G24G07G08G11G13G19G28
   1712206.12946   1363865.54344  24094915.6564                   24094918.3484
  -4934076.41047  -3577602.67644  23031977.5164                   23031979.9574
  -6758138.53948  -5249036.55146  20219842.6644                   20219840.5904
 -11983076.33248  -9315632.26646  20977046.9534                   20977045.4494
 -11471035.34448  -8922387.09045  21754130.3134                   21754128.8134
  10618675.48847   8273556.49644  22285312.9064                   22285312.2074
   7162694.85247   5584070.19545  22361613.0004                   22361610.1214
  -7982793.89147  -6200831.44145  22373252.1024                   22373250.4884
 11  8 15 18 22 30.0000000  0  8G17G24G07G08G11G13G19G28
   1571466.25446   1254198.29344  24068133.8364                   24068136.2624
  -5040166.19547  -3660269.94944  23011789.3524                   23011791.5554
  -6811007.90648  -5290233.47746  20209782.0704                   20209779.7234
 -12083686.25448  -9394029.59446  20957901.2114                   20957899.5984
 -11551492.66047  -8985081.07845  21738819.7504                   21738817.8164
  10683455.78547   8324034.52044  22297640.3984                   22297640.2584
   7211868.94547   5622387.62945  22370970.9534                   22370967.0124
  -8052715.77747  -6255316.01645  22359946.3674                   22359944.9414
 11  8 15 18 23  0.0000000  0  8G17G24G07G08G11G13G19G28
   3006292.23246   2372244.73544  24341171.7194                   24341174.6024
  -3570640.14147  -2515184.64543  23291430.6724                   23291432.7854
  -5288080.83248  -4103537.07046  20499585.6804                   20499583.2464
 -10608675.24648  -8244670.37146  21238586.5554                   21238584.9694
 -10056074.10547  -7819819.84045  22023388.0084                   22023386.2344
  12323876.21547   9602284.09444  22609802.0314                   22609801.9614
   8836778.44547   6888550.84045  22680180.8834                   22680177.2154
  -6547099.35547  -5082108.37945  22646455.5474                   22646453.8524
 11  8 15 18 23 30.0000000  0  8G17G24G07G08G11G13G19G28
   2865845.34446   2262805.80944  24314445.2974                   24314448.1054
  -3676333.84047  -2597543.30543  23271318.1094                   23271320.3094
  -5340190.54748  -4144142.05946  20489669.4844                   20489667.2814
 -10708879.38748  -8322751.52046  21219518.3524                   21219517.0164
 -10135613.94148  -7881798.88745  22008251.8984                   22008250.3874
  12389106.99647   9653113.15244  22622215.4224                   22622214.4884
   8886592.30547   6927366.79345  22689659.5944                   22689657.0044
  -6616781.84847  -5136406.41445  22633195.5864                   22633193.7934
 11  8 15 18 24  0.0000000  0  8G17G24G07G08G11G13G19G28
   2725533.82446   2153472.37144  24287745.0704                   24287747.6024
  -3781839.08247  -2679755.11744  23251240.7584                   23251243.1684
  -5391931.96948  -4184460.06647  20479823.4304                   20479821.2344
 -10808891.45748  -8400683.00446  21200486.9924                   21200485.1884
 -10214705.76247  -7943428.85545  21993201.3054                   21993199.9884
  12454544.32047   9704103.16044  22634667.5314                   22634667.9144
   8936707.40247   6966417.46945  22699196.7814                   22699193.2774
  -6686360.25447  -5190623.32045  22619955.3834                   22619953.6684
 11  8 15 18 24 30.0000000  0  9G17G24G07G08G26G11G13G19G28
   2585362.77346   2044248.37944  24261071.0394                   24261073.3954
  -3887149.57847  -2761815.16444  23231201.1254                   23231202.3524
  -5443300.20348  -4224487.27347  20470048.0234                   20470045.7074
 -10908705.49648  -8478460.16846  21181492.8054                   21181491.7384
   6144005.82456   4814018.56653  24363798.9224                   24363799.2974
 -10293344.13347  -8004705.49645  21978237.1484                   21978235.5864
  12520188.17247   9755254.09044  22647159.2814                   22647159.1254
   8987123.95747   7005703.05145  22708790.9844                   22708787.0354
  -6755832.37947  -5244757.41845  22606734.7894                   22606733.6334
 11  8 15 18 25  0.0000000  0  9G17G24G07G08G26G11G13G19G28
   2445332.30146   1935133.91844  24234424.3204                   24234426.5944
  -3992264.05947  -2843722.50044  23211198.8444                   23211200.0274
  -5494295.71948  -4264224.04347  20460344.0704                   20460341.6524
 -11008321.19548  -8556082.79346  21162536.7034                   21162534.9694
   6017146.71946   4715167.28942  24339658.8284                   24339659.6294
 -10371528.69147  -8065628.50845  21963359.0394                   21963357.6954
  12586033.58647   9806562.08244  22659689.5004                   22659689.4264
   9037837.19547   7045219.82045  22718441.2034                   22718438.0664
  -6825201.14147  -5298810.98445  22593534.8834                   22593532.5704
 11  8 15 18 25 30.0000000  0  9G17G24G07G08G26G11G13G19G28
   2305452.89546   1826137.19543  24207806.3134                   24207807.8834
  -4097171.03147  -2925468.10244  23191235.3594                   23191236.9734
  -5544908.41448  -4303662.53146  20450712.7734                   20450710.6524
 -11107728.18048  -8633542.78546  21143620.2814                   21143618.3984
   5890664.07446   4616609.44543  24315589.9224                   24315590.7464
 -10449248.95348  -8126189.71945  21948569.5634                   21948568.2344
  12652085.94947   9858031.32844  22672258.9614                   22672258.6724
   9088852.85547   7084972.22345  22728148.7114                   22728145.7074
  -6894459.05547  -5352778.17645  22580355.0554                   22580353.3324
 11  8 15 18 26  0.0000000  0  9G17G24G07G08G26G11G13G19G28
   2165710.73047   1717247.36343  24181214.3834                   24181215.6054
  -4201883.39547  -3007062.05544  23171309.1024                   23171311.4924
  -5595152.51248  -4342813.78946  20441151.8594                   20441149.8524
 -11206939.91148  -8710850.62846  21124740.5944                   21124739.1604
   5764545.04745   4518334.90242  24291589.7034                   24291591.5784
 -10526518.38347  -8186399.66045  21933865.5554                   21933864.1884
  12718326.34047   9909647.09445  22684863.7814                   22684863.9964
   9140152.30947   7124945.77045  22737911.0164                   22737907.9104
  -6963622.31247  -5406671.60545  22567193.7894                   22567192.1994
 11  8 15 18 26 30.0000000  0  9G17G24G07G08G26G11G13G19G28
   2026104.37547   1608463.39544  24154647.6954                   24154648.9574
  -4306401.51647  -3088504.65244  23151419.7664                   23151421.8984
  -5645029.64148  -4381679.08646  20431660.5634                   20431658.3874
 -11305957.19948  -8788006.94546  21105898.4844                   21105896.9024
   5638789.01246   4420343.26642  24267659.1884                   24267660.8954
 -10603338.17647  -8246259.21945  21919247.0234                   21919245.6024
  12784748.23447   9961404.28544  22697503.8204                   22697503.9694
   9191729.01647   7165135.35545  22747725.7664                   22747723.0514
  -7032695.72747  -5460495.03145  22554049.7894                   22554047.2424
 11  8 15 18 27  0.0000000  0  9G17G24G07G08G26G11G13G19G28
   1886636.23847   1499787.08644  24128107.7734                   24128109.3284
  -4410721.94147  -3169793.20744  23131568.2114                   23131569.6844
  -5694537.81648  -4420256.91846  20422239.4144                   20422237.3954
 -11404777.40648  -8865009.69946  21087093.9924                   21087092.3674
   5513399.32046   4322637.04743  24243798.5704                   24243799.6914
 -10679705.37947  -8305766.10945  21904715.0944                   21904713.5044
  12851348.74647  10013300.64144  22710178.4694                   22710177.4574
   9243580.62147   7205539.17645  22757592.6094                   22757589.8714
  -7101679.88747  -5514248.93045  22540922.5164                   22540920.0594
 11  8 15 18 27 30.0000000  0  9G17G24G07G08G26G11G13G19G28
   1747313.83247   1391224.35544  24101595.1644                   24101597.0634
  -4514835.82847  -3250920.86344  23111756.1644                   23111757.8014
  -5743669.78948  -4458541.59047  20412889.8674                   20412887.7304
 -11503392.60948  -8941852.71946  21068327.6024                   21068325.7304
   5388384.04746   4225222.61743  24220008.4144                   24220009.4964
 -10755612.96948  -8364914.87945  21890269.9224                   21890268.6454
  12918130.44547  10065338.20744  22722885.5944                   22722885.3054
   9295709.69147   7246159.16845  22767512.4224                   22767509.2974
  -7170569.83247  -5567929.39845  22527813.1254                   22527811.4694
 11  8 15 18 28  0.0000000  0  9G17G24G07G08G26G11G13G19G28
   1608148.53947   1282784.02044  24075112.7974                   24075114.6954
  -4618730.80547  -3331877.87944  23091985.5234                   23091987.3364
  -5792414.45748  -4496524.46146  20403614.2344                   20403611.7194
 -11601791.14148  -9018526.90246  21049603.2814                   21049601.4144
   5263755.35246   4128109.41843  24196292.9694                   24196293.3594
 -10831048.98048  -8423696.18445  21875915.1564                   21875913.5784
  12985099.83247  10117522.00444  22735629.7114                   22735629.6994
   9348123.18047   7287000.78945  22777486.4694                   22777484.0044
  -7239357.04347  -5621529.82445  22514723.6094                   22514721.4654
 11  8 15 18 28 30.0000000  0  9G17G24G07G08G26G11G13G19G28
   1469133.08246   1174460.44944  24048658.2504                   24048660.7584
  -4722412.94147  -3412669.08244  23072255.0704                   23072257.1684
  -5840779.59048  -4534211.59846  20394410.5084                   20394408.6564
 -11699979.83648  -9095037.56246  21030918.4304                   21030916.9964
   5139506.88746   4031292.44143  24172649.3204                   24172649.7304
 -10906020.49647  -8482115.54745  21861648.5784                   21861647.1914
  13052244.27347  10169842.19544  22748407.5164                   22748407.3284
   9400808.85247   7328054.51645  22787511.9384                   22787509.1214
  -7308051.91047  -5675058.27045  22501651.3204                   22501649.5434
 11  8 15 18 29  0.0000000  0  9G17G24G07G08G26G11G13G19G28
   1330279.89147   1066263.31644  24022235.7664                   24022237.3524
  -4825869.10947  -3493284.15644  23052568.3364                   23052570.4964
  -5888753.38348  -4571593.80546  20385281.6334                   20385279.3634
 -11797946.02348  -9171374.85546  21012276.3204                   21012274.7734
   5015651.54746   3934781.84843  24149080.3754                   24149080.9614
 -10980515.14548  -8540163.33245  21847472.8444                   21847470.7624
  13119571.38347  10222304.73844  22761219.2664                   22761219.2194
   9453774.01647   7369326.02045  22797591.2504                   22797588.4264
  -7376644.93747  -5728507.38345  22488598.3594                   22488596.7154
 11  8 15 18 29 30.0000000  0  9G17G24G07G08G26G11G13G19G28
   1191588.60246    958192.35544  23995843.4304                   23995845.0594
  -4929098.19147  -3573722.31644  23032923.9614                   23032926.4184
  -5936336.08248  -4608671.25047  20376226.8364                   20376224.7544
 -11895689.20748  -9247538.38346  20993676.0474                   20993674.7544
   4892190.17246   3838578.21143  24125586.2504                   24125586.6024
 -11054532.79748  -8597839.42245  21833387.8134                   21833386.1564
  13187075.95747  10274905.57844  22774064.6334                   22774064.9844
   9507013.83247   7410811.56345  22807722.7814                   22807719.9064
  -7445138.90647  -5781879.30145  22475564.2974                   22475562.7584
 11  8 15 18 30  0.0000000  0  9G17G24G07G08G26G11G13G19G28
   1053058.90646    850247.35243  23969481.4224                   23969483.8054
  -5032099.52747  -3653983.00044  23013323.8054                   23013325.6884
  -5983528.73848  -4645444.77346  20367246.3524                   20367244.1414
 -11993209.64548  -9323528.32846  20975118.8524                   20975117.5164
   4769122.98046   3742681.74243  24102167.2114                   24102167.8404
 -11128073.91448  -8655144.18445  21819393.1254                   21819391.8444
  13254752.26647  10327640.23044  22786943.5394                   22786943.3324
   9560523.55547   7452507.41045  22817905.0554                   22817902.1644
  -7513537.10948  -5835176.59845  22462548.9694                   22462546.8524
 11  8 15 18 30 30.0000000  0  9G17G24G07G08G26G11G13G19G28
    914705.06646    742439.31644  23943153.7344                   23943155.7234
  -5134858.11347  -3734054.55544  22993769.4844                   22993771.0744
  -6030317.63348  -4681903.67246  20358342.8054                   20358340.3794
 -12090492.80148  -9399333.38746  20956606.5164                   20956604.6914
   4646464.68846   3647103.90643  24078826.3914                   24078826.9694
 -11201124.43747  -8712066.66045  21805492.0944                   21805490.5204
  13322609.32047  10380515.69944  22799856.2504                   22799856.2704
   9614311.81647   7494420.30945  22828140.8134                   22828137.8954
  -7581828.63747  -5888390.77345  22449553.0634                   22449550.9064
 11  8 15 18 31  0.0000000  0  9G17G24G07G08G26G11G13G19G28
    776513.07047    634757.39144  23916856.8984                   23916858.4384
  -5237386.60947  -3813946.81644  22974258.7664                   22974260.6414
  -6076716.96948  -4718059.01646  20349513.2344                   20349511.2814
 -12187551.96948  -9474963.91046  20938136.6804                   20938135.2624
   4524202.37146   3551834.61343  24055560.8674                   24055560.9494
 -11273697.89847  -8768617.41045  21791681.8674                   21791680.0314
  13390628.45347  10433517.49644  22812799.7424                   22812800.1844
   9668360.22347   7536535.89145  22838425.9774                   22838423.3404
  -7650030.05147  -5941534.71945  22436574.9534                   22436572.2854
 11  8 15 18 31 30.0000000  0  9G17G24G07G08G26G11G13G19G28
    638492.84446    527209.32044  23890592.5704                   23890594.0594
  -5339673.81246  -3893651.05544  22954794.2274                   22954795.5904
  -6122717.52348  -4753903.62146  20340759.4924                   20340757.3054
 -12284376.80948  -9550411.84046  20919711.6334                   20919709.8404
   4402346.57447   3456882.09043  24032372.1564                   24032372.1134
 -11345784.58648  -8824788.84445  21777964.4694                   21777962.6764
  13458814.33247  10486649.21544  22825775.4064                   22825775.4224
   9722673.54347   7578857.94145  22848760.8594                   22848758.1524
  -7718134.23447  -5994602.90645  22423615.2894                   22423612.8444
 11  8 15 18 32  0.0000000  0  9G17G24G07G08G26G11G13G19G28
    500654.18847    419802.71944  23864362.4224                   23864363.9414
  -5441708.75447  -3973158.69144  22935377.2424                   22935379.3714
  -6168309.38748  -4789429.76647  20332083.8284                   20332081.5354
 -12380957.06648  -9625669.18746  20901332.9144                   20901331.3524
   4280907.88746   3362254.59043  24009262.7504                   24009263.3834
 -11417374.43447  -8880573.13345  21764340.9694                   21764339.3754
  13527171.84047  10539914.65644  22838783.2734                   22838783.8444
   9777257.14847   7621390.58245  22859148.5784                   22859145.6214
  -7786133.94147  -6047589.66845  22410675.0944                   22410672.7734
 11  8 15 18 32 30.0000000  0  9G17G24G07G08G26G11G13G19G28
    362974.13347    312519.68844  23838163.2274                   23838164.5634
  -5543513.70747  -4052487.14844  22916004.1724                   22916006.1484
  -6213516.09048  -4824655.78546  20323481.3284                   20323479.2734
 -12477315.53948  -9700753.71546  20882996.2664                   20882994.7704
   4159863.97346   3267934.69543  23986228.9844                   23986229.5944
 -11488490.23847  -8935988.03545  21750808.6644                   21750806.4654
  13595672.82847  10593291.88744  22851818.8594                   22851819.1334
   9832083.27747   7664112.19145  22869581.5554                   22869578.5274
  -7854055.49647  -6100515.52745  22397750.4924                   22397747.5984
 11  8 15 18 33  0.0000000  0  9G17G24G07G08G26G11G13G19G28
    225465.26647    205370.05544  23811995.9454                   23811997.2234
  -5645074.96947  -4131625.69544  22896678.5784                   22896679.4614
  -6258325.90248  -4859572.53946  20314954.3364                   20314952.1054
 -12573439.11347  -9775655.20346  20864704.7814                   20864703.2854
   4039228.08246   3173932.73443  23963272.4534                   23963273.0084
 -11559119.68747  -8991023.96545  21737367.9774                   21737365.9734
  13664324.86347  10646786.81344  22864883.3834                   22864883.6374
   9887159.51647   7707028.69545  22880062.5394                   22880058.8714
  -7921888.96947  -6153372.76245  22384841.9304                   22384840.2034
 11  8 15 18 33 30.0000000  0  9G17G24G07G08G26G11G13G19G28
     88137.21947     98361.28944  23785862.4774                   23785864.3324
  -5746381.62947  -4210565.87144  22877399.7504                   22877401.1884
  -6302729.39548  -4894172.68046  20306504.5474                   20306502.7664
 -12669317.57848  -9850365.69546  20846459.7734                   20846458.3204
   3919010.62946   3080256.83643  23940395.5704                   23940396.4654
 -11629253.35247  -9045673.57445  21724021.9224                   21724020.7384
  13733132.59447  10700403.06644  22877976.4384                   22877977.3714
   9942490.62547   7750143.81645  22890591.0944                   22890588.8054
  -7989627.73447  -6206156.19945  22371951.3914                   22371949.5864
 11  8 15 18 34  0.0000000  0  9G17G24G07G08G26G11G13G19G28
    -49033.49647     -8524.85944  23759760.0474                   23759761.3754
  -5847455.99647  -4289325.03544  22858165.5784                   22858167.0124
  -6346750.43048  -4928474.80546  20298127.6484                   20298125.4414
 -12764973.75448  -9924902.96946  20828256.7114                   20828255.3554
   3799188.78546   2986889.19143  23917594.4694                   23917595.5704
 -11698914.26648  -9099954.80145  21710766.0634                   21710764.4184
  13802067.61747  10754118.53144  22891094.9844                   22891095.5594
   9998048.67247   7793435.75445  22901163.4774                   22901160.9494
  -8057297.70747  -6258886.02745  22359074.1094                   22359072.6684
 11  8 15 18 34 30.0000000  0  9G17G24G07G08G26G11G13G19G28
   -186028.18447   -115273.85544  23733690.6254                   23733691.8364
  -5948277.96147  -4367887.53144  22838980.1954                   22838980.7624
  -6390370.24648  -4962464.28147  20289826.9774                   20289824.8914
 -12860388.24248  -9999251.92646  20810100.1254                   20810098.9774
   3679782.05146   2893845.03143  23894871.7664                   23894873.2034
 -11768083.72348  -9153853.09045  21697603.5864                   21697602.0044
  13871143.57047  10807943.78544  22904240.2344                   22904240.2544
  10053847.42647   7836915.25445  22911781.9844                   22911779.5204
  -8124882.80147  -6311549.72345  22346212.9694                   22346211.6054
 11  8 15 18 35  0.0000000  0  9G17G24G07G08G26G11G13G19G28
   -322855.25046   -221892.20744  23707652.9694                   23707654.3984
  -6048855.35947  -4446259.43444  22819840.6484                   22819841.9574
  -6433598.39848  -4996148.56246  20281601.0234                   20281598.9454
 -12955569.41448 -10073419.06246  20791987.6024                   20791986.1994
   3560782.95746   2801118.46143  23872226.9774                   23872227.9694
 -11836770.50447  -9207375.24245  21684532.6884                   21684530.8594
  13940347.25447  10861868.57444  22917408.6024                   22917409.5164
  10109874.16047   7880572.40645  22922443.2194                   22922441.0984
  -8192394.63747  -6364156.32845  22333366.1094                   22333364.4734
 11  8 15 18 35 30.0000000  0  9G17G24G07G08G26G11G13G19G28
   -459503.05147   -328370.89844  23681650.0164                   23681651.4144
  -6149175.13747  -4524430.62544  22800750.6024                   22800752.1914
  -6476423.37548  -5029518.69547  20273451.6804                   20273449.8014
 -13050504.75448 -10147394.64846  20773921.9384                   20773920.5394
   3442203.50046   2708718.97743  23849661.8834                   23849663.2814
 -11904962.44148  -9260511.82045  21671556.4304                   21671554.7664
  14009685.56647  10915898.28144  22930603.5234                   22930604.6094
  10166135.71947   7924412.54745  22933149.5164                   22933146.9104
  -8259823.79347  -6416698.50445  22320534.7734                   22320532.8954
 11  8 15 18 36  0.0000000  0  9G17G24G07G08G26G11G13G19G28
   -595972.55147   -434710.64544  23655680.0084                   23655682.1644
  -6249237.60247  -4602401.30144  22781709.2504                   22781710.6954
  -6518846.93448  -5062576.02747  20265378.8134                   20265376.9104
 -13145195.18448 -10221179.39846  20755902.9924                   20755901.6374
   3324043.43846   2616646.19143  23827177.0864                   23827178.3554
 -11972661.20347  -9313264.10945  21658673.7274                   21658671.8364
  14079151.66847  10970027.55544  22943822.5634                   22943823.9344
  10222625.76247   7968430.71945  22943900.1804                   22943897.2074
  -8327174.86747  -6469179.84445  22307718.2274                   22307715.9144
 11  8 15 18 36 30.0000000  0  9G17G24G07G08G26G11G13G19G28
   -732263.68447   -540911.39544  23629744.4924                   23629747.0434
  -6349041.35247  -4680170.35244  22762717.1954                   22762718.7384
  -6560869.23448  -5095320.69547  20257382.4774                   20257380.1564
 -13239639.95348 -10294772.72346  20737930.8524                   20737929.6024
   3206303.42246   2524900.74643  23804772.6414                   23804772.0204
 -12039866.55147  -9365631.92245  21645884.8834                   21645883.0164
  14148741.00447  11024252.84844  22957065.3914                   22957065.6844
  10279339.96947   8012623.58245  22954691.5704                   22954688.5904
  -8394450.16447  -6521602.12545  22294916.2814                   22294914.0004
 11  8 15 18 37  0.0000000  0  9G17G24G07G08G26G11G13G19G28
   -868368.11347   -646966.66844  23603845.3444                   23603846.8204
  -6448577.07047  -4757730.57444  22743775.4304                   22743777.3714
  -6602482.40648  -5127746.56246  20249463.4144                   20249461.5784
 -13333830.07848 -10368167.61346  20720007.2814                   20720005.4024
   3088992.59447   2433489.76243  23782448.4144                   23782449.1524
 -12106570.29347  -9417608.85945  21633191.5704                   21633190.3444
  14218456.87947  11078576.76644  22970332.2194                   22970332.1844
  10336282.03147   8056993.96145  22965527.7194                   22965524.8204
  -8461643.91047  -6573960.87545  22282129.8204                   22282127.3524
 11  8 15 18 37 30.0000000  0  9G17G24G07G08G26G11G13G19G28
  -1004282.62147   -752873.96144  23577981.6954                   23577982.8834
  -6547840.02347  -4835078.22744  22724886.6884                   22724887.7424
  -6643683.62548  -5159851.41847  20241623.2584                   20241621.2854
 -13427761.44948 -10441360.90246  20702132.6024                   20702131.2544
   2972115.12947   2342416.41443  23760207.9844                   23760208.0124
 -12172768.90647  -9469192.21545  21620594.2974                   21620592.9774
  14288297.94147  11132998.20744  22983622.1094                   22983622.9774
  10393450.60247   8101540.85245  22976406.4454                   22976403.6214
  -8528755.60947  -6626255.71545  22269358.5704                   22269356.6134
 11  8 15 18 38  0.0000000  0  9G17G24G07G08G26G11G13G19G28
  -1140021.53947   -858644.44544  23552150.6094                   23552152.4264
  -6646843.56247  -4912223.77744  22706046.9774                   22706048.1254
  -6684487.82848  -5191646.92246  20233858.2974                   20233856.3634
 -13521448.46548 -10514363.77046  20684303.9774                   20684302.4734
   2855657.15247   2251670.00043  23738047.1024                   23738046.3054
 -12238477.12947  -9520393.43445  21608090.5474                   21608088.9384
  14358244.79347  11187502.08244  22996932.7584                   22996933.6914
  10450826.62147   8146249.40644  22987324.6484                   22987321.7504
  -8595802.54347  -6678500.06645  22256600.1334                   22256599.0044
 11  8 15 18 38 30.0000000  0  9G17G24G07G08G26G11G13G19G28
  -1275577.47347   -964272.31644  23526355.7814                   23526356.6414
  -6745579.25047  -4989160.59844  22687257.3204                   22687259.6954
  -6724887.77748  -5223127.41846  20226170.7974                   20226168.6334
 -13614882.42648 -10587169.45746  20666524.8674                   20666522.9494
   2739626.56647   2161256.56344  23715966.6804                   23715966.9304
 -12303687.62947  -9571206.79745  21595681.7114                   21595679.6724
  14428300.32847  11242090.63744  23010264.2424                   23010265.1724
  10508412.90647   8191121.77345  22998283.0394                   22998280.3094
  -8662779.84847  -6730690.15245  22243854.4534                   22243853.0084
 11  8 15 18 39  0.0000000  0  9G17G24G07G08G26G11G13G19G28
  -1410947.68447  -1069755.51644  23500595.2194                   23500596.4144
  -6844043.13747  -5065885.60944  22668521.2504                   22668522.5434
  -6764881.19148  -5254291.12947  20218560.0004                   20218557.9414
 -13708060.04348 -10659775.39546  20648793.6414                   20648792.0164
   2624027.05547   2071179.06643  23693967.8054                   23693969.3834
 -12368397.95748  -9621630.41845  21583367.0944                   21583365.9774
  14498461.73447  11296761.68844  23023616.0084                   23023616.2624
  10566207.46147   8236156.44544  23009281.3754                   23009278.2894
  -8729687.34047  -6782825.84045  22231122.5234                   22231120.5164
 11  8 15 18 39 30.0000000  0  9G17G24G07G08G26G11G13G19G28
  -1546145.80547  -1175104.57044  23474867.9844                   23474869.8484
  -6942248.15647  -5142408.90644  22649833.8674                   22649834.8524
  -6804482.75448  -5285149.51247  20211024.1804                   20211022.1564
 -13800995.00848 -10732192.25846  20631108.7734                   20631107.1804
   2508845.18047   1981426.97743  23672050.9774                   23672050.8284
 -12432621.86347  -9671675.02345  21571145.7274                   21571144.3364
  14568710.49247  11351500.80944  23036984.1954                   23036985.0314
  10624191.67247   8281338.91444  23020315.0314                   23020311.9534
  -8796542.00447  -6834920.35545  22218400.7194                   22218398.8834
 11  8 15 18 40  0.0000000  0  9G17G24G07G08G26G11G13G19G28
  -1681146.21147  -1280299.60544  23449178.1644                   23449179.6254
  -7040167.47747  -5218709.60544  22631199.7584                   22631201.0434
  -6843667.20348  -5315682.86747  20203567.5634                   20203565.6884
 -13893660.92648 -10804399.46946  20613474.7274                   20613473.0514
   2394107.37947   1892020.91844  23650216.0784                   23650216.3284
 -12496334.03547  -9721320.85945  21559022.3204                   21559020.3364
  14639067.17647  11406324.01244  23050371.8754                   23050373.5004
  10682386.49247   8326685.48444  23031389.5634                   23031386.7974
  -8863320.44547  -6886955.48445  22205693.1804                   22205691.1174
 11  8 15 18 40 30.0000000  0  9G17G24G07G08G26G11G13G19G28
  -1815962.55947  -1385351.21544  23423523.1174                   23423524.8634
  -7137813.18447  -5294797.08244  22612619.2584                   22612619.6254
  -6882448.17248  -5345901.82446  20196187.9694                   20196186.0274
 -13986070.42648 -10876406.87146  20595889.9614                   20595888.7464
   2279801.02747   1802951.07044  23628463.9064                   23628465.1054
 -12559547.77748  -9770578.32045  21546992.8134                   21546991.3834
  14709513.75047  11461217.26244  23063778.3914                   23063778.8794
  10740774.25847   8372182.41444  23042500.0634                   23042497.0394
  -8930038.76247  -6938943.77745  22192997.1564                   22192994.8714
 11  8 15 18 41  0.0000000  0  9G17G24G07G08G26G11G13G19G28
  -1950592.54347  -1490257.58644  23397904.2424                   23397904.9534
  -7235182.16847  -5370668.94944  22594089.0634                   22594090.9494
  -6920824.36348  -5375805.37546  20188885.0084                   20188883.1524
 -14078220.55548 -10948212.17246  20578354.2344                   20578352.5824
   2165928.75047   1714219.46944  23606795.1884                   23606796.3984
 -12622261.51648  -9819446.14845  21535059.1024                   21535057.4264
  14780047.56347  11516178.49644  23077200.4614                   23077201.5984
  10799352.12547   8417827.46144  23053646.9144                   23053644.5784
  -8996697.63747  -6990885.75845  22180312.2814                   22180309.8094
 11  8 15 18 41 30.0000000  0  9G17G24G07G08G26G11G13G19G28
  -2085036.39847  -1595018.92644  23372319.9224                   23372320.8794
  -7332273.36747  -5446324.36744  22575613.6174                   22575614.8714
  -6958796.29348  -5405393.91447  20181659.5944                   20181657.4344
 -14170111.46148 -11019815.48446  20560868.1094                   20560866.5944
   2052490.81347   1625826.29743  23585209.0634                   23585209.2114
 -12684475.66448  -9867924.69145  21523219.6954                   21523218.4344
  14850663.15647  11571203.46944  23090637.9064                   23090639.3634
  10858115.42647   8463617.00444  23064829.3984                   23064826.2384
  -9063299.73047  -7042783.48445  22167638.6414                   22167636.7464
 11  8 15 18 42  0.0000000  0  9G17G24G07G08G26G11G13G19G28
  -2219274.41847  -1699619.88744  23346775.5474                   23346776.5084
  -7429066.12547  -5521747.22344  22557194.5314                   22557196.1294
  -6996345.26648  -5434652.87947  20174513.8524                   20174512.1414
 -14261722.46148 -11091200.68446  20543435.1804                   20543433.6764
   1939507.71547   1537787.54744  23563708.4614                   23563708.9844
 -12746170.64148  -9915998.69945  21511479.7194                   21511478.3204
  14921375.48047  11626303.81644  23104094.4774                   23104095.1564
  10917079.30947   8509562.84445  23076050.0704                   23076047.1214
  -9129828.10547  -7094623.75845  22154978.7274                   22154976.3714
 11  8 15 18 42 30.0000000  0  9G17G24G07G08G26G11G13G19G28
  -2353324.75447  -1804074.59844  23321266.1174                   23321267.7664
  -7525577.78947  -5596951.04744  22538829.0554                   22538830.6484
  -7033489.69148  -5463596.61346  20167445.5314                   20167444.1804
 -14353071.30948 -11162381.61346  20526051.8524                   20526050.4694
   1826961.56646   1450089.28143  23542291.4304                   23542292.6884
 -12807365.11348  -9963682.68745  21499834.3754                   21499833.0434
  14992161.16447  11681461.28944  23117564.0944                   23117565.6644
  10976220.70747   8555647.02345  23087304.2974                   23087301.5164
  -9196303.68747  -7146422.89145  22142328.2974                   22142326.8444
 11  8 15 18 43  0.0000000  0  9G17G24G07G08G26G11G13G19G28
  -2487180.62947  -1908377.78544  23295794.8364                   23295795.3204
  -7621800.18447  -5671929.46544  22520518.1024                   22520520.2934
  -7070222.81248  -5492219.84446  20160455.7664                   20160453.6294
 -14444150.32448 -11233352.27346  20508719.8914                   20508718.6604
   1714859.80946   1362737.33643  23520959.9384                   23520959.9574
 -12868052.24248 -10010971.35545  21488286.4384                   21488284.8054
  15063022.59847  11736677.80944  23131048.6334                   23131049.9104
  11035542.17647   8601871.47345  23098593.0704                   23098590.4454
  -9262722.28148  -7198177.63745  22129689.3284                   22129687.8984
 11  8 15 18 43 30.0000000  0  9G17G24G07G08G26G11G13G19G28
  -1045415.18047   -784924.11344  23570153.1174                   23570154.0234
  -6142306.60947  -4519077.27044  22802056.3444                   22802058.3094
  -5531122.03948  -4292920.57046  20453336.7664                   20453334.6684
 -12959533.76648 -10076508.20346  20791232.9614                   20791231.8674
   3178629.51646   2503337.12143  23799505.2114                   23799506.0044
 -11352807.74248  -8830261.35245  21776627.8594                   21776626.1644
  16709374.75047  13019549.43043  23444338.9694                   23444340.7304
  12670459.30547   9875832.83645  23409707.2734                   23409704.3324
  -7753661.91848  -6022286.43745  22416853.8364                   22416851.8094
 11  8 15 18 44  0.0000000  0  9G17G24G07G08G26G11G13G19G28
  -1178869.34847   -888914.30144  23544757.5784                   23544758.4344
  -6237934.71947  -4593592.62944  22783859.0554                   22783860.6884
  -5567022.66848  -4320895.11747  20446505.1484                   20446503.1994
 -13050059.10948 -10147047.43446  20774006.7814                   20774005.3554
   3067431.21946   2416689.15243  23778344.5554                   23778345.4694
 -11412468.24248  -8876750.05545  21765274.6724                   21765272.9384
  16780385.16847  13074882.03143  23457851.9384                   23457854.0944
  12730139.44547   9922336.77345  23421064.0554                   23421061.3484
  -7819961.74248  -6073948.63745  22404237.6094                   22404235.7544
 11  8 15 18 44 30.0000000  0  9G17G24G07G08G26G11G13G19G28
  -1312120.77747   -992746.49245  23519400.3914                   23519402.0514
  -6333261.71547  -4667873.35944  22765719.3594                   22765720.8204
  -5602505.57848  -4348544.16847  20439753.0554                   20439750.9654
 -13140303.89148 -10217368.05146  20756833.5944                   20756832.4964
   2956687.74246   2330395.55143  23757270.8984                   23757271.4734
 -11471614.09048  -8922837.71545  21754019.6334                   21754017.7624
  16851465.55147  13130269.16443  23471379.1334                   23471379.7774
  12789994.52747   9968977.07845  23432454.5944                   23432451.2584
  -7886203.98847  -6125565.96545  22391632.1564                   22391629.8284
 11  8 15 18 45  0.0000000  0  9G17G24G07G08G26G11G13G19G28
  -1445175.05947  -1096425.09444  23494081.7894                   23494082.4774
  -6428292.33247  -4741923.14144  22747635.1644                   22747636.7624
  -5637576.98848  -4375872.56647  20433079.1174                   20433077.2034
 -13230273.45348 -10287474.20746  20739713.1644                   20739711.3634
   2846393.74647   2244452.19943  23736282.8134                   23736283.5514
 -11530251.43448  -8968529.14845  21742861.2814                   21742859.6914
  16922605.02747  13185702.33643  23484915.7814                   23484917.4494
  12850013.92647  10015745.35944  23443875.6644                   23443873.3014
  -7952397.05147  -6177144.94145  22379035.6724                   22379034.2234
 11  8 15 18 45 30.0000000  0  9G17G24G07G08G26G11G13G19G28
  -1578031.39147  -1199949.43044  23468799.1094                   23468800.8094
  -6523024.45347  -4815740.32444  22729608.2974                   22729609.8794
  -5672236.53548  -4402880.03547  20426483.7894                   20426481.4384
 -13319966.28148 -10357364.72346  20722645.4774                   20722643.6914
   2736551.03947   2158860.51243  23715381.3914                   23715380.8244
 -11588379.30148  -9013823.58645  21731799.9064                   21731798.3324
  16993799.68047  13241178.49644  23498465.1884                   23498465.7734
  12910194.34847  10062639.13344  23455327.4774                   23455325.4264
  -8018541.93447  -6228686.40645  22366449.1644                   22366447.5824
 11  8 15 18 46  0.0000000  0  9G17G24G07G08G26G11G13G19G28
  -1710682.82047  -1303314.09044  23443556.6094                   23443557.6134
  -6617450.16047  -4889318.75444  22711639.5394                   22711640.6604
  -5706478.01648  -4429561.72346  20419967.8364                   20419966.2734
 -13409374.88348 -10427033.75446  20705631.7814                   20705629.8164
   2627166.66447   2073625.94143  23694566.1724                   23694565.8714
 -11645991.35547  -9058716.09045  21720836.4384                   21720834.9024
  17065051.71147  13296699.36343  23512023.6094                   23512024.4734
  12970537.62547  10109659.81644  23466810.4694                   23466807.9574
  -8084634.93047  -6280187.43045  22353871.7274                   22353870.4884
 11  8 15 18 46 30.0000000  0  9G17G24G07G08G26G11G13G19G28
  -1843144.33647  -1406530.79344  23418350.0944                   23418351.2584
  -6711583.44147  -4962669.31644  22693726.1644                   22693727.6214
  -5740317.39148  -4455930.09446  20413528.3284                   20413526.2154
 -13498513.57848 -10496492.48446  20688668.8674                   20688667.4844
   2518226.20347   1988737.29343  23673835.5784                   23673835.3014
 -11703103.14847  -9103218.77345  21709968.8914                   21709966.6254
  17136341.04347  13352249.33844  23525588.8204                   23525590.4414
  13031024.66447  10156792.46544  23478319.8754                   23478318.1994
  -8150693.54748  -6331661.67645  22341301.1644                   22341299.4384
 11  8 15 18 47  0.0000000  0  9G17G24G07G08G26G11G13G19G28
  -1975392.41847  -1509581.16444  23393183.8594                   23393184.8444
  -6805399.53147  -5035772.71544  22675874.1884                   22675875.0434
  -5773731.49248  -4481967.05546  20407170.1024                   20407168.0204
 -13587357.80548 -10565721.75846  20671762.4924                   20671760.8634
   2409753.82847   1904213.35943  23653193.4774                   23653193.1564
 -11759691.25048  -9147313.39145  21699200.3674                   21699198.9574
  17207686.78547  13407843.18844  23539166.5004                   23539167.4024
  13091674.49647  10204052.03944  23489861.7194                   23489859.6564
  -8216696.66047  -6383092.63745  22328741.4844                   22328739.3594
 11  8 15 18 47 30.0000000  0  9G17G24G07G08G26G11G13G19G28
  -2107428.35247  -1612466.22344  23368057.9924                   23368059.2344
  -6898898.84447  -5108629.28944  22658081.8204                   22658082.6844
  -5806722.07048  -4507674.02046  20400892.0634                   20400890.1644
 -13675908.38748 -10634722.21146  20654911.7114                   20654910.4454
   2301748.57047   1820053.40243  23632641.1414                   23632640.4964
 -11815757.68748  -9191001.50445  21688530.9224                   21688529.1954
  17279082.62147  13463476.11744  23552752.8444                   23552754.0474
  13152481.43047  10251434.00844  23501433.3984                   23501431.0164
  -8282648.25447  -6434483.47745  22316190.9454                   22316188.6724
 11  8 15 18 48  0.0000000  0  9G17G24G07G08G26G11G13G19G28
  -2239256.51647  -1715189.40244  23342972.4384                   23342972.7384
  -6992084.58247  -5181241.52044  22640349.1954                   22640350.1214
  -5839293.98448  -4533054.74647  20394693.8364                   20394691.9344
 -13764168.96548 -10703496.68746  20638116.1884                   20638114.6724
   2194206.83647   1736254.68043  23612176.2424                   23612175.8404
 -11871306.88747  -9234286.59045  21677960.6254                   21677959.0664
  17350519.57847  13519141.09844  23566346.7424                   23566348.7384
  13213436.08246  10298931.05144  23513032.3984                   23513030.5204
  -8348555.05547  -6485839.42645  22303649.7734                   22303647.5904
 11  8 15 18 48 30.0000000  0  9G17G24G07G08G26G11G13G19G28
  -2370869.94147  -1817745.25045  23317926.8914                   23317927.8634
  -7084948.47347  -5253602.97744  22622677.7584                   22622678.8954
  -5871440.96948  -4558104.37947  20388576.0704                   20388574.5394
 -13852131.54748 -10772038.96546  20621377.6954                   20621376.2154
   2087135.91447   1652822.80543  23591801.5634                   23591801.2424
 -11926332.46148  -9277163.63745  21667489.3984                   21667488.0904
  17422000.03147  13574839.92644  23579949.4844                   23579950.6214
  13274541.60547  10346545.72344  23524660.7584                   23524658.0864
  -8414412.44548  -6537156.86345  22291117.2034                   22291115.6644
 11  8 15 18 49  0.0000000  0  9G17G24G07G08G26G11G13G19G28
  -2502264.94147  -1920130.87144  23292923.4304                   23292923.8054
  -7177485.85247  -5325710.00044  22605068.4384                   22605069.6644
  -5903160.09848  -4582820.59447  20382540.4064                   20382538.4774
 -13939791.79748 -10840345.65646  20604696.3914                   20604694.9024
   1980539.88747   1569760.98043  23571517.0944                   23571516.7774
 -11980831.28147  -9319630.24645  21657118.7974                   21657117.1524
  17493522.80147  13630571.74643  23593559.5394                   23593561.3524
  13335796.85947  10394277.03144  23536317.0944                   23536314.8054
  -8480219.58647  -6588435.15245  22278594.7734                   22278592.6024
 11  8 15 18 49 30.0000000  0  9G17G24G07G08G26G11G13G19G28
  -2633429.41447  -2022336.87144  23267963.3444                   23267964.3794
  -7269683.82047  -5397552.54744  22587524.3834                   22587524.5124
  -5934439.62548  -4607194.27747  20376587.9694                   20376586.4264
 -14027136.99248 -10908406.84846  20588075.0234                   20588073.5704
   1874431.45347   1487079.09043  23551324.8834                   23551324.6884
 -12034791.95748  -9361677.50445  21646850.6484                   21646848.8674
  17565095.15246  13686342.20743  23607179.2664                   23607181.5594
  13397209.88347  10442131.25844  23548003.6954                   23548001.7814
  -8545966.89547  -6639666.80545  22266083.3134                   22266081.5664
 11  8 15 18 50  0.0000000  0  9G17G24G07G08G26G11G13G19G28
  -2764365.64547  -2124365.01245  23243047.3134                   23243048.0434
  -7361543.20347  -5469131.26244  22570043.3674                   22570043.8794
  -5965282.54748  -4631227.74646  20370719.0864                   20370717.1174
 -14114168.40648 -10976223.53546  20571513.5784                   20571511.9344
   1768808.94147   1404775.85543  23531225.2664                   23531225.6484
 -12088216.87148  -9403307.29345  21636683.7894                   21636682.1844
  17636710.22747  13742145.93443  23620808.1094                   23620809.3364
  13458774.05147  10490103.29744  23559719.0314                   23559716.5434
  -8611658.66848  -6690855.18445  22253582.2894                   22253580.5394
 11  8 15 18 50 30.0000000  0  9G17G24G07G08G26G11G13G19G28
  -2895071.28547  -2226213.47345  23218174.2114                   23218175.3554
  -7453060.66047  -5540443.55544  22552628.2034                   22552629.0514
  -5995687.26248  -4654919.74646  20364933.3674                   20364931.3794
 -14200883.25448 -11043793.54746  20555012.3284                   20555010.6954
   1663675.10247   1322853.41843  23511219.4694                   23511219.7704
 -12141104.13747  -9444518.14545  21626619.6954                   21626618.1374
  17708365.76647  13797981.20743  23634443.3054                   23634444.5554
  13520487.01246  10538191.27044  23571462.6174                   23571460.2934
  -8677295.56248  -6742000.79345  22241092.3444                   22241090.1134
 11  8 15 18 51  0.0000000  0  9G17G24G07G08G26G11G13G19G28
  -3025557.05947  -2327890.59045  23193343.4614                   23193344.9064
  -7544245.99247  -5611497.06244  22535275.9454                   22535277.1884
  -6025665.14848  -4678279.16046  20359228.5084                   20359226.6134
 -14287291.16448 -11111124.38746  20538569.5394                   20538567.9494
   1559019.43847   1241303.59443  23491303.1954                   23491303.9804
 -12193465.03548  -9485318.83245  21616656.1024                   21616654.4964
  17780046.21947  13853835.91443  23648083.9774                   23648085.2344
  13582333.71946  10586383.45344  23583231.8834                   23583229.0234
  -8742890.12948  -6793113.43445  22228610.0704                   22228607.7974
 11  8 15 18 51 30.0000000  0  9G17G24G07G08G26G11G13G19G28
  -3155813.44147  -2429388.98445  23168556.8754                   23168557.7424
  -7635088.19147  -5682283.16044  22517989.1024                   22517990.6054
  -6055207.25448  -4701299.00446  20353607.0084                   20353605.1454
 -14373381.60548 -11178207.84846  20522187.0004                   20522185.7464
   1454852.19147   1160134.30543  23471481.5234                   23471481.7894
 -12245290.76248  -9525702.51245  21606793.4144                   21606792.3404
  17851756.71547  13909714.02743  23661730.2344                   23661731.9694
  13644319.50046  10634684.02744  23595027.5474                   23595025.2304
  -8808435.27348  -6844187.55945  22216137.1564                   22216135.0904
 11  8 15 18 52  0.0000000  0  9G17G24G07G08G26G11G13G19G28
  -3285835.35547  -2530704.65245  23143813.6804                   23143815.5554
  -7725581.24247  -5752797.21144  22500769.0784                   22500770.0044
  -6084309.12148  -4723975.79746  20348069.0394                   20348067.0314
 -14459149.06648 -11245039.64146  20505865.9454                   20505864.6844
   1351179.05147   1079350.05944  23451752.6174                   23451753.3954
 -12296576.48848  -9565665.40645  21597034.0234                   21597032.5784
  17923497.69547  13965615.87143  23675381.6174                   23675383.5004
  13706444.99246  10683093.43444  23606849.3754                   23606847.3674
  -8873928.34848  -6895221.12545  22203674.3834                   22203672.2424
 11  8 15 18 52 30.0000000  0  9G17G24G07G08G26G11G13G19G28
  -3415606.66847  -2631825.05545  23119119.1644                   23119120.4964
  -7815708.23847  -5823026.00844  22483618.2584                   22483619.2814
  -6112955.25848  -4746297.48447  20342617.8674                   20342615.8364
 -14544576.99248 -11311606.85246  20489609.6024                   20489608.1094
   1248015.89847    998963.23844  23432121.3284                   23432121.7854
 -12347306.85548  -9605195.54745  21587381.0084                   21587379.1174
  17995280.56347  14021550.37943  23689042.1884                   23689044.0554
  13768721.68846  10731620.69144  23618700.5394                   23618698.5394
  -8939356.00047  -6946203.71145  22191222.9384                   22191221.9344
 11  8 15 18 53  0.0000000  0  9G17G24G07G08G26G11G13G19G28
  -3545136.52047  -2732757.31245  23094470.5704                   23094471.7344
  -7905477.41047  -5892975.98844  22466535.8754                   22466536.9774
  -6141155.70348  -4768271.86346  20337251.7194                   20337249.7704
 -14629673.12148 -11377915.52346  20473416.1334                   20473415.1684
   1145354.33246    918967.22744  23412585.5554                   23412586.9104
 -12397491.71548  -9644300.62945  21577830.7344                   21577829.5274
  18067091.35947  14077506.64143  23702707.6724                   23702709.5474
  13831136.50946  10780255.53444  23630577.1254                   23630575.1764
  -9004729.91048  -6997144.37545  22178783.9614                   22178781.4654
 11  8 15 18 53 30.0000000  0  9G17G24G07G08G26G11G13G19G28
  -3674427.97747  -2833503.81645  23069867.5944                   23069868.4064
  -7994890.10247  -5962648.20744  22449521.2424                   22449521.9694
  -6168914.02348  -4789901.75046  20331969.5004                   20331967.1954
 -14714439.77348 -11443967.47346  20457286.2034                   20457284.5394
   1043192.13346    839360.35244  23393145.1254                   23393145.3134
 -12447134.57848  -9682983.36745  21568384.2114                   21568382.5474
  18138922.85947  14133479.05943  23716376.6804                   23716378.4184
  13893682.44546  10828992.55944  23642479.6804                   23642478.0744
  -9070054.92648  -7048046.99645  22166352.5474                   22166350.6414
 11  8 15 18 54  0.0000000  0  9G17G24G07G08G26G11G13G19G28
  -3803470.00447  -2934055.97745  23045312.0084                   23045311.9414
  -8083934.19147  -6032033.19544  22432576.7344                   22432577.6914
  -6196219.61748  -4811178.85546  20326773.3594                   20326771.3134
 -14798865.07048 -11509753.42246  20441220.3984                   20441218.8834
    941540.55147    760151.35544  23373801.6174                   23373802.1804
 -12496224.80548  -9721235.48445  21559042.5634                   21559040.8484
  18210781.39347  14189472.49743  23730051.4614                   23730052.9304
  13956365.83646  10877836.69944  23654407.7504                   23654406.0044
  -9135322.25448  -7098904.65645  22153932.8444                   22153930.5904
 11  8 15 18 54 30.0000000  0  9G17G24G07G08G26G11G13G19G28
  -3932265.23447  -3034415.82445  23020802.7274                   23020802.9304
  -8172611.81247  -6101132.62545  22415702.3204                   22415703.0164
  -6223076.12948  -4832106.02046  20321662.8914                   20321660.8204
 -14882950.60948 -11575274.63346  20425219.3674                   20425217.5274
    840397.00846    681338.21944  23354554.9064                   23354554.6884
 -12544766.16448  -9759059.90645  21549805.0554                   21549803.7074
  18282659.45347  14245481.19543  23743729.1804                   23743730.8404
  14019179.71146  10926782.49644  23666360.5784                   23666358.9384
  -9200537.10548  -7149721.43045  22141522.4454                   22141520.4734
 11  8 15 18 55  0.0000000  0  9G17G24G07G08G26G11G13G19G28
  -4060813.46547  -3134583.22745  22996340.8754                   22996340.9184
  -8260921.52347  -6169945.36345  22398896.7814                   22398897.8164
  -6249484.02348  -4852683.62146  20316637.4454                   20316635.2074
 -14966695.83648 -11640530.65646  20409283.1484                   20409281.8484
    739762.07847    602921.42244  23335404.4144                   23335404.3364
 -12592758.85548  -9796456.80145  21540672.5474                   21540671.3484
  18354552.81346  14301501.74243  23757409.6954                   23757412.5474
  14082120.14547  10975826.93444  23678338.4304                   23678335.9884
  -9265701.89148  -7200499.16845  22129122.0634                   22129120.0204
 11  8 15 18 55 30.0000000  0  9G17G24G07G08G26G11G13G19G28
  -4189107.51247  -3234552.55945  22971927.1804                   22971927.5784
  -8348854.91847  -6238464.85944  22382164.2504                   22382164.7384
  -6275436.81647  -4872906.59846  20311698.7504                   20311696.7154
 -15050092.73848 -11705515.26646  20393413.2974                   20393411.8754
    639643.62947    524907.05944  23316352.6564                   23316352.1954
 -12640196.34848  -9833421.06645  21531645.4304                   21531643.8164
  18426464.22746  14357536.36343  23771093.7974                   23771096.8714
  14145189.92247  11024972.14144  23690340.2734                   23690338.5594
  -9330811.53148  -7251233.95745  22116732.3444                   22116730.3834
 11  8 15 18 56  0.0000000  0  9G17G24G07G08G26G11G13G19G28
  -4317143.63747  -3334320.89145  22947562.3984                   22947562.8364
  -8436407.22747  -6306687.41044  22365503.2504                   22365504.0394
  -6300931.46948  -4892772.57846  20306847.3674                   20306845.4304
 -15133136.84848 -11770224.95746  20377610.6414                   20377608.9924
    540045.39146    447298.06644  23297399.5004                   23297400.1524
 -12687075.57848  -9869950.33245  21522725.0394                   21522722.8364
  18498392.93446  14413584.47343  23784782.1884                   23784784.6094
  14208388.78146  11074217.95744  23702366.5004                   23702364.3674
  -9395864.49648  -7301924.57045  22104352.8914                   22104351.0084
 11  8 15 18 56 30.0000000  0  9G17G24G07G08G26G11G13G19G28
  -4444930.00447  -3433894.62145  22923245.2344                   22923245.8834
  -8523585.55947  -6374618.54744  22348914.0164                   22348914.6644
  -6325976.89148  -4912288.51246  20302081.6254                   20302079.5434
 -15215835.41848 -11834665.41446  20361873.4304                   20361872.0514
    440959.88347    370088.61744  23278544.2584                   23278544.0864
 -12733405.38748  -9906051.45745  21513908.6094                   21513906.7704
  18570326.16046  14469636.08243  23798470.8754                   23798473.5164
  14271704.53146  11123554.83644  23714414.7504                   23714412.8674
  -9460871.10948  -7352579.09445  22091982.9534                   22091980.8444
 11  8 15 18 57  0.0000000  0  9G17G24G07G08G26G11G13G19G28
  -4572466.03147  -3533273.27045  22898976.2504                   22898977.0164
  -8610388.35947  -6442257.06245  22332395.1724                   22332396.8874
  -6350573.23848  -4931454.52046  20297400.6954                   20297398.8444
 -15298186.88348 -11898835.39546  20346202.4454                   20346201.1454
    342387.89547    293279.27044  23259786.2114                   23259786.6024
 -12779185.85248  -9941724.53145  21505196.8674                   21505195.5394
  18642260.30546  14525688.43843  23812159.8984                   23812161.8984
  14335133.26247  11172979.78144  23726485.1254                   23726483.0044
  -9525833.45348  -7403199.09445  22079620.9774                   22079618.5944
 11  8 15 18 57 30.0000000  0  9G17G24G07G08G26G11G13G19G28
  -4699759.34447  -3632462.79345  22874752.1724                   22874753.4614
  -8696822.08647  -6509607.97344  22315947.9774                   22315948.5354
  -6374728.80948  -4950277.06246  20292804.3364                   20292802.4964
 -15380197.90248 -11962740.09446  20330596.3364                   20330594.8324
    244322.15247    216864.40643  23241125.1954                   23241124.9344
 -12824425.32048  -9976976.05545  21496587.7504                   21496586.3594
  18714182.80946  14581731.72343  23825846.3914                   23825848.0864
  14398662.83247  11222483.27344  23738574.7274                   23738571.8754
  -9590760.91848  -7453791.91445  22067265.5944                   22067263.4024
 11  8 15 18 58  0.0000000  0  9G17G24G07G08G26G11G13G19G28
  -4826802.16847  -3731457.12145  22850577.2424                   22850578.0824
  -8782877.85247  -6576664.37944  22299572.3204                   22299572.8794
  -6398436.35248  -4968750.49246  20288292.9064                   20288290.7974
 -15461859.67248 -12026372.64546  20315056.5394                   20315055.1844
    146770.88747    140850.41443  23222561.8834                   23222562.0204
 -12869116.52348 -10011800.35945  21488083.8524                   21488081.8834
  18786097.10946  14637768.61343  23839531.0164                   23839533.9264
  14462297.62946  11272068.79744  23750683.9774                   23750681.4804
  -9655648.16848  -7504353.41845  22054918.1954                   22054916.1644
 11  8 15 18 58 30.0000000  0  9G17G24G07G08G26G11G13G19G28
  -4953585.18747  -3830249.01245  22826451.2734                   22826451.7894
  -8868545.48047  -6643418.34044  22283269.8054                   22283270.8754
  -6421687.46948  -4986868.27046  20283868.5554                   20283866.6024
 -15543161.90648 -12089725.04746  20299585.2664                   20299583.7774
     49743.51247     65244.64843  23204098.4224                   23204098.3954
 -12913251.14848 -10046190.96945  21479684.9614                   21479683.3874
  18858008.42247  14693803.20343  23853216.4224                   23853218.2114
  14526042.71547  11321740.22744  23762814.3054                   23762812.1024
  -9720488.09048  -7554878.03145  22042579.5474                   22042577.5514
 11  8 15 18 59  0.0000000  0  9G17G24G07G08G26G11G13G19G28
  -5080129.68047  -3928855.03545  22802370.4064                   22802371.4184
  -8953845.24247  -6709885.63345  22267037.9614                   22267038.7194
  -6444504.09448  -5004647.48046  20279526.6564                   20279524.7854
 -15624125.18448 -12152813.32446  20284178.5864                   20284176.9494
    -46781.00847     -9969.26244  23185730.3444                   23185729.9104
 -12956851.52748 -10080165.27345  21471387.8134                   21471386.1174
  18929890.81347  14749815.23443  23866894.3594                   23866897.1094
  14589872.44147  11371477.60944  23774960.8834                   23774958.6414
  -9785304.25448  -7605384.14845  22030245.1884                   22030242.8954
 11  8 15 18 59 30.0000000  0  9G17G24G07G08G26G11G13G19G28
  -5206411.97747  -4027256.75045  22778339.9384                   22778340.7664
  -9038752.46947  -6776047.05944  22250880.2894                   22250881.3324
  -6466863.61748  -5022070.51246  20275271.7034                   20275269.6644
 -15704724.99248 -12215618.37546  20268840.7734                   20268839.5704
   -142778.73447    -84772.67243  23167462.2194                   23167462.9964
 -12999894.75848 -10113705.43745  21463197.7424                   21463195.7304
  19001763.39847  14805819.61343  23880572.0164                   23880574.4574
  14653806.29347  11421296.12144  23787127.7664                   23787124.5704
  -9850074.97348  -7655854.82045  22017920.0164                   22017917.6724
 11  8 15 19  0  0.0000000  0  9G17G24G07G08G26G11G13G19G28
  -5332430.59447  -4125453.00845  22754359.2894                   22754360.0394
  -9123264.60547  -6841900.63345  22234798.2194                   22234799.2664
  -6488765.10948  -5039136.63346  20271103.8524                   20271102.1214
 -15784959.07848 -12278138.46546  20253573.0234                   20253571.5314
   -238247.76647   -159164.13743  23149294.9144                   23149294.6914
 -13042379.91447 -10146810.75045  21455112.4304                   21455111.0514
  19073623.43446  14861814.24643  23894245.4384                   23894248.6604
  14717841.84046  11471193.89544  23799312.5474                   23799310.5044
  -9914800.99648  -7706290.68445  22005602.5474                   22005600.8284
 11  8 15 19  0 30.0000000  0  9G17G24G07G08G26G11G13G19G28
  -5458198.64147  -4223454.02345  22730426.6024                   22730427.0394
  -9207393.44947  -6907455.53545  22218788.6804                   22218789.9774
  -6510222.39148  -5055856.61346  20267021.0084                   20267018.7584
 -15864839.18748 -12340382.71146  20238372.1724                   20238370.6254
   -333200.78147   -233153.50943  23131226.3054                   23131225.9064
 -13084320.66048 -10179491.84445  21447131.4064                   21447129.9574
  19145453.62146  14917785.53542  23907915.3284                   23907918.0514
  14781962.03546  11521157.59444  23811514.8134                   23811511.9964
  -9979497.42648  -7756703.47745  21993291.4694                   21993289.4024
 11  8 15 19  1  0.0000000  0  9G17G24G07G08G26G11G13G19G28
  -5583708.94547  -4321254.18745  22706542.9064                   22706543.2934
  -9291131.26247  -6972705.72345  22202854.2194                   22202855.3054
  -6531229.33648  -5072225.68446  20263023.3914                   20263021.4964
 -15944357.34848 -12402344.92646  20223240.3134                   20223238.5354
   -427630.77347   -306735.33244  23113256.5704                   23113256.0704
 -13125711.00047 -10211744.05945  21439254.8674                   21439253.7234
  19217256.29746  14973735.44542  23921578.5864                   23921582.0234
  14846169.88347  11571189.58244  23823732.7274                   23823730.9924
 -10044159.65648  -7807089.62945  21980986.2664                   21980984.5124
 11  8 15 19  1 30.0000000  0  9G17G24G07G08G26G11G13G19G28
  -5708949.53147  -4418844.19145  22682710.0634                   22682710.3524
  -9374464.80147  -7037640.91445  22186996.3754                   22186997.3284
  -6551774.37148  -5088234.83646  20259113.7504                   20259112.0664
 -16023500.88348 -12464015.23046  20208179.9144                   20208178.3134
   -521525.31247   -379899.89544  23095389.2274                   23095389.2384
 -13166539.77347 -10243558.68445  21431485.4224                   21431484.2074
  19289039.49646  15029670.16043  23935239.2504                   23935242.1914
  14910473.38347  11621296.12144  23835969.5784                   23835967.2974
 -10108777.46148  -7857441.16045  21968690.1094                   21968687.9574
 11  8 15 19  2  0.0000000  0  9G17G24G07G08G26G11G13G19G28
  -5833934.35947  -4516234.88345  22658926.2114                   22658926.6954
  -9457406.89547  -7102271.07044  22171213.2344                   22171214.0394
  -6571872.35948  -5103895.63346  20255289.3204                   20255287.5904
 -16102282.82048 -12525403.76246  20193188.2034                   20193186.8754
   -614898.10947   -452657.88744  23077620.9694                   23077620.9264
 -13206821.83248 -10274947.29345  21423820.1724                   21423818.2194
  19360785.03946  15085575.54743  23948892.3674                   23948895.3014
  14974854.66447  11671463.26244  23848220.5944                   23848218.7664
 -10173366.78148  -7907770.48445  21956399.3204                   21956397.4924
 11  8 15 19  2 30.0000000  0  9G17G24G07G08G26G11G13G19G28
  -5958668.23047  -4613430.04745  22635189.2734                   22635190.4454
  -9539961.76247  -7166599.49645  22155503.2114                   22155504.6484
  -6591528.83648  -5119212.39546  20251548.8524                   20251546.7704
 -16180707.46548 -12586513.89146  20178264.4304                   20178263.0354
   -707753.89146   -525013.05544  23059951.1644                   23059950.9574
 -13246562.69548 -10305914.19145  21416258.0314                   21416256.2704
  19432483.27046  15141444.05543  23962535.7114                   23962539.1914
  15039304.58246  11721683.90244  23860485.7344                   23860482.8324
 -10237934.91048  -7958083.32045  21944112.4384                   21944110.7384
 11  8 15 19  3  0.0000000  0  9G17G24G07G08G26G11G13G19G28
  -6083133.55947  -4710415.93445  22611504.7664                   22611504.9844
  -9622110.57447  -7230611.53145  22139871.2974                   22139871.8594
  -6610727.76648  -5134172.63746  20247895.3444                   20247893.0594
 -16258756.02348 -12647330.96546  20163412.2894                   20163411.1334
   -800074.98446   -596951.56244  23042382.7974                   23042383.0704
 -13285746.00048 -10336446.63745  21408801.3914                   21408799.8204
  19504147.60946  15197286.12943  23976174.3984                   23976177.0474
  15103836.76647  11771968.62144  23872765.1804                   23872763.6414
 -10302466.28548  -8008367.50445  21931832.5864                   21931830.6644
 11  8 15 19  3 30.0000000  0  9G17G24G07G08G26G11G13G19G28
  -4631898.57447  -3579583.41445  22887665.7894                   22887666.4024
  -8128421.62147  -6066698.01245  22424110.5164                   22424111.5554
  -5054040.97348  -3921169.96946  20544122.9844                   20544121.1294
 -14760996.78948 -11480245.86746  20448426.4534                   20448424.7814
    683569.84847    559135.33244  23324711.1254                   23324711.6914
 -11748943.49647  -9138938.19145  21701245.4064                   21701243.2304
  21151199.46946  16480702.91043  24289597.2894                   24289600.1994
  16743873.29347  13049919.07444  24184854.1094                   24184852.1524
  -8791532.75048  -6831016.70345  22219353.5474                   22219351.9144
 11  8 15 19  4  0.0000000  0  9G17G24G07G08G26G11G13G19G28
  -4755812.24647  -3676139.43045  22864085.6804                   22864085.9734
  -8209740.29747  -6130063.16845  22408635.9224                   22408636.8914
  -5072311.63348  -3935406.87546  20540646.3524                   20540644.2624
 -14838275.27348 -11540462.88346  20433720.8674                   20433719.5744
    592333.49646    488042.11744  23307349.7114                   23307349.6524
 -11786999.62548  -9168592.31245  21694003.9774                   21694001.9574
  21222798.29346  16536493.96243  24303222.4064                   24303225.3284
  16808573.18047  13100334.51244  24197165.8364                   24197164.3594
  -8855981.68048  -6881236.63745  22207089.3754                   22207087.5634
 11  8 15 19  4 30.0000000  0  9G17G24G07G08G26G11G13G19G28
  -4879463.28547  -3772490.82845  22840555.5394                   22840556.3794
  -8290655.66047  -6193114.06645  22393238.4774                   22393239.6134
  -5090132.32048  -3949293.16046  20537255.3754                   20537253.2814
 -14915180.48448 -11600389.03946  20419086.5474                   20419085.0784
    501626.85247    417361.63344  23290089.1174                   23290089.4024
 -11824506.47747  -9197818.43445  21686866.4384                   21686864.6334
  21294344.81646  16592244.21543  24316837.7814                   24316840.2114
  16873338.08647  13150800.54744  24209491.2664                   24209488.3054
  -8920405.62548  -6931437.12145  22194830.1334                   22194827.9694
 11  8 15 19  5  0.0000000  0  9G17G24G07G08G26G11G13G19G28
  -5002835.51247  -3868624.95345  22817078.7194                   22817079.5944
  -8371150.94147  -6255837.61745  22377920.5784                   22377921.6564
  -5107488.05548  -3962817.14146  20533952.5164                   20533950.5124
 -14991695.57448 -11660011.19946  20404525.7894                   20404524.4694
    411465.90247    347106.35244  23272931.6174                   23272931.9494
 -11861449.01647  -9226604.82445  21679836.0944                   21679834.5784
  21365850.71546  16647962.87543  24330444.5164                   24330447.4144
  16938180.03947  13201326.68444  24221829.2424                   24221826.7384
  -8984790.68448  -6981607.29745  22182577.6414                   22182575.8554
 11  8 15 19  5 30.0000000  0  9G17G24G07G08G26G11G13G19G28
  -5125937.45747  -3964548.48045  22793653.0234                   22793653.6524
  -8451233.40247  -6318239.49245  22362681.4534                   22362682.4414
  -5124388.16048  -3975986.08246  20530736.7194                   20530734.8404
 -15067828.23448 -11719335.36346  20390038.3754                   20390036.5234
    321842.66047    277270.05144  23255876.7734                   23255876.9224
 -11897836.85548  -9254958.98445  21672911.7424                   21672910.4024
  21437303.36346  16703640.03943  24344042.1484                   24344044.8094
  17003086.62947  13251903.18044  24234181.5004                   24234178.7854
  -9049147.32048  -7031755.33245  22170331.2894                   22170329.5514
 11  8 15 19  6  0.0000000  0  9G17G24G07G08G26G11G13G19G28
  -5248781.39547  -4060270.97745  22770276.9534                   22770277.3284
  -8530914.53547  -6380328.64145  22347518.5554                   22347519.8444
  -5140845.56648  -3988810.05946  20527604.9614                   20527602.9104
 -15143589.59048 -11778370.19546  20375621.8444                   20375620.0864
    232744.37547    207842.82844  23238922.0234                   23238921.6604
 -11933683.39847  -9282891.35945  21666090.6484                   21666088.6764
  21508686.33246  16759262.86743  24357625.7504                   24357629.0204
  17068041.84847  13302517.56644  24246541.6024                   24246539.7624
  -9113489.49648  -7081892.09046  22158087.1174                   22158085.4774
 11  8 15 19  6 30.0000000  0  9G17G24G07G08G26G11G13G19G28
  -5371361.81247  -4155788.11745  22746950.3284                   22746950.0744
  -8610187.57847  -6442099.80545  22332433.2424                   22332434.1254
  -5156855.93748  -4001285.70746  20524558.2114                   20524556.0394
 -15218973.22348 -11837110.69546  20361276.4614                   20361275.1174
    144177.10947    138829.39544  23222068.4694                   23222068.7274
 -11968983.68047  -9310398.07845  21659373.2974                   21659371.5704
  21580000.97346  16814832.50842  24371197.6484                   24371199.8444
  17133047.26647  13353171.02744  24258912.3914                   24258909.4774
  -9177813.60948  -7132014.78145  22145846.7114                   22145844.8204
 11  8 15 19  7  0.0000000  0  9G17G24G07G08G26G11G13G19G28
  -5493676.68447  -4251098.34445  22723674.3834                   22723674.8674
  -8689049.52347  -6503550.62545  22317426.3984                   22317427.2344
  -5172417.71548  -4013411.79746  20521597.1564                   20521595.0514
 -15293975.79348 -11895554.26246  20347004.0084                   20347002.6414
     56142.89847     70231.31644  23205316.1024                   23205316.9144
 -12003736.96148  -9337478.55545  21652759.7344                   21652758.0664
  21651245.32046  16870347.34442  24384754.2814                   24384757.3054
  17198101.18047  13403862.31643  24271291.4144                   24271288.7114
  -9242119.77048  -7182123.49245  22133609.9694                   22133607.9344
 11  8 15 19  7 30.0000000  0  9G17G24G07G08G26G11G13G19G28
  -5615717.06647  -4346194.69545  22700450.6564                   22700451.1914
  -8767490.55547  -6564673.46545  22302499.7584                   22302500.5664
  -5187523.18748  -4025182.32846  20518722.1884                   20518720.6644
 -15368587.29348 -11953693.10946  20332805.9844                   20332804.7074
    -31349.21947      2055.63744  23188666.7734                   23188666.8524
 -12037935.37548  -9364126.67245  21646251.9064                   21646250.5984
  21722424.10246  16925811.05142  24398299.0474                   24398302.3674
  17263208.68447  13454595.36343  24283681.4144                   24283678.3284
  -9306400.56648  -7232212.42245  22121377.0394                   22121375.6414
 11  8 15 19  8  0.0000000  0  9G17G24G07G08G26G11G13G19G28
  -5737493.37947  -4441085.27045  22677277.4534                   22677277.4654
  -8845520.07847  -6625475.64845  22287650.7894                   22287652.2194
  -5202183.30948  -4036605.85946  20515932.7344                   20515931.0634
 -15442817.41448 -12011534.77346  20318680.5004                   20318679.1524
   -118309.55147    -65705.65244  23172118.4064                   23172118.1524
 -12071590.19948  -9390351.22345  21639847.6414                   21639845.5944
  21793523.09846  16981212.59842  24411829.0864                   24411833.2384
  17328355.66847  13505359.16843  24296078.5084                   24296075.8484
  -9370668.53547  -7282291.37145  22109147.5944                   22109146.1604
 11  8 15 19  8 30.0000000  0  9G17G24G07G08G26G11G13G19G28
  -5859000.23447  -4535765.87945  22654155.3284                   22654155.6254
  -8923131.98447  -6685952.41445  22272881.4534                   22272882.4574
  -5216394.00048  -4047679.13746  20513228.4844                   20513226.8364
 -15516660.18748 -12069074.60946  20304628.7194                   20304627.2074
   -204732.69947   -133048.38344  23155673.0084                   23155672.5234
 -12104697.29747  -9416148.96945  21633547.2584                   21633545.7544
  21864543.02346  17036552.49242  24425344.2194                   24425348.2504
  17393543.86347  13556155.07043  24308482.6334                   24308480.9024
  -9434920.34848  -7332357.71945  22096921.0164                   22096919.1914
 11  8 15 19  9  0.0000000  0  9G17G24G07G08G26G11G13G19G28
  -5980252.57047  -4630248.17245  22631081.2194                   22631082.3094
  -9000340.29747  -6746114.70745  22258189.2974                   22258190.4184
  -5230171.20748  -4058414.65646  20510606.8754                   20510605.0314
 -15590129.72348 -12126323.61746  20290647.8754                   20290646.3094
   -290633.83647   -199984.32444  23139326.6724                   23139326.8634
 -12137272.83247  -9441532.50845  21627348.5164                   21627346.7074
  21935464.59246  17091815.78643  24438840.3674                   24438844.3014
  17458754.09846  13606968.15643  24320892.3674                   24320889.0824
  -9499172.98848  -7382424.70745  22084694.1884                   22084691.9384
 11  8 15 19  9 30.0000000  0  9G17G24G07G08G26G11G13G19G28
  -6101237.16847  -4724521.82845  22608059.5314                   22608059.4614
  -9077130.71147  -6805951.34445  22243577.0944                   22243577.3554
  -5243502.20348  -4068802.48046  20508070.2734                   20508068.1844
 -15663211.03548 -12183270.10246  20276740.9694                   20276739.6994
   -375999.23847   -266502.84444  23123081.4924                   23123081.5664
 -12169304.24248  -9466492.06645  21621253.2584                   21621251.8524
  22006297.42646  17147009.95743  24452319.7974                   24452323.0554
  17523996.30946  13657806.17643  24333307.2194                   24333304.7384
  -9563414.64148  -7432483.14546  22072469.6884                   22072467.5824
 11  8 15 19 10  0.0000000  0  9G17G24G07G08G26G11G13G19G28
  -6221962.21147  -4818593.22745  22585086.1094                   22585086.5234
  -9153510.87547  -6865468.32045  22229041.9774                   22229042.8794
  -5256396.47348  -4078850.00446  20505616.2814                   20505614.6094
 -15735912.17648 -12239920.36346  20262906.7664                   20262904.8914
   -460837.69947   -332610.73044  23106937.9384                   23106937.9774
 -12200801.57048  -9491035.45345  21615259.6564                   21615258.3134
  22077028.67646  17202124.93043  24465779.3284                   24465783.3134
  17589258.19547  13708659.53143  24345726.4774                   24345723.9414
  -9627655.67648  -7482541.10246  22060244.6804                   22060243.0554
 11  8 15 19 10 30.0000000  0  9G17G24G07G08G26G11G13G19G28
  -6342422.57047  -4912458.37945  22562163.2814                   22562163.1914
  -9229474.24647  -6924660.51645  22214586.7424                   22214587.4024
  -5268849.44148  -4088553.64846  20503246.6724                   20503245.1844
 -15808226.50048 -12296269.19546  20249145.4384                   20249143.8794
   -545143.34847   -398303.44544  23090894.8754                   23090895.1214
 -12231760.21547  -9515159.09445  21609368.5084                   21609366.5554
  22147660.12946  17257162.13743  24479220.0164                   24479224.3594
  17654541.77746  13759529.77043  24358149.6724                   24358147.1454
  -9691892.41447  -7532595.71145  22048020.9304                   22048019.0904
 11  8 15 19 11  0.0000000  0  9G17G24G07G08G26G11G13G19G28
  -6462599.60247  -5006102.76245  22539294.0864                   22539294.6374
  -9305001.35247  -6983512.78145  22200214.1644                   22200214.9844
  -5280843.34848  -4097899.59046  20500964.1724                   20500962.6054
 -15880134.40648 -12352301.34446  20235461.3524                   20235460.5354
   -628898.04747   -463566.86344  23074956.6954                   23074957.2504
 -12262162.66048  -9538849.32045  21603582.8444                   21603581.1254
  22218206.51247  17312133.08243  24492645.3134                   24492649.0124
  17719861.44547  13810428.12543  24370579.2664                   24370577.1214
  -9756108.45748  -7582634.19945  22035801.0004                   22035799.0594
 11  8 15 19 11 30.0000000  0  9G17G24G07G08G26G11G13G19G28
  -6582516.05947  -5099544.08645  22516475.3674                   22516475.2774
  -9380113.81247  -7042041.95345  22185920.7734                   22185921.4064
  -5292402.20348  -4106906.53146  20498764.8364                   20498762.7234
 -15951657.89148 -12408033.94546  20221851.4454                   20221849.8484
   -712124.34447   -528418.54344  23059119.4144                   23059119.5314
 -12292032.95748  -9562124.89545  21597898.7424                   21597897.4024
  22288641.00447  17367016.84443  24506049.0234                   24506052.0904
  17785191.55147  13861334.60243  24383011.4774                   24383008.5824
  -9820327.69548  -7632675.16845  22023580.6644                   22023578.4264
 11  8 15 19 12  0.0000000  0  9G17G24G07G08G26G11G13G19G28
  -6702150.29347  -5192765.50045  22493709.3364                   22493709.2114
  -9454789.27047  -7100230.59445  22171710.7034                   22171711.1374
  -5303505.29748  -4115558.32446  20496652.0864                   20496650.3554
 -16022774.02048 -12463449.13346  20208318.6564                   20208317.1804
   -794800.65647   -592841.64144  23043386.5704                   23043386.4574
 -12321350.78948  -9584969.96145  21592319.8834                   21592318.4414
  22358981.14547  17421827.07843  24519433.6644                   24519437.9614
  17850549.71947  13912262.95744  24395448.7504                   24395446.1884
  -9884530.23448  -7682703.12545  22011362.9144                   22011360.8204
 11  8 15 19 12 30.0000000  0  9G17G24G07G08G26G11G13G19G28
  -6821520.41447  -5285781.11745  22470993.9844                   22470994.0354
  -9529045.64847  -7158092.68445  22157579.5634                   22157580.9104
  -5314171.73848  -4123869.88746  20494622.3134                   20494620.7384
 -16093500.22748 -12518560.48046  20194859.7974                   20194858.4774
   -876945.69947   -656850.76244  23027754.8444                   23027755.2304
 -12350135.60248  -9607399.70745  21586842.1884                   21586840.9264
  22429204.49646  17476546.30543  24532797.3204                   24532801.2384
  17915913.80546  13963195.89544  24407886.9614                   24407885.2664
  -9948736.59847  -7732734.05945  21999144.9924                   21999143.1524
 11  8 15 19 13  0.0000000  0  9G17G24G07G08G26G11G13G19G28
  -6940618.00447  -5378584.37145  22448330.3364                   22448330.3284
  -9602872.83647  -7215620.34445  22143530.8054                   22143532.0434
  -5324393.53548  -4131834.96146  20492677.3204                   20492675.5004
 -16163826.68048 -12573360.33246  20181476.7894                   20181475.7934
   -958550.23847   -720438.73044  23012226.1724                   23012225.9844
 -12378379.58248  -9629408.01245  21581467.6804                   21581465.6604
  22499316.13346  17531178.42643  24546138.7034                   24546143.1454
  17981289.55146  14014137.96943  24420327.7504                   24420326.1564
 -10012939.42648  -7782762.24245  21986927.5944                   21986925.6134
 11  8 15 19 13 30.0000000  0  9G17G24G07G08G26G11G13G19G28
  -7059433.89847  -5471168.11745  22425720.2424                   22425720.6414
  -9676260.86747  -7272805.79745  22129565.8674                   22129566.4304
  -5334162.93448  -4139447.52346  20490818.0944                   20490816.6724
 -16233743.75848 -12627841.18746  20168172.1724                   20168170.8054
  -1039605.42647   -783598.64144  22996801.4384                   22996801.8244
 -12406074.95348  -9650988.84045  21576197.5944                   21576195.6954
  22569320.93846  17585727.35243  24559460.4304                   24559464.7774
  18046682.21146  14065093.19144  24432772.1414                   24432770.2664
 -10077131.59048  -7832782.11346  21974712.2664                   21974711.0744
 11  8 15 19 14  0.0000000  0  9G17G24G07G08G26G11G13G19G28
  -7177994.16047  -5563552.68045  22403159.2194                   22403158.7074
  -9749234.89547  -7329668.66445  22115679.5944                   22115680.4024
  -5343506.85548  -4146728.54346  20489039.9844                   20489038.0944
 -16303276.37548 -12682022.46946  20154940.6024                   20154939.4654
  -1120137.47747   -846350.89144  22981476.9844                   22981477.2114
 -12433249.19548  -9672163.57845  21571025.8054                   21571024.8324
  22639189.32046  17640169.89143  24572757.4224                   24572760.4384
  18112062.05546  14116038.43043  24445212.4844                   24445210.9024
 -10141340.58648  -7882815.10246  21962493.6024                   21962492.1094
 11  8 15 19 14 30.0000000  0  9G17G24G07G08G26G11G13G19G28
  -7296276.23048  -5655720.47345  22380650.6644                   22380650.8094
  -9821771.33647  -7386190.54345  22101876.2194                   22101876.7504
  -5352403.79748  -4153661.28546  20487346.9694                   20487345.4964
 -16372400.73848 -12735885.62546  20141786.3284                   20141785.3204
  -1200123.86347   -908677.97344  22966256.1884                   22966256.4184
 -12459880.84048  -9692915.53145  21565958.3284                   21565956.9494
  22708940.01246  17694520.78143  24586029.1024                   24586034.2384
  18177448.47746  14166988.82443  24457655.2814                   24457653.5354
 -10205545.55948  -7932844.94545  21950275.7734                   21950273.9264
 11  8 15 19 15  0.0000000  0  9G17G24G07G08G26G11G13G19G28
  -7414285.17247  -5747675.44545  22358193.9534                   22358194.0664
  -9893875.19947  -7442375.34845  22088154.8284                   22088156.1094
  -5360860.09448  -4160250.65646  20485738.0234                   20485736.3164
 -16441121.52748 -12789434.31646  20128709.5704                   20128708.1374
  -1279570.18447   -970584.20344  22951138.0474                   22951138.0704
 -12485976.58247  -9713249.87945  21560992.8594                   21560990.7974
  22778563.46946  17748772.62542  24599277.9534                   24599283.5944
  18242832.35546  14217937.22343  24470097.8674                   24470096.3134
 -10269753.43048  -7982877.06245  21938057.7344                   21938055.6024
 11  8 15 19 15 30.0000000  0  9G17G24G07G08G26G11G13G19G28
  -7532012.52347  -5839410.98845  22335791.3204                   22335790.8284
  -9965536.62547  -7498215.40645  22074518.8524                   22074519.1134
  -5368867.98848  -4166490.62946  20484214.1024                   20484212.2074
 -16509428.91848 -12842660.87146  20115711.2274                   20115709.8914
  -1358467.93747  -1032063.00844  22936124.2034                   22936124.0824
 -12511529.23848  -9733161.06245  21556130.2734                   21556128.8134
  22848064.83246  17802929.23442  24612504.5634                   24612510.3834
  18308219.00847  14268887.75843  24482540.6254                   24482538.3484
 -10333957.62148  -8032906.30545  21925839.7894                   21925837.7854
 11  8 15 19 16  0.0000000  0  8G17G24G07G08G26G11G19G28
  -7649464.57847  -5930932.02345  22313440.8754                   22313440.9614
 -10036761.05547  -7553714.93445  22060964.9224                   22060965.1094
  -5376434.84448  -4172386.91846  20482774.3284                   20482772.6024
 -16577327.87148 -12895569.17646  20102790.6024                   20102788.8364
  -1436823.37947  -1093119.20744  22921213.5864                   22921213.3444
 -12536545.88348  -9752654.57045  21551369.8754                   21551368.8484
  18373598.75046  14319832.95343  24494981.9774                   24494979.6054
 -10398165.30148  -8082938.27045  21913621.3674                   21913619.6484
 11  8 15 19 16 30.0000000  0  8G17G24G07G08G26G11G19G28
  -7766638.71147  -6022236.49245  22291143.0394                   22291143.6884
 -10107545.28547  -7608871.45345  22047495.0634                   22047496.1334
  -5383558.89548  -4177938.18446  20481418.4694                   20481417.1484
 -16644815.06248 -12948156.60946  20089948.0784                   20089947.0314
  -1514634.16847  -1153750.98444  22906406.8524                   22906407.0704
 -12561025.53548  -9771729.64145  21546711.5704                   21546709.8754
  18438970.40246  14370771.80543  24507421.7424                   24507419.7504
 -10462375.50448  -8132972.19945  21901402.6024                   21901400.6954
 11  8 15 19 17  0.0000000  0  8G17G24G07G08G26G11G19G28
  -7883528.30147  -6113319.23445  22268900.0784                   22268899.8094
 -10177881.54747  -7663678.92645  22034110.9844                   22034111.6604
  -5390234.39548  -4183139.93046  20480148.2814                   20480146.6684
 -16711882.67648 -13000417.10546  20077185.6414                   20077183.9184
  -1591893.34047  -1213952.96944  22891705.1644                   22891705.5784
 -12584962.68748  -9790381.99245  21542156.5314                   21542154.5664
  18504337.94546  14421707.47343  24519861.2664                   24519858.5234
 -10526583.37947  -8183004.31646  21889184.5164                   21889182.6454
 11  8 15 19 17 30.0000000  0  8G17G24G07G08G26G11G19G28
  -8000117.80547  -6204168.15645  22246713.9144                   22246713.9614
 -10247753.41447  -7718124.51645  22020814.5554                   22020815.3794
  -5396447.06248  -4187981.01246  20478966.0704                   20478964.3164
 -16778514.46948 -13052338.01246  20064505.6254                   20064504.2034
  -1668586.08647  -1273713.57844  22877110.8524                   22877111.2704
 -12608343.21548  -9808600.60245  21537707.1884                   21537705.6024
  18569713.21546  14472649.14843  24532301.3914                   24532299.7974
 -10590774.82847  -8233023.64145  21876969.3204                   21876967.2504
 11  8 15 19 18  0.0000000  0  8G17G24G07G08G26G11G19G28
  -8116409.47347  -6294784.99645  22224583.7814                   22224584.1724
 -10317162.50447  -7772209.50045  22007606.4534                   22007606.8594
  -5402200.21948  -4192464.03946  20477871.1564                   20477869.8634
 -16844711.46548 -13103920.09446  20051909.2894                   20051907.6294
  -1744714.90247  -1333034.74244  22862624.1884                   22862624.6174
 -12631170.74648  -9826388.30945  21533363.5554                   21533361.4964
  18635090.39546  14523592.31343  24544742.2504                   24544740.7274
 -10654953.64547  -8283033.12145  21864756.6644                   21864754.9454
 11  8 15 19 18 30.0000000  0  8G17G24G07G08G26G11G19G28
  -8232412.33247  -6385176.79745  22202509.4694                   22202509.5474
 -10386117.10947  -7825940.33245  21994484.7034                   21994485.3484
  -5407504.02748  -4196596.92246  20476862.1024                   20476860.5084
 -16910481.88348 -13155169.79746  20039393.5634                   20039391.8054
  -1820288.71147  -1391923.43044  22848242.9614                   22848243.1134
 -12653455.69948  -9843753.24245  21529122.1174                   21529120.9184
  18700457.21546  14574527.43043  24557181.7734                   24557179.7544
 -10719130.60948  -8333041.15246  21852544.1954                   21852542.3204
 11  8 15 19 19  0.0000000  0  8G17G24G07G08G26G11G19G28
  -8348118.79747  -6475337.62145  22180491.1724                   22180491.1024
 -10454608.81247  -7879310.48845  21981450.8134                   21981451.6994
  -5412351.88748  -4200374.52346  20475939.5944                   20475938.1994
 -16975816.97748 -13206080.27746  20026960.5784                   20026958.9264
  -1895300.42247  -1450374.14144  22833969.2734                   22833968.7774
 -12675192.03948  -9860690.66845  21524986.2344                   21524984.6644
  18765818.06346  14625457.91043  24569619.6484                   24569617.1684
 -10783299.18048  -8383042.64146  21840333.1484                   21840331.1054
 11  8 15 19 19 30.0000000  0  8G17G24G07G08G26G11G19G28
  -8463528.42648  -6565267.16045  22158529.5394                   22158529.1724
 -10522636.58647  -7932319.13345  21968505.7424                   21968506.5944
  -5416744.33648  -4203797.25846  20475103.3834                   20475102.1454
 -17040715.65648 -13256650.69546  20014610.6644                   20014609.2034
  -1969749.90647  -1508386.73844  22819800.9384                   22819801.7384
 -12696380.48448  -9877201.17245  21520954.4774                   21520952.7464
  18831169.78547  14676381.26643  24582055.3364                   24582052.8404
 -10847460.91448  -8433038.81645  21828123.5944                   21828121.9844
 11  8 15 19 20  0.0000000  0  8G17G24G07G08G26G11G19G28
  -8578650.66448  -6654972.74245  22136622.8204                   22136622.4924
 -10590208.77347  -7984972.77745  21955647.6804                   21955648.0434
  -5420692.03948  -4206873.43746  20474352.7194                   20474351.4454
 -17105186.14548 -13306887.46546  20002342.4064                   20002340.9024
  -2043646.56647  -1565968.57044  22805739.8834                   22805739.9384
 -12717031.84448  -9893293.16845  21517024.3834                   21517022.6764
  18896499.92247  14727287.82043  24594486.8134                   24594485.0314
 -10911626.22348  -8483037.77046  21815913.4454                   21815911.7154
 11  8 15 19 20 30.0000000  0  8G17G24G07G08G26G11G19G28
  -8693492.28547  -6744459.68445  22114768.6644                   22114767.7774
 -10657331.53947  -8037276.21545  21942874.0784                   21942875.0554
  -5424202.80548  -4209609.14846  20473684.3134                   20473682.8954
 -17169234.00448 -13356794.91846  19990154.4924                   19990153.2344
  -2116997.71947  -1623125.33644  22791780.7734                   22791781.4304
 -12737154.34448  -9908973.07045  21513195.4224                   21513193.8134
  18961798.18447  14778169.50443  24606913.0704                   24606911.3984
 -10975803.41048  -8533045.97746  21803700.8284                   21803698.9414
 11  8 15 19 21  0.0000000  0  8G17G24G07G08G26G11G19G28
  -8808040.60548  -6833718.07045  22092970.9144                   22092970.7974
 -10723991.63047  -8089219.12845  21930189.5784                   21930189.8164
  -5427265.02048  -4211995.32446  20473101.9304                   20473100.4024
 -17232845.89548 -13406362.64146  19978049.6414                   19978047.7774
  -2189790.85247  -1679847.28144  22777928.8524                   22777929.4064
 -12756736.62148  -9924232.00445  21509469.1254                   21509467.0904
  19027074.36747  14829033.98043  24619335.1414                   24619333.2074
 -11039981.35547  -8583054.77345  21791488.2194                   21791485.9574
 11  8 15 19 21 30.0000000  0  8G17G24G07G08G26G11G19G28
  -8922314.58248  -6922762.68745  22071225.0944                   22071225.1844
 -10790206.76647  -8140815.32045  21917589.0004                   21917589.4494
  -5429898.59048  -4214047.51246  20472600.6884                   20472599.3524
 -17296039.33248 -13455604.30946  19966024.3284                   19966023.0514
  -2262045.11347  -1736149.32444  22764179.7114                   22764179.5514
 -12775799.38748  -9939086.12945  21505841.3204                   21505840.0314
  19092306.28546  14879863.98443  24631748.4774                   24631745.8594
 -11104179.98847  -8633079.69546  21779271.6094                   21779269.5664
 11  8 15 19 22  0.0000000  0  8G17G24G07G08G26G11G19G28
  -9036304.78948  -7011586.17645  22049533.5784                   22049532.8834
 -10855967.10547  -8192057.13345  21905074.9144                   21905075.6564
  -5432095.10948  -4215759.15646  20472183.1024                   20472181.6564
 -17358804.34048 -13504512.13346  19954080.6024                   19954079.1644
  -2333751.64547  -1792024.57044  22750534.1174                   22750534.1844
 -12794334.55548  -9953529.14545  21502314.4614                   21502312.8524
  19157500.00846  14930664.26243  24644154.5164                   24644152.2194
 -11168391.72747  -8683114.83245  21767052.5554                   21767050.6914
 11  8 15 19 22 30.0000000  0  7G17G24G07G08G26G11G28
  -9150005.30947  -7100183.94945  22027897.0554                   22027896.7384
 -10921265.81647  -8242939.23045  21892649.4454                   21892649.9734
  -5433849.97348  -4217126.64146  20471848.8444                   20471847.7114
 -17421133.96148 -13553080.68746  19942219.7034                   19942218.4804
  -2404904.57047  -1847468.43744  22736994.5234                   22736994.4304
 -12812337.59448  -9967557.51245  21498888.3754                   21498886.8014
 -11232611.60547  -8733156.30545  21754831.8364                   21754830.2894
 11  8 15 19 23  0.0000000  0  7G17G24G07G08G26G11G28
  -7687993.21148  -5960953.70345  22306108.6024                   22306108.5434
  -9410681.03947  -7065860.16445  22180103.7734                   22180104.5234
  -3859745.03948  -2990551.41046  20771391.2504                   20771389.5864
 -15907605.87148 -12373708.18446  20230234.4774                   20230233.5314
   -900082.98447   -674880.21544  23023352.2034                   23023352.9844
 -11254390.07448  -8753572.45345  21795356.5864                   21795354.3984
  -9721419.68448  -7555604.16845  22042402.0634                   22042400.2384
 11  8 15 19 23 30.0000000  0  7G17G24G07G08G26G11G28
  -7801123.96147  -6049107.48845  22284580.5234                   22284580.4344
  -9475064.17648  -7116028.83245  22167852.1724                   22167852.8834
  -3860629.42648  -2991240.59046  20771223.0314                   20771221.4534
 -15969071.03948 -12421603.14146  20218537.9614                   20218536.9104
   -970139.48047   -729469.71144  23010021.0234                   23010021.6884
 -11271342.78148  -8766782.37545  21792130.1564                   21792128.7154
  -9785669.47348  -7605668.94546  22030175.8444                   22030173.9574
 11  8 15 19 24  0.0000000  0  7G17G24G07G08G26G11G28
  -7913955.07448  -6137027.80545  22263109.1564                   22263109.3444
  -9538973.55547  -7165828.33245  22155690.0394                   22155690.8754
  -3861065.41848  -2991580.37946  20771139.9064                   20771138.8134
 -16030087.58248 -12469148.52346  20206926.9844                   20206925.4804
  -1039633.64847   -783621.02344  22996796.6724                   22996797.0634
 -11287757.95748  -8779573.43045  21789006.1254                   21789004.8094
  -9849921.40248  -7655735.39845  22017949.0164                   22017947.0984
 11  8 15 19 24 30.0000000  0  7G17G24G07G08G26G11G28
  -8026490.70348  -6224717.85245  22241694.5554                   22241694.4414
  -9602412.91047  -7215261.59845  22143618.6414                   22143619.0084
  -3861058.60948  -2991575.12146  20771140.9694                   20771139.8954
 -16090659.00048 -12516347.06246  20195400.5164                   20195399.3524
  -1108570.02347   -837337.69944  22983678.1024                   22983679.1054
 -11303641.26248  -8791950.04745  21785983.7344                   21785982.3134
  -9914180.98048  -7705807.81245  22005720.9534                   22005718.8594
 11  8 15 19 25  0.0000000  0  7G17G24G07G08G26G11G28
  -8138724.49247  -6312172.72345  22220337.2424                   22220337.0554
  -9665375.21947  -7264323.12145  22131637.0004                   22131637.9304
  -3860603.77748  -2991220.76246  20771228.0864                   20771226.1564
 -16150778.03148 -12563193.08246  20183960.6414                   20183959.3524
  -1176942.95347   -890615.32444  22970668.5314                   22970667.9414
 -11318987.89848  -8803908.49245  21783063.3984                   21783061.9924
  -9978442.97348  -7755882.10245  21993492.0004                   21993490.1024
 11  8 15 19 25 30.0000000  0  7G17G24G07G08G26G11G28
  -8250657.49648  -6399393.20346  22199036.5634                   22199036.5634
  -9727860.62547  -7313013.03545  22119746.8674                   22119747.4774
  -3859702.62948  -2990518.61346  20771399.3364                   20771398.2704
 -16210444.52748 -12609686.48046  20172606.2584                   20172604.8364
  -1244753.41847   -943454.65644  22957763.5554                   22957764.2974
 -11333800.25447  -8815450.60545  21780244.7664                   21780243.3754
 -10042709.69548  -7805960.09445  21981262.6644                   21981260.8634
 11  8 15 19 26  0.0000000  0  7G17G24G07G08G26G11G28
  -8362286.50448  -6486376.80946  22177795.0164                   22177794.4104
  -9789865.15647  -7361328.24245  22107946.9534                   22107948.1334
  -3858353.32048  -2989467.26646  20771656.2734                   20771655.2974
 -16269654.34448 -12655824.02346  20161338.9774                   20161338.0084
  -1311998.85947   -995853.73044  22944967.2814                   22944967.4344
 -11348076.68748  -8826575.14545  21777528.2584                   21777526.7734
 -10106978.85548  -7856039.96945  21969032.4384                   21969030.6844
 11  8 15 19 26 30.0000000  0  7G17G24G07G08G26G11G28
  -8473624.51248  -6573133.66046  22156608.0474                   22156607.4344
  -9851401.14147  -7409278.36745  22096237.7424                   22096238.3164
  -3856569.87948  -2988077.62546  20771995.4534                   20771994.5474
 -16328419.54348 -12701615.11746  20150156.4844                   20150155.0704
  -1378692.41847  -1047822.77744  22932276.4384                   22932276.3404
 -11361831.84048  -8837293.46945  21774910.6484                   21774909.0904
 -10171264.92648  -7906133.02346  21956799.4844                   21956797.6094
 11  8 15 19 27  0.0000000  0  7G17G24G07G08G26G11G28
  -8584656.88348  -6659652.36746  22135478.6334                   22135478.7234
  -9912453.53148  -7456851.65645  22084619.8134                   22084620.7074
  -3854339.23448  -2986339.52746  20772420.2194                   20772418.7664
 -16386724.49248 -12747047.57446  20139061.4694                   20139059.9774
  -1444820.41047  -1099351.10244  22919692.8364                   22919692.8874
 -11375052.76247  -8847595.51645  21772394.7974                   21772393.5864
 -10235554.40248  -7956228.75045  21944565.8444                   21944563.8524
 11  8 15 19 27 30.0000000  0  7G17G24G07G08G26G11G28
  -8695393.34848  -6745940.47746  22114406.3594                   22114406.1054
  -9973031.39547  -7504055.17245  22073091.9304                   22073092.1024
  -3851672.14848  -2984261.34046  20772927.5554                   20772926.3404
 -16444578.09848 -12792128.32446  20128052.2894                   20128050.8754
  -1510392.86347  -1150446.54744  22907214.3134                   22907214.6844
 -11387750.71147  -8857490.03945  21769978.5004                   21769977.1484
 -10299857.89848  -8006335.38745  21932329.2344                   21932327.3554
 11  8 15 19 28  0.0000000  0  7G17G24G07G08G26G11G28
  -8805827.78148  -6831993.25045  22093391.5314                   22093391.2504
 -10033127.92647  -7550883.64545  22061656.1254                   22061656.7894
  -3848563.46548  -2981839.06246  20773519.6254                   20773518.3714
 -16501973.08648 -12836851.70746  20117130.4224                   20117128.9414
  -1575404.06247  -1201104.64844  22894843.1884                   22894842.8714
 -11399921.30148  -8866973.65245  21767662.3364                   21767661.1054
 -10364170.86748  -8056449.40245  21920090.7584                   21920088.7544
 11  8 15 19 28 30.0000000  0  7G17G24G07G08G26G11G28
  -8915950.88748  -6917803.43746  22072435.5084                   22072435.3324
 -10092732.82847  -7597329.01245  22050313.3984                   22050313.8554
  -3845005.06648  -2979066.34846  20774196.7584                   20774195.4264
 -16558898.76648 -12881209.41046  20106297.7344                   20106296.7304
  -1639845.04747  -1251318.43744  22882579.9924                   22882580.9884
 -11411556.39148  -8876039.98845  21765448.7894                   21765447.0434
 -10428484.34848  -8106563.82045  21907852.4454                   21907850.5984
 11  8 15 19 29  0.0000000  0  7G17G24G07G08G26G11G28
  -9025769.45348  -7003376.31246  22051537.8364                   22051537.8204
 -10151852.61347  -7643396.35245  22039064.1954                   22039064.5274
  -3841005.10248  -2975949.55546  20774957.6884                   20774956.6374
 -16615361.60548 -12925206.44546  20095553.2974                   20095551.8834
  -1703723.54347  -1301093.90644  22870424.8674                   22870424.3404
 -11422664.74247  -8884695.87945  21763334.8914                   21763333.4774
 -10492806.74648  -8156685.18746  21895612.4064                   21895610.6254
 11  8 15 19 29 30.0000000  0  7G17G24G07G08G26G11G28
  -9135277.09448  -7088706.91045  22030699.0704                   22030698.7854
 -10210480.36347  -7689080.31245  22027907.0704                   22027907.2934
  -3836558.22748  -2972484.52046  20775803.8594                   20775802.6134
 -16671353.84448 -12968836.77346  20084898.6484                   20084897.1254
  -1767033.32447  -1350426.23044  22858377.7034                   22858377.7194
 -11433241.40647  -8892937.46945  21761322.0314                   21761320.3404
 -10557132.24648  -8206808.97746  21883371.5084                   21883369.3014
 11  8 15 19 30  0.0000000  0  7G17G24G07G08G26G11G28
  -9244474.92248  -7173796.09846  22009919.4694                   22009918.9064
 -10268616.46947  -7734381.16445  22016844.0394                   22016844.3364
  -3831666.98048  -2968673.21546  20776734.9614                   20776733.4734
 -16726875.71148 -13012100.59446  20074333.0004                   20074331.2934
  -1829776.33247  -1399316.91844  22846437.2504                   22846437.8324
 -11443289.31647  -8900767.04345  21759409.6884                   21759408.5944
 -10621463.25848  -8256937.06646  21871129.5084                   21871127.2464
 11  8 15 19 30 30.0000000  0  7G17G24G07G08G26G11G28
  -9353368.89848  -7258648.51646  21989197.5634                   21989197.3324
 -10326266.45747  -7779303.22745  22005873.5944                   22005874.4184
  -3826338.66048  -2964521.34446  20777749.1484                   20777747.5664
 -16781932.78148 -13055002.23446  20063855.8134                   20063855.0864
  -1891959.10947  -1447771.07844  22834605.0474                   22834605.1214
 -11452816.18448  -8908190.59845  21757597.0944                   21757595.7154
 -10685806.91048  -8307074.99246  21858885.6954                   21858883.3524
 11  8 15 19 31  0.0000000  0  7G17G24G07G08G26G11G28
  -9461952.91048  -7343259.41046  21968535.1804                   21968534.9534
 -10383423.73447  -7823841.34845  21994996.8674                   21994997.1644
  -3820568.12948  -2960024.88746  20778847.0944                   20778845.1414
 -16836517.60548 -13097535.89146  20053468.7424                   20053467.7304
  -1953576.15247  -1495784.38744  22822879.2814                   22822879.9454
 -11461817.48847  -8915204.62145  21755884.1174                   21755882.7814
 -10750157.94548  -8357218.65645  21846639.9224                   21846638.0864
 11  8 15 19 31 30.0000000  0  7G17G24G07G08G26G11G28
  -9570234.44548  -7427634.59846  21947929.5474                   21947929.4454
 -10440095.26247  -7868000.98045  21984212.5004                   21984213.0164
  -3814364.33648  -2955190.81646  20780027.5234                   20780026.1684
 -16890636.98048 -13139706.85546  20043170.3594                   20043168.8524
  -2014635.56647  -1543363.18744  22811260.2274                   22811260.3754
 -11470302.53947  -8921816.38345  21754269.8594                   21754267.9304
 -10814524.89548  -8407374.74246  21834391.1334                   21834389.3284
 11  8 15 19 32  0.0000000  0  7G17G24G07G08G26G11G28
  -9678207.57048  -7511769.46546  21927382.9454                   21927382.6644
 -10496274.34047  -7911776.87145  21973521.9774                   21973523.0474
  -3807722.23048  -2950015.20746  20781291.4614                   20781290.3834
 -16944283.61748 -13181509.45746  20032961.5474                   20032960.1914
  -2075131.62547  -1590502.99244  22799748.1804                   22799748.7034
 -11478266.66447  -8928022.21545  21752753.9844                   21752753.1604
 -10878902.41448  -8457539.07045  21822140.5704                   21822138.7034
 11  8 15 19 32 30.0000000  0  7G17G24G07G08G26G11G28
  -9785863.91848  -7595657.50846  21906896.3054                   21906896.0044
 -10551951.79347  -7955161.89845  21962927.0554                   21962927.8714
  -3800634.40248  -2944492.28946  20782640.3984                   20782639.0704
 -16997448.05948 -13222936.33246  20022844.6174                   20022843.4304
  -2135056.69947  -1637197.88744  22788344.9384                   22788345.4024
 -11485702.80147  -8933816.64545  21751339.3834                   21751337.5514
 -10943282.99248  -8507705.77746  21809889.3984                   21809887.6684
 11  8 15 19 33  0.0000000  0  7G17G24G07G08G26G11G28
  -9893195.89148  -7679292.77046  21886471.9614                   21886471.6954
 -10607120.21948  -7998150.28545  21952428.9304                   21952429.7504
  -3793095.22748  -2938617.66046  20784075.0234                   20784073.9104
 -17050122.21148 -13263981.15646  20012821.2274                   20012820.0314
  -2194404.36747  -1683442.84844  22777051.5314                   22777051.9344
 -11492606.35248  -8939196.06245  21750025.7424                   21750023.6414
 -11007660.39148  -8557869.99645  21797638.9384                   21797637.0124
 11  8 15 19 33 30.0000000  0  7G17G24G07G08G26G11G28
 -10000225.26648  -7762692.24646  21866105.0864                   21866104.3714
 -10661800.43047  -8040758.22745  21942023.3524                   21942024.2304
  -3785127.23848  -2932408.87946  20785591.5004                   20785589.8554
 -17102326.49648 -13304659.85946  20002887.3674                   20002886.2734
  -2253196.51247  -1729254.94144  22765863.4384                   22765863.9884
 -11498999.83248  -8944178.02745  21748809.0474                   21748807.1884
 -11072056.61348  -8608048.88746  21785384.3984                   21785382.4534
 11  8 15 19 34  0.0000000  0  7G17G24G07G08G26G11G28
 -10106949.39848  -7845853.87546  21845796.0554                   21845795.5784
 -10715989.06647  -8082983.13345  21931712.3054                   21931712.5274
  -3776729.21148  -2925865.01646  20787189.6414                   20787188.0274
 -17154057.30148 -13344969.60946  19993043.6094                   19993041.9614
  -2311431.34447  -1774632.77344  22754781.9144                   22754782.6254
 -11504882.73048  -8948762.13345  21747689.3054                   21747688.0514
 -11136470.29348  -8658241.38346  21773127.1954                   21773125.3674
 11  8 15 19 34 30.0000000  0  7G17G24G07G08G26G11G28
 -10213350.61748  -7928763.90246  21825548.4384                   21825547.9024
 -10769668.07447  -8124810.93045  21921496.6724                   21921497.5554
  -3767884.87948  -2918973.39146  20788872.9454                   20788871.2464
 -17205296.62148 -13384896.39146  19983292.4774                   19983291.7154
  -2369091.85247  -1819563.06644  22743809.8914                   22743810.2584
 -11510239.14148  -8952935.99645  21746669.7194                   21746668.0434
 -11200884.65248  -8708434.40245  21760869.5474                   21760867.6884
 11  8 15 19 35  0.0000000  0  7G17G24G07G08G26G11G28
 -10319430.63348  -8011423.61346  21805362.2664                   21805361.3284
 -10822838.45747  -8166242.40645  21911378.8594                   21911379.4454
  -3758596.76248  -2911735.95346  20790639.8834                   20790638.5274
 -17256044.68748 -13424440.37146  19973636.0704                   19973634.6484
  -2426180.19547  -1864047.53544  22732946.2274                   22732946.8014
 -11515071.89148  -8956701.80545  21745750.8754                   21745749.2154
 -11265301.41448  -8758629.30146  21748611.7814                   21748609.3954
 11  8 15 19 35 30.0000000  0  7G17G24G07G08G26G11G28
 -10425175.32048  -8093822.04346  21785239.5164                   21785239.3834
 -10875486.45347  -8207266.81645  21901360.5084                   21901361.0824
  -3748852.87148  -2904143.35946  20792494.3834                   20792493.3634
 -17306287.28148 -13463590.48046  19964074.8984                   19964073.3484
  -2482683.67647  -1908076.23844  22722194.0554                   22722194.6684
 -11519369.57048  -8960050.68445  21744932.8284                   21744931.4694
 -11329708.28948  -8808816.49246  21736355.0864                   21736353.3634
 11  8 15 19 36  0.0000000  0  7G17G24G07G08G26G11G28
 -10530586.85948  -8175960.87946  21765180.4144                   21765179.8094
 -10927613.11747  -8247885.00045  21891441.0234                   21891441.5704
  -3738655.89548  -2896197.73046  20794434.9614                   20794433.6804
 -17356025.05548 -13502347.20746  19954610.1884                   19954609.0394
  -2538604.53147  -1951650.97744  22711552.0554                   22711552.2344
 -11523135.51248  -8962985.22345  21744216.0394                   21744214.4964
 -11394107.47748  -8858997.69946  21724100.6484                   21724098.4264
 11  8 15 19 36 30.0000000  0  7G17G24G07G08G26G11G28
 -10635641.99648  -8257821.99646  21745188.9064                   21745188.2034
 -10979195.16847  -8288078.80545  21881625.5394                   21881625.9844
  -3727984.03948  -2887882.05946  20796465.5394                   20796464.3054
 -17405234.40248 -13540692.18746  19945245.7344                   19945244.2584
  -2593920.75447  -1994754.55944  22701025.7344                   22701026.8094
 -11526348.64548  -8965489.00845  21743604.8754                   21743603.5824
 -11458476.98848  -8909155.77746  21711851.4224                   21711849.5164
 11  8 15 19 37  0.0000000  0  7G17G24G07G08G26G11G28
 -10740352.25048  -8339414.36746  21725263.4224                   21725263.2274
 -11030242.98047  -8327856.31645  21871911.3054                   21871911.6294
  -3716849.96548  -2879206.20746  20798584.5474                   20798583.0394
 -17453925.09848 -13578633.01646  19935980.2344                   19935979.1644
  -2648643.92647  -2037396.01644  22690612.9304                   22690613.0594
 -11529021.71147  -8967571.95345  21743096.1724                   21743094.6684
 -11522828.19148  -8959299.59446  21699605.8204                   21699603.9184
 11  8 15 19 37 30.0000000  0  7G17G24G07G08G26G11G28
 -10844726.42247  -8420744.87146  21705401.6024                   21705401.0704
 -11080765.39147  -8367224.43445  21862297.1094                   21862298.1684
  -3705264.07448  -2870178.29746  20800789.3444                   20800788.2234
 -17502105.58648 -13616176.28546  19926811.8444                   19926810.7934
  -2702784.13347  -2079583.22744  22680310.5394                   22680310.7194
 -11531165.50447  -8969242.46545  21742687.9144                   21742686.8244
 -11587171.16048  -9009436.99646  21687361.7344                   21687360.0204
 11  8 15 19 38  0.0000000  0  7G17G24G07G08G26G11G28
 -10948743.32047  -8501796.96546  21685607.9304                   21685607.3554
 -11130740.69147  -8406166.22345  21852786.9694                   21852787.6994
  -3693206.22747  -2860782.63346  20803084.3674                   20803082.7854
 -17549753.73848 -13653304.73446  19917744.9144                   19917743.5124
  -2756320.89847  -2121300.21944  22670122.6024                   22670122.7704
 -11532760.79347  -8970485.57045  21742384.5004                   21742383.4064
 -11651485.15247  -9059551.80146  21675122.9304                   21675121.1684
 11  8 15 19 38 30.0000000  0  7G17G24G07G08G26G11G28
 -11052408.21947  -8582574.78946  21665881.1174                   21665880.6454
 -11180173.68047  -8444685.44545  21843380.4224                   21843381.1024
  -3680683.08248  -2851024.39146  20805466.7424                   20805465.7774
 -17596873.78948 -13690021.69946  19908778.0394                   19908776.8204
  -2809260.29347  -2162551.74644  22660048.9534                   22660048.7544
 -11533814.50448  -8971306.69545  21742183.9614                   21742182.4574
 -11715776.10248  -9109648.68046  21662889.1484                   21662887.3834
 11  8 15 19 39  0.0000000  0  7G17G24G07G08G26G11G28
 -11155717.60247  -8663075.59446  21646221.6884                   21646221.2344
 -11229060.57047  -8482779.12145  21834077.5314                   21834078.0474
  -3667692.63748  -2840902.03146  20807938.7664                   20807937.7934
 -17643461.26648 -13726323.64846  19899912.8834                   19899912.0164
  -2861599.64147  -2203335.69144  22650088.8364                   22650088.7544
 -11534325.00448  -8971704.52045  21742086.5164                   21742085.1764
 -11780041.37548  -9159725.53146  21650659.8674                   21650658.0004
 11  8 15 19 39 30.0000000  0  7G17G24G07G08G26G11G28
 -11258667.48048  -8743296.25446  21626631.1644                   21626630.5704
 -11277396.98447  -8520443.87545  21824879.4224                   21824880.1644
  -3654232.20348  -2830413.43446  20810500.3444                   20810499.3594
 -17689511.76248 -13762207.18046  19891149.6884                   19891148.8324
  -2913335.89547  -2243649.69944  22640244.0164                   22640244.4924
 -11534290.22748  -8971677.46945  21742093.4694                   21742092.1684
 -11844277.23048  -9209779.46546  21638436.2734                   21638434.6054
 11  8 15 19 40  0.0000000  0  7G17G24G07G08G26G11G28
 -11361259.68447  -8823238.21546  21607108.5634                   21607108.0204
 -11325184.36347  -8557680.78945  21815786.1174                   21815786.3954
  -3640304.75848  -2819560.94546  20813150.6564                   20813149.5514
 -17735026.09048 -13797672.92646  19882488.6174                   19882487.6724
  -2964471.57447  -2283495.73444  22630512.7504                   22630513.1884
 -11533713.93448  -8971228.44545  21742202.9844                   21742201.9964
 -11908486.19548  -9259812.44146  21626217.5474                   21626215.5394
 11  8 15 19 40 30.0000000  0  7G17G24G07G08G26G11G28
 -11463490.04347  -8902898.21946  21587654.7894                   21587654.5704
 -11372418.01247  -8594486.23845  21806797.5314                   21806797.8554
  -3625907.49647  -2808342.35946  20815890.7814                   20815889.5554
 -17779999.12548 -13832716.87146  19873930.4694                   19873929.7934
  -3015003.53547  -2322871.33644  22620897.1334                   22620897.6684
 -11532593.35548  -8970355.30945  21742416.4384                   21742415.0664
 -11972664.72348  -9309821.69546  21614004.7344                   21614003.1844
 11  8 15 19 41  0.0000000  0  7G17G24G07G08G26G11G28
 -11565363.42248  -8982280.05946  21568269.0554                   21568268.2074
 -11419102.53547  -8630863.79345  21797914.1024                   21797914.3594
  -3611046.36748  -2796762.35246  20818718.5394                   20818717.6644
 -17824434.88748 -13867342.17246  19865474.8594                   19865473.6804
  -3064937.23847  -2361780.75844  22611394.8754                   22611395.3244
 -11530935.37948  -8969063.43445  21742732.1094                   21742731.0204
 -12036818.09448  -9359811.34846  21601797.0004                   21601794.8484
 11  8 15 19 41 30.0000000  0  7G17G24G07G08G26G11G28
 -10091460.55947  -7833784.30146  21848743.0944                   21848742.5124
  -9889820.48847  -7439215.46145  22088926.4844                   22088926.9534
  -2020307.86748  -1557225.93446  21121426.1254                   21121425.3284
 -16292915.44548 -12673950.42646  20156913.2814                   20156912.4804
  -1538856.29347  -1172626.83244  22901798.3834                   22901798.7544
  -9953326.25848  -7739757.66445  22042941.0634                   22042939.1914
 -10525528.89148  -8182183.41446  21889385.5864                   21889384.2274
 11  8 15 19 42  0.0000000  0  7G17G24G07G08G26G11G28
 -10192627.59847  -7912615.75046  21829491.7504                   21829491.2704
  -9935413.71947  -7474742.67645  22080250.2584                   22080251.7934
  -2004531.43448  -1544932.68046  21124428.4224                   21124427.3794
 -16336282.15248 -12707742.69146  20148661.0554                   20148659.9844
  -1587604.30947  -1210612.36744  22892522.2034                   22892522.9064
  -9950606.93748  -7737638.75845  22043459.1564                   22043457.1484
 -10589640.96148  -8232140.89146  21877185.6254                   21877183.7074
 11  8 15 19 42 30.0000000  0  7G17G24G07G08G26G11G28
 -10293447.31247  -7991176.53546  21810306.2194                   21810305.6604
  -9980466.43047  -7509848.68445  22071677.2504                   22071677.7974
  -1988305.02048  -1532288.79346  21127516.1254                   21127515.2234
 -16379118.93048 -12741122.03146  20140509.4304                   20140508.0044
  -1635766.39847  -1248141.32844  22883357.6174                   22883357.7934
  -9947365.61748  -7735113.10245  22044075.2584                   22044074.0944
 -10653738.70748  -8282087.19946  21864988.0234                   21864986.4844
 11  8 15 19 43  0.0000000  0  7G17G24G07G08G26G11G28
 -10393922.23447  -8069468.66446  21791186.9064                   21791186.2704
 -10024980.80947  -7544535.23045  22063206.1644                   22063207.0704
  -1971632.46147  -1519297.26646  21130688.6884                   21130687.9304
 -16421427.22348 -12774089.55946  20132458.6094                   20132457.3284
  -1683346.22347  -1285216.55944  22874303.1174                   22874304.2974
  -9943606.47748  -7732183.94945  22044791.2894                   22044789.3754
 -10717825.25448  -8332024.78546  21852792.7664                   21852791.2894
 11  8 15 19 43 30.0000000  0  7G17G24G07G08G26G11G28
 -10494043.41447  -8147485.15246  21772134.2194                   21772133.7584
 -10068947.82447  -7578795.25445  22054839.7584                   22054840.2624
  -1954506.25848  -1505952.25446  21133947.8444                   21133947.2974
 -16463197.26248 -12806637.67646  20124510.2034                   20124508.5164
  -1730335.93447  -1321831.97744  22865361.4144                   22865361.6604
  -9939322.60248  -7728845.89845  22045606.1094                   22045604.6644
 -10781892.39848  -8381947.25046  21840601.4304                   21840599.5084
 11  8 15 19 44  0.0000000  0  7G17G24G07G08G26G11G28
 -10593810.93447  -8225226.05146  21753148.9384                   21753148.3714
 -10112367.26647  -7612628.59445  22046577.2034                   22046577.8284
  -1936927.86747  -1492254.87946  21137293.1024                   21137292.3554
 -16504428.55148 -12838765.98446  20116663.9064                   20116662.9884
  -1776736.48047  -1357988.30544  22856531.6414                   22856532.4734
  -9934516.09448  -7725100.61345  22046520.9384                   22046519.4494
 -10845940.13748  -8431854.60246  21828413.4064                   21828411.5044
 11  8 15 19 44 30.0000000  0  7G17G24G07G08G26G11G28
 -10693230.38747  -8302695.74246  21734229.8204                   21734229.5944
 -10155244.39147  -7646039.35945  22038417.8594                   22038418.9654
  -1918904.05148  -1478210.42646  21140722.9614                   21140721.6844
 -16545125.89548 -12870478.24246  20108919.6334                   20108918.4614
  -1822554.36747  -1393690.62144  22847812.6254                   22847813.9804
  -9929194.34048  -7720953.83245  22047533.7584                   22047532.3094
 -10909974.49248  -8481751.51646  21816228.3284                   21816226.4654
 11  8 15 19 45  0.0000000  0  7G17G24G07G08G26G11G28
 -10792309.90647  -8379900.53146  21715375.4844                   21715375.2194
 -10197587.39847  -7679033.91845  22030360.7114                   22030361.2734
  -1900444.85247  -1463826.70746  21144235.5864                   21144234.8984
 -16585296.85948 -12901780.32446  20101274.8134                   20101274.1024
  -1867799.11747  -1428946.32844  22839203.3524                   22839203.9694
  -9923367.48848  -7716413.45345  22048642.4064                   22048641.4224
 -10974004.19948  -8531644.81246  21804044.0314                   21804041.7774
 11  8 15 19 45 30.0000000  0  7G17G24G07G08G26G11G28
 -10891041.80947  -8456834.46146  21696587.9534                   21696587.3014
 -10239387.75847  -7711605.62945  22022406.2034                   22022406.5004
  -1881543.40648  -1449098.37946  21147832.6954                   21147831.5354
 -16624932.39148 -12932665.19146  20093733.0084                   20093731.5594
  -1912463.46547  -1463749.77744  22830703.7734                   22830704.5824
  -9917029.55948  -7711474.85245  22049848.7974                   22049847.2344
 -11038021.62148  -8581528.53146  21791861.5944                   21791859.9494
 11  8 15 19 46  0.0000000  0  7G17G24G07G08G26G11G28
 -10989425.78547  -8533497.28146  21677865.6484                   21677865.1414
 -10280645.03547  -7743754.17245  22014555.3674                   22014556.0594
  -1862201.01248  -1434026.45746  21151513.4534                   21151512.5514
 -16664031.63748 -12963132.17246  20086292.4454                   20086291.4884
  -1956548.24647  -1498101.61744  22822314.4064                   22822315.3914
  -9910181.89548  -7706139.04745  22051151.8524                   22051150.2464
 -11102026.56248  -8631402.53946  21779681.9694                   21779680.7114
 11  8 15 19 46 30.0000000  0  7G17G24G07G08G26G11G28
 -11087471.82847  -8609896.77046  21659208.4144                   21659207.8834
 -10321369.24647  -7775487.33245  22006805.5314                   22006805.9144
  -1842429.20748  -1418619.91846  21155275.8984                   21155275.0124
 -16702603.91448 -12993188.52346  20078952.6414                   20078951.1994
  -2000064.37947  -1532010.36344  22814033.7664                   22814035.1214
  -9902836.80948  -7700415.63745  22052549.3914                   22052548.3634
 -11166029.51248  -8681274.98046  21767502.2584                   21767501.0554
 11  8 15 19 47  0.0000000  0  7G17G24G07G08G26G11G28
 -11185170.73047  -8686025.76246  21640617.3834                   21640616.5164
 -10361550.76248  -7806797.62945  21999159.3284                   21999160.4964
  -1822219.80947  -1402872.40646  21159121.8284                   21159120.7664
 -16740639.18448 -13022826.43046  20071714.7194                   20071713.6484
  -2043004.13747  -1565469.96945  22805862.8674                   22805863.8094
  -9894986.95748  -7694298.91445  22054043.0864                   22054041.7664
 -11230021.33648  -8731138.76246  21755324.9614                   21755323.9454
 11  8 15 19 47 30.0000000  0  7G17G24G07G08G26G11G28
 -11282536.03947  -8761894.82046  21622088.5084                   21622088.2704
 -10401202.78147  -7837695.33245  21991613.7504                   21991614.5234
  -1801587.89548  -1386795.63746  21163047.7344                   21163046.8794
 -16778150.75448 -13052056.25846  20064577.1724                   20064575.6414
  -2085381.94947  -1598491.70744  22797798.7734                   22797799.5164
  -9886647.92248  -7687801.00045  22055630.3674                   22055629.0164
 -11294015.93748  -8781004.68446  21743147.5314                   21743146.2074
 11  8 15 19 48  0.0000000  0  7G17G24G07G08G26G11G28
 -11379552.71947  -8837492.21146  21603626.9384                   21603626.5744
 -10440310.59447  -7868168.96145  21984172.3134                   21984172.0664
  -1780520.11348  -1370379.27046  21167056.6254                   21167056.4804
 -16815122.92648 -13080865.78546  20057540.7584                   20057539.7704
  -2127184.05147  -1631064.83244  22789844.4924                   22789844.8874
  -9877806.91448  -7680911.94145  22057312.4304                   22057310.9384
 -11357998.54748  -8830861.28146  21730972.1024                   21730970.7194
 11  8 15 19 48 30.0000000  0  7G17G24G07G08G26G11G28
 -11476225.05147  -8912821.27346  21585231.1094                   21585230.1524
 -10478878.18047  -7898221.63345  21976832.8594                   21976833.8054
  -1759022.02347  -1353627.58246  21171147.9224                   21171147.1954
 -16851558.63748 -13109257.27346  20050607.1414                   20050606.3164
  -2168415.77747  -1663193.52044  22781998.3054                   22781998.7034
  -9868469.75848  -7673636.28145  22059089.7814                   22059088.2344
 -11421973.60247  -8880711.98446  21718797.7894                   21718796.5084
 11  8 15 19 49  0.0000000  0  7G17G24G07G08G26G11G28
 -11572559.38347  -8987886.96546  21566899.3054                   21566898.7114
 -10516911.44147  -7927857.95345  21969595.3284                   21969596.0474
  -1737100.98448  -1336546.32446  21175319.5554                   21175318.4694
 -16887463.34048 -13137235.00846  20043775.1334                   20043773.8444
  -2209084.09847  -1694883.18445  22774259.3984                   22774259.9024
  -9858644.18448  -7665980.02345  22060959.3524                   22060957.7464
 -11485947.16847  -8930561.54346  21706624.2424                   21706622.0904
 11  8 15 19 49 30.0000000  0  7G17G24G07G08G26G11G28
 -11668550.91847  -9062685.53946  21548632.7894                   21548631.8014
 -10554405.47747  -7957074.09845  21962460.3134                   21962460.7424
  -1714753.85547  -1319133.04746  21179571.9144                   21179571.4734
 -16922832.22748 -13164795.20746  20037044.3284                   20037043.4804
  -2249185.58647  -1726131.14544  22766627.7344                   22766628.9924
  -9848327.92647  -7657941.41845  22062922.3984                   22062920.7424
 -11549914.90248  -8980406.53946  21694451.8914                   21694449.8714
 11  8 15 19 50  0.0000000  0  7G17G24G07G08G26G11G28
 -11764212.79747  -9137227.25046  21530428.6024                   21530428.5744
 -10591373.50447  -7985880.36345  21955425.6254                   21955426.2424
  -1691995.59047  -1301399.40646  21183902.9844                   21183902.1174
 -16957677.60548 -13191947.49246  20030413.8754                   20030412.6134
  -2288734.88347  -1756948.83244  22759102.4614                   22759103.5744
  -9837536.25047  -7649532.34845  22064975.6334                   22064974.4884
 -11613890.25847  -9030257.49246  21682277.7664                   21682275.6294
 11  8 15 19 50 30.0000000  0  7G17G24G07G08G26G11G28
 -11859545.31247  -9211512.30546  21512287.3834                   21512287.0784
 -10627815.63347  -8014276.83245  21948490.7894                   21948491.0744
  -1668827.30948  -1283346.28146  21188311.7974                   21188310.8954
 -16991998.61748 -13218691.17246  20023882.4614                   20023881.6334
  -2327732.98847  -1787337.03144  22751681.3364                   22751681.9384
  -9826271.27347  -7640754.50045  22067119.6254                   22067118.6524
 -11677873.50447  -9080114.57846  21670102.2894                   21670100.0784
 11  8 15 19 51  0.0000000  0  7G17G24G07G08G26G11G28
 -11954533.15647  -9285528.78146  21494211.7194                   21494211.2934
 -10663716.55147  -8042251.57845  21941659.2664                   21941659.8054
  -1645235.35547  -1264963.00446  21192800.8754                   21192800.4804
 -17025779.89148 -13245014.27046  20017454.5864                   20017453.7344
  -2366165.99247  -1817284.89144  22744367.9304                   22744368.8204
  -9814519.86748  -7631597.60545  22069355.5474                   22069354.3914
 -11741849.18748  -9129965.78146  21657927.9924                   21657925.9024
 11  8 15 19 51 30.0000000  0  7G17G24G07G08G26G11G28
 -12049185.05547  -9359283.50046  21476200.2194                   21476199.7344
 -10699084.68048  -8069811.16445  21934928.7034                   21934929.5744
  -1621229.90648  -1246257.54346  21197369.3834                   21197368.6484
 -17059029.29748 -13270922.94146  20011127.0554                   20011126.4384
  -2404043.55947  -1846799.93045  22737160.0634                   22737160.8324
  -9802292.27047  -7622069.66445  22071682.3754                   22071681.5824
 -11805825.85548  -9179817.74246  21645753.5784                   21645751.7114
 11  8 15 19 52  0.0000000  0  7G17G24G07G08G26G11G28
 -12143491.80147  -9432769.25846  21458254.1094                   21458253.3364
 -10733910.71548  -8096948.33245  21928301.4844                   21928302.2504
  -1596803.32448  -1227223.92246  21202017.8594                   21202017.0084
 -17091737.00448 -13296409.50846  20004903.0164                   20004902.1844
  -2441357.93747  -1875876.12144  22730059.2894                   22730060.2234
  -9789581.28947  -7612165.03145  22074101.4304                   22074100.5164
 -11869794.82047  -9229663.70746  21633580.7894                   21633578.8634
 11  8 15 19 52 30.0000000  0  7G17G24G07G08G26G11G28
 -12237466.07848  -9505995.95346  21440371.7584                   21440370.8914
 -10768207.35947  -8123673.00445  21921775.3834                   21921775.9924
  -1571969.40647  -1207872.89846  21206743.4614                   21206742.6374
 -17123914.64148 -13321483.02346  19998779.9454                   19998778.7664
  -2478122.82047  -1904524.14144  22723063.5164                   22723063.8874
  -9776401.54747  -7601895.14145  22076609.7274                   22076608.3914
 -11933768.30148  -9279513.18446  21621406.9224                   21621405.1294
 11  8 15 19 53  0.0000000  0  7G17G24G07G08G26G11G28
 -12331098.03948  -9578955.90646  21422554.1174                   21422553.2154
 -10801964.66847  -8149977.40245  21915351.2894                   21915352.0514
  -1546719.75047  -1188197.91446  21211548.2734                   21211547.4774
 -17155551.74248 -13346135.35246  19992759.6724                   19992758.6024
  -2514329.47747  -1932737.19944  22716173.4534                   22716173.7814
  -9762745.57447  -7591254.16045  22079208.1414                   22079206.8714
 -11997736.23448  -9329358.34046  21609234.0864                   21609232.4734
 11  8 15 19 53 30.0000000  0  7G17G24G07G08G26G11G28
 -12424404.53947  -9651662.26246  21404797.9614                   21404797.9264
 -10835199.37547  -8175874.59445  21909027.2424                   21909027.7074
  -1521073.02048  -1168213.52346  21216428.8054                   21216428.1334
 -17186664.71148 -13370379.26246  19986838.9774                   19986838.2274
  -2549996.15647  -1960529.46144  22709386.2814                   22709386.9344
  -9748632.13347  -7580256.71545  22081893.6884                   22081893.2504
 -12061715.71548  -9379212.49646  21597059.3834                   21597057.8364
 11  8 15 19 54  0.0000000  0  7G17G24G07G08G26G11G28
 -12517376.64847  -9724108.04346  21387106.2274                   21387105.8094
 -10867902.51247  -8201357.57845  21902803.4064                   21902804.8524
  -1495021.31248  -1147913.56246  21221386.2344                   21221385.2664
 -17217244.40648 -13394207.63746  19981020.2034                   19981019.1524
  -2585115.23847  -1987895.03945  22702703.4774                   22702704.0474
  -9734054.25847  -7568897.36745  22084667.7584                   22084666.8094
 -12125697.55548  -9429068.48846  21584884.1024                   21584882.1644
 11  8 15 19 54 30.0000000  0  7G17G24G07G08G26G11G28
 -12610010.44547  -9796290.20346  21369478.7814                   21369478.1644
 -10900070.31247  -8226423.42245  21896682.6484                   21896683.4964
  -1468562.32047  -1127296.24646  21226421.4614                   21226420.6564
 -17247286.18748 -13417616.85546  19975302.9614                   19975302.7034
  -2619683.96147  -2014831.77044  22696125.7344                   22696125.8404
  -9719010.00847  -7557174.62145  22087530.6484                   22087530.1454
 -12189678.39147  -9478923.69946  21572709.0554                   21572707.1414
 11  8 15 19 55  0.0000000  0  7G17G24G07G08G26G11G28
 -12702301.98847  -9868205.67646  21351916.0554                   21351915.7034
 -10931698.99647  -8251069.15245  21890663.9614                   21890664.3874
  -1441694.11348  -1106360.06646  21231534.2584                   21231533.9304
 -17276785.28548 -13440603.19946  19969689.4454                   19969688.9964
  -2653700.02747  -2041337.86744  22689651.9224                   22689652.8874
  -9703497.46947  -7545086.97345  22090482.6644                   22090481.6844
 -12253653.82047  -9528774.70746  21560535.2034                   21560533.0784
 11  8 15 19 55 30.0000000  0  7G17G24G07G08G26G11G28
 -12794255.89847  -9939858.05546  21334418.1484                   21334417.5204
 -10962792.59447  -8275297.93745  21884746.4774                   21884747.5824
  -1414421.86348  -1085109.05146  21236724.2034                   21236723.2774
 -17305745.64848 -13463169.75846  19964178.7504                   19964178.0394
  -2687168.84047  -2067417.51644  22683283.2664                   22683284.9614
  -9687523.12147  -7532639.48445  22093522.9064                   22093521.2074
 -12317627.89147  -9578624.64146  21548361.1484                   21548359.3834
 11  8 15 19 56  0.0000000  0  7G17G24G07G08G26G11G28
 -12885869.39547 -10011245.18746  21316984.2274                   21316983.6524
 -10993348.25447  -8299107.55545  21878932.7034                   21878933.0664
  -1386744.61748  -1063542.44546  21241990.9224                   21241990.3594
 -17334163.80148 -13485313.81246  19958770.9614                   19958770.4104
  -2720088.71547  -2093069.43745  22677019.1174                   22677020.1914
  -9671085.79347  -7519831.22745  22096650.8984                   22096649.6844
 -12381597.67247  -9628471.23046  21536188.0784                   21536186.4224
 11  8 15 19 56 30.0000000  0  7G17G24G07G08G26G11G28
 -12977148.35248 -10082371.62946  21299614.5314                   21299614.0864
 -11023372.16047  -8322502.81645  21873219.0394                   21873219.9774
  -1358669.63347  -1041665.91446  21247333.6024                   21247332.7464
 -17362045.33248 -13507039.72346  19953465.6174                   19953464.4964
  -2752467.26647  -2118299.53944  22670857.9614                   22670858.5744
  -9654193.75847  -7506668.64845  22099865.3204                   22099864.1294
 -12445569.01247  -9678319.05146  21524014.8914                   21524012.9494
 11  8 15 19 57  0.0000000  0  7G17G24G07G08G26G11G28
 -13068088.85248 -10153234.34446  21282309.0474                   21282308.5394
 -11052860.80947  -8345481.00045  21867607.3054                   21867608.2034
  -1330194.92648  -1019477.92646  21252751.8594                   21252751.4414
 -17389385.91048 -13528344.10246  19948262.6414                   19948261.6724
  -2784302.10947  -2143105.99644  22664799.4534                   22664800.6644
  -9636845.60547  -7493150.63745  22103166.4844                   22103165.5434
 -12509538.03548  -9728165.04346  21511841.5314                   21511840.0044
 11  8 15 19 57 30.0000000  0  7G17G24G07G08G26G11G28
 -13158703.97748 -10223843.50446  21265065.6884                   21265064.9494
 -11081826.94547  -8368052.03945  21862095.6094                   21862095.9064
  -1301334.50448   -996989.37546  21258244.3674                   21258243.6174
 -17416198.06248 -13549236.72746  19943160.5944                   19943159.3134
  -2815607.19147  -2167499.62144  22658842.4064                   22658843.7464
  -9619055.91047  -7479288.58245  22106551.7584                   22106550.5394
 -12573517.39848  -9778019.10546  21499666.8594                   21499665.2034
 11  8 15 19 58  0.0000000  0  7G17G24G07G08G26G11G28
 -13248966.08248 -10294177.59846  21247889.2664                   21247888.6954
 -11110242.98447  -8390194.43045  21856687.6094                   21856688.6604
  -1272062.10548   -974179.80146  21263814.3284                   21263814.1884
 -17442453.17248 -13569695.29346  19938164.3134                   19938163.5004
  -2846356.29347  -2191460.03944  22652991.4614                   22652992.5554
  -9600799.01247  -7465062.46145  22110025.7274                   22110025.2464
 -12637478.87548  -9827859.23446  21487495.3834                   21487493.7854
 11  8 15 19 58 30.0000000  0  7G17G24G07G08G26G11G28
 -13338901.28948 -10364256.95746  21230775.4454                   21230775.0164
 -11138135.02747  -8411928.48845  21851380.2194                   21851380.8134
  -1242405.58248   -951070.91046  21269458.0314                   21269457.7664
 -17468176.72748 -13589739.65646  19933269.3914                   19933268.6684
  -2876576.92647  -2215008.65244  22647241.0864                   22647241.4304
  -9582103.07447  -7450494.25045  22113583.7974                   22113582.5124
 -12701448.26648  -9877705.52046  21475322.3834                   21475320.5904
 11  8 15 19 59  0.0000000  0  7G17G24G07G08G26G11G28
 -13428485.14848 -10434062.55146  21213727.9144                   21213727.4534
 -11165478.80147  -8433235.35545  21846176.9144                   21846178.1214
  -1212342.02048   -927644.85246  21275178.9844                   21275178.4264
 -17493344.33648 -13609350.82446  19928480.1954                   19928479.2624
  -2906245.92647  -2238127.43044  22641594.1174                   22641596.0274
  -9562945.68447  -7435566.44945  22117229.5784                   22117228.1414
 -12765401.10248  -9927538.91446  21463152.8054                   21463150.7344
 11  8 15 19 59 30.0000000  0  7G17G24G07G08G26G11G28
 -13517737.52748 -10503609.83646  21196743.8524                   21196743.2114
 -11192294.54747  -8454130.76245  21841074.1644                   21841074.6024
  -1181892.70348   -903918.20746  21280973.4774                   21280972.8364
 -17517975.49248 -13628543.97746  19923793.3054                   19923792.8134
  -2935384.94546  -2260833.21144  22636049.6804                   22636051.0434
  -9543348.90247  -7420296.28144  22120958.3134                   22120957.2234
 -12829356.85548  -9977374.58246  21450982.3834                   21450980.6764
 11  8 15 20  0  0.0000000  0  7G17G24G07G08G26G11G28
 -12031241.42648  -9345301.17246  21479614.5864                   21479613.9024
  -9643167.27747  -7247018.62945  22135862.9454                   22135863.9924
    424353.82448    347702.37546  21586632.2664                   21586631.5904
 -15966654.75048 -12419722.66046  20218999.7194                   20218999.3714
  -1388580.33247  -1055530.98044  22930396.8834                   22930397.8554
  -7947901.01247  -6177090.17645  22424561.9064                   22424561.0434
 -11317899.03948  -8799615.25446  21738603.3284                   21738601.6134
 11  8 15 20  0 30.0000000  0  7G17G24G07G08G26G11G28
 -12119831.52748  -9414332.40246  21462756.6484                   21462755.7114
  -9668927.39147  -7267091.46145  22130961.2584                   22130961.7234
    455569.71148    372026.35246  21592572.0234                   21592571.8364
 -15990211.45748 -12438078.57446  20214516.7504                   20214516.4414
  -1416663.52747  -1077414.06644  22925053.0234                   22925053.3164
  -7927431.69147  -6161140.09845  22428457.6954                   22428456.2704
 -11381859.85948  -8849454.87146  21726431.9384                   21726429.9304
 11  8 15 20  1  0.0000000  0  7G17G24G07G08G26G11G28
 -12208088.73848  -9483104.24246  21445961.5634                   21445961.0744
  -9694158.32847  -7286751.96145  22126159.9144                   22126160.9454
    487168.34448    396648.57046  21598585.1804                   21598584.9774
 -16013228.73048 -12456014.14846  20210136.5084                   20210136.2704
  -1444219.34847  -1098886.23045  22919809.8674                   22919810.5084
  -7906527.76647  -6144851.36745  22432435.4384                   22432433.8874
 -11445821.07848  -8899294.79746  21714260.5084                   21714258.6374
 11  8 15 20  1 30.0000000  0  7G17G24G07G08G26G11G28
 -12296000.76248  -9551607.10946  21429232.5784                   21429232.1484
  -9718847.64147  -7305990.41045  22121462.1094                   22121462.0984
    519160.41048    421577.36746  21604673.2814                   21604672.6884
 -16035694.02048 -12473519.61346  20205862.2034                   20205861.0274
  -1471237.00847  -1119939.02044  22914667.6954                   22914669.6764
  -7885178.68047  -6128215.75445  22436497.2814                   22436496.7034
 -11509769.98048  -8949125.11746  21702091.3204                   21702089.3524
 11  8 15 20  2  0.0000000  0  7G17G24G07G08G26G11G28
 -12383574.99648  -9619846.75846  21412567.6644                   21412567.3134
  -9743002.83647  -7324812.66845  22116865.5234                   22116866.5044
    551537.32848    446806.03946  21610834.4924                   21610834.0434
 -16057613.93048 -12490600.10246  20201690.6334                   20201689.9454
  -1497725.01647  -1140579.04344  22909627.3674                   22909629.1484
  -7863393.64547  -6111240.44145  22440643.7114                   22440642.3554
 -11573713.00848  -8998950.86746  21689923.2114                   21689921.5744
 11  8 15 20  2 30.0000000  0  7G17G24G07G08G26G11G28
 -12470823.35548  -9687832.48446  21395964.8914                   21395964.0824
  -9766636.15647  -7343228.26645  22112368.1414                   22112368.6844
    584285.66048    472324.12146  21617066.3524                   21617066.0634
 -16078999.80948 -12507264.46546  20197620.9454                   20197620.6454
  -1523696.84047  -1160816.89844  22904685.9384                   22904686.2894
  -7841186.88347  -6093936.52344  22444869.0004                   22444868.6414
 -11637661.96548  -9048781.23846  21677754.2504                   21677752.8794
 11  8 15 20  3  0.0000000  0  7G17G24G07G08G26G11G28
 -12557741.57448  -9755560.94946  21379425.0164                   21379424.1414
  -9789743.62147  -7361234.11345  22107970.5084                   22107971.4694
    617407.89148    498133.56646  21623369.5554                   21623369.0944
 -16099847.28948 -12523509.29746  20193653.9614                   20193653.2114
  -1549149.68047  -1180650.40644  22899843.2664                   22899842.1094
  -7818556.16447  -6076302.24645  22449176.0394                   22449174.8484
 -11701612.21948  -9098612.62146  21665584.8754                   21665583.1174
 11  8 15 20  3 30.0000000  0  7G17G24G07G08G26G11G28
 -12644325.90648  -9823029.25446  21362948.2894                   21362948.1334
  -9812321.54347  -7378827.32445  22103674.0234                   22103674.7974
    650906.37948    524236.17646  21629744.2274                   21629743.7464
 -16120152.15648 -12539331.32046  20189790.5704                   20189789.4264
  -1574081.27747  -1200077.70744  22895097.2664                   22895098.5904
  -7795499.75447  -6058336.25044  22453562.5554                   22453562.4964
 -11765559.18448  -9148441.44146  21653416.1884                   21653414.3244
 11  8 15 20  4  0.0000000  0  7G17G24G07G08G26G11G28
 -12730575.29348  -9890236.55946  21346535.4694                   21346534.9384
  -9834369.21547  -7396007.35945  22099479.1024                   22099479.6844
    684780.55948    550631.54346  21636190.1884                   21636190.2624
 -16139913.31248 -12554729.66446  20186029.7584                   20186029.2624
  -1598492.26246  -1219099.28144  22890451.8134                   22890454.4844
  -7772018.52747  -6040039.24244  22458031.9924                   22458030.6024
 -11829501.28948  -9198266.48446  21641248.3674                   21641246.4064
 11  8 15 20  4 30.0000000  0  7G17G24G07G08G26G11G28
 -12816504.46548  -9957194.34846  21330184.1484                   21330183.4384
  -9855901.77747  -7412786.02345  22095381.7194                   22095382.4734
    719013.94548    577306.81646  21642704.4614                   21642704.7894
 -16159144.91448 -12569715.38346  20182370.0944                   20182369.3054
  -1622399.02347  -1237727.96945  22885903.3754                   22885905.4144
  -7748129.77047  -6021424.66445  22462577.4924                   22462576.5124
 -11893453.11748  -9248099.09046  21629078.9924                   21629077.2464
 11  8 15 20  5  0.0000000  0  7G17G24G07G08G26G11G28
 -12902087.88748 -10023882.72746  21313897.9534                   21313897.1954
  -9876893.06647  -7429142.89545  22091387.0704                   22091387.3874
    753631.66848    604281.55946  21649292.1644                   21649292.1804
 -16177820.30148 -12584267.67646  20178816.6334                   20178815.5044
  -1645776.70347  -1255944.43044  22881455.0474                   22881456.7544
  -7723808.85947  -6002473.36745  22467206.1334                   22467205.0274
 -11957387.69548  -9297918.25446  21616912.4694                   21616910.7734
 11  8 15 20  5 30.0000000  0  7G17G24G07G08G26G11G28
 -12987336.78548 -10090310.43746  21297675.5554                   21297675.1884
  -9897355.29747  -7445087.50845  22087492.8054                   22087493.8134
    788620.50048    631545.48846  21655950.5164                   21655950.4224
 -16195951.10948 -12598395.62946  20175366.4454                   20175365.5704
  -1668638.29347  -1273758.77044  22877104.8524                   22877105.2734
  -7699069.55547  -5983196.03144  22471913.2344                   22471912.6804
 -12021315.97348  -9347732.51646  21604747.4694                   21604745.7344
 11  8 15 20  6  0.0000000  0  7G17G24G07G08G26G11G28
 -13072228.88348 -10156460.12546  21281521.2814                   21281520.3914
  -9917266.44547  -7460602.72745  22083703.7734                   22083705.4924
    824000.63348    659114.28546  21662682.8834                   21662682.6724
 -16213514.76648 -12612081.64546  20172024.3364                   20172023.3874
  -1690963.66047  -1291155.23044  22872855.0554                   22872856.8284
  -7673891.99647  -5963577.19945  22476704.6334                   22476703.7734
 -12085215.43748  -9397524.31246  21592587.5084                   21592586.0554
 11  8 15 20  6 30.0000000  0  7G17G24G07G08G26G11G28
 -13156766.66848 -10222333.71546  21265433.8914                   21265433.6254
  -9936629.11348  -7475690.53145  22080019.8134                   22080020.2624
    859768.44548    686985.22746  21669489.6024                   21669489.6334
 -16230513.55948 -12625327.50446  20168789.5944                   20168788.5354
  -1712756.56247  -1308136.74644  22868709.2894                   22868710.9574
  -7648280.41047  -5943620.19145  22481578.3524                   22481577.7424
 -12149087.48848  -9447294.76646  21580433.0634                   21580431.5084
 11  8 15 20  7  0.0000000  0  7G17G24G07G08G26G11G28
 -13240929.26248 -10287914.95346  21249418.6254                   21249418.1954
  -9955422.56247  -7490334.81245  22076443.4774                   22076444.1214
    895943.64848    715173.58246  21676373.5164                   21676373.5004
 -16246925.46948 -12638116.05146  20165666.3054                   20165665.6914
  -1733997.17647  -1324687.94545  22864667.9144                   22864669.5314
  -7622215.81647  -5923310.15245  22486538.5944                   22486537.8714
 -12212910.41848  -9497026.93446  21568288.3054                   21568286.4804
 11  8 15 20  7 30.0000000  0  7G17G24G07G08G26G11G28
 -13324724.94148 -10353210.28146  21233473.0704                   21233472.4574
  -9973655.58647  -7504542.39545  22072973.5004                   22072974.9414
    932516.10248    743671.49646  21683333.3674                   21683333.0704
 -16262758.82848 -12650453.77346  20162653.3674                   20162652.9414
  -1754695.63347  -1340816.69945  22860729.4144                   22860730.5824
  -7595708.67647  -5902655.29345  22491582.7734                   22491581.5204
 -12276692.25448  -9546727.07846  21556151.0474                   21556149.3364
 11  8 15 20  8  0.0000000  0  7G17G24G07G08G26G11G28
 -13408165.30948 -10418228.74646  21217594.7034                   21217594.0084
  -9991339.78547  -7518322.32045  22069608.8674                   22069609.8754
    969472.66048    772468.71946  21690365.8364                   21690366.1454
 -16278025.07448 -12662349.60246  20159748.3364                   20159747.4454
  -1774865.23446  -1356533.35544  22856889.7034                   22856891.1684
  -7568772.58247  -5881666.19144  22496708.7274                   22496707.6094
 -12340443.68448  -9596403.54346  21544019.3524                   21544017.4264
 11  8 15 20  8 30.0000000  0  7G17G24G07G08G26G11G28
 -13491237.88748 -10482960.61346  21201786.3054                   21201785.3754
 -10008463.18447  -7531665.25045  22066350.2114                   22066350.9184
   1006824.39848    801573.86746  21697473.9694                   21697473.6374
 -16292711.50448 -12673793.61346  20156953.6484                   20156953.0164
  -1794495.38347  -1371829.60244  22853154.3524                   22853155.1604
  -7541396.96947  -5860334.57844  22501918.1334                   22501916.6604
 -12404151.27348  -9646045.83246  21531896.5704                   21531894.4264
 11  8 15 20  9  0.0000000  0  8G17G24G07G08G26G11G04G28
 -13573939.49248 -10547403.42246  21186048.9384                   21186048.0474
 -10025023.01247  -7544569.04345  22063198.6254                   22063199.8364
   1044572.94948    830988.22346  21704657.0164                   21704657.0904
 -16306814.91448 -12684783.33246  20154269.8054                   20154269.5084
  -1813584.06647  -1386703.98044  22849523.0864                   22849523.2114
  -7513581.04347  -5838659.89144  22507211.2664                   22507210.4224
  13985337.88356  10987826.37942  24586647.6804                   24586654.5234
 -12467811.48448  -9695651.20746  21519782.0474                   21519780.3834
 11  8 15 20  9 30.0000000  0  8G17G24G07G08G26G11G04G28
 -13656256.73448 -10611546.71546  21170384.3984                   21170383.6024
 -10041006.11347  -7557023.43045  22060157.5634                   22060158.1334
   1082730.26648    860721.09846  21711918.1414                   21711918.1294
 -16320321.48448 -12695307.97346  20151699.6334                   20151699.1134
  -1832119.50047  -1401147.24645  22845996.6254                   22845996.9024
  -7485313.22747  -5816633.07444  22512590.3524                   22512589.6764
  13828908.34046  10865933.50443  24556880.8364                   24556887.7624
 -12531409.80148  -9745208.34846  21507679.9224                   21507678.0944
 11  8 15 20 10  0.0000000  0  8G17G24G07G08G26G11G04G28
 -13738190.28548 -10675391.03946  21154792.7274                   21154791.9884
 -10056413.23448  -7569028.99645  22057225.3594                   22057226.1764
   1121294.11748    890770.73845  21719256.7974                   21719256.8324
 -16333231.64848 -12705367.89146  20149243.0864                   20149242.4224
  -1850104.05147  -1415161.25045  22842572.7424                   22842575.1024
  -7456595.96547  -5794256.03945  22518055.0084                   22518054.5164
  13672429.36346  10744002.07843  24527103.2114                   24527111.2234
 -12594945.94148  -9794717.05546  21495589.1884                   21495587.6524
 11  8 15 20 10 30.0000000  0  8G17G24G07G08G26G11G04G28
 -13819743.17648 -10738938.73846  21139274.1024                   21139273.5864
 -10071247.99248  -7580588.56245  22054402.3524                   22054403.0354
   1160260.19548    921133.81346  21726671.9224                   21726671.9694
 -16345547.79748 -12714964.93446  20146899.2734                   20146898.4224
  -1867542.26646  -1428749.49244  22839254.1334                   22839256.0784
  -7427434.35947  -5771532.76644  22523604.1564                   22523603.0164
  13515900.70346  10622031.91443  24497317.3054                   24497324.3484
 -12658421.89148  -9844178.85546  21483510.2194                   21483508.5744
 11  8 15 20 11  0.0000000  0  8G17G24G07G08G26G11G04G28
 -13900912.60948 -10802187.64146  21123827.9064                   21123827.0004
 -10085507.93747  -7591700.23045  22051689.4144                   22051690.1454
   1199629.61348    951811.17245  21734163.9774                   21734164.2774
 -16357267.55548 -12724097.25446  20144669.6484                   20144668.7194
  -1884432.84847  -1441911.02744  22836039.7504                   22836041.2584
  -7397827.89147  -5748462.84044  22529237.9614                   22529237.2974
  13359327.94146  10500027.42643  24467522.0634                   24467529.4454
 -12721834.30148  -9893591.13346  21471443.4924                   21471441.7464
 11  8 15 20 11 30.0000000  0  8G17G24G07G08G26G11G04G28
 -13981702.62548 -10865140.89146  21108454.2424                   21108453.3484
 -10099198.28147  -7602368.04745  22049083.8444                   22049084.7894
   1239396.23848    982798.04345  21741730.7504                   21741731.0474
 -16368394.97748 -12732768.02046  20142551.4144                   20142551.2814
  -1900782.27347  -1454650.93444  22832929.8914                   22832930.0234
  -7367783.11747  -5725051.38744  22534955.5784                   22534954.6484
  13202709.20746  10377987.05943  24437717.5864                   24437725.2194
 -12785186.84448  -9942956.77046  21459387.3754                   21459386.0944
 11  8 15 20 12  0.0000000  0  8G17G24G07G08G26G11G04G28
 -14062102.76248 -10927790.33246  21093154.3204                   21093153.6254
 -10112307.82047  -7612583.30145  22046588.9774                   22046590.0084
   1279569.71148   1014101.94545  21749375.9144                   21749375.9574
 -16378918.32048 -12740968.07446  20140549.2194                   20140548.5904
  -1916580.91847  -1466961.65244  22829923.3914                   22829924.6804
  -7337290.66047  -5701291.07444  22540758.0634                   22540757.3204
  13046058.64846  10255921.89543  24407908.1804                   24407915.4024
 -12848467.43448  -9992266.33246  21447345.6804                   21447344.2734
 11  8 15 20 12 30.0000000  0  8G17G24G07G08G26G11G04G28
 -14142105.20348 -10990129.88346  21077930.0784                   21077929.6254
 -10124829.30148  -7622340.31645  22044206.4844                   22044207.4104
   1320156.52348   1045727.93046  21757099.7734                   21757099.9844
 -16388830.14848 -12748691.63346  20138663.2894                   20138662.5864
  -1931822.63347  -1478838.39544  22827022.4774                   22827024.4534
  -7306344.64147  -5677177.35944  22546647.3054                   22546646.3914
  12889387.04746  10133840.34843  24378094.9694                   24378101.6334
 -12911667.33648 -10041513.02346  21435319.3594                   21435317.9614
 11  8 15 20 13  0.0000000  0  8G17G24G07G08G26G11G04G28
 -14221723.79348 -11052170.32846  21062779.1564                   21062778.6374
 -10136777.14847  -7631650.35945  22041933.3134                   22041934.0744
   1361140.85948   1077663.66845  21764898.7664                   21764898.6454
 -16398144.30948 -12755949.46946  20136890.9384                   20136890.0944
  -1946523.16447  -1490293.38744  22824224.6884                   22824227.1134
  -7274961.28147  -5652722.83644  22552619.3754                   22552617.9924
  12732683.21546  10011733.67644  24348274.9454                   24348281.2344
 -12974799.60248 -10090707.00846  21423305.2274                   21423304.0084
 11  8 15 20 13 30.0000000  0  8G17G24G07G08G26G11G04G28
 -14300958.50448 -11113911.65646  21047701.5394                   21047701.2384
 -10148151.91447  -7640513.82845  22039768.3054                   22039769.3134
   1402521.25848   1109908.02045  21772772.8754                   21772773.4224
 -16406860.45748 -12762741.31646  20135232.3834                   20135231.7934
  -1960684.11747  -1501327.94944  22821530.6024                   22821532.4344
  -7243142.48847  -5627929.00844  22558674.5944                   22558673.6134
  12575950.14847   9889604.24643  24318449.8594                   24318455.9344
 -13037863.25848 -10139847.52746  21411305.1724                   21411303.3794
 11  8 15 20 14  0.0000000  0  8G17G24G07G08G26G11G04G28
 -14379804.69548 -11175350.23446  21032697.8834                   21032697.2154
 -10158949.34047  -7648927.43445  22037713.6174                   22037714.4494
   1444300.89548   1142463.48445  21780723.4774                   21780723.7154
 -16414974.09048 -12769063.67646  20133688.2114                   20133687.6954
  -1974302.46547  -1511939.72744  22818939.1804                   22818940.4534
  -7210885.93447  -5602794.09444  22564812.2814                   22564811.5744
  12419195.73446   9767458.18843  24288619.7194                   24288626.8524
 -13100852.48048 -10188930.05546  21399318.6954                   21399316.6524
 11  8 15 20 14 30.0000000  0  8G17G24G07G08G26G11G04G28
 -14458262.53548 -11236486.20346  21017767.4614                   21017766.7854
 -10169170.40647  -7656891.93045  22035768.8364                   22035769.9964
   1486478.05148   1175328.66845  21788749.5864                   21788749.8204
 -16422485.23848 -12774916.57446  20132259.1564                   20132258.5204
  -1987380.38747  -1522130.41844  22816450.5164                   22816451.1844
  -7178193.45347  -5577319.48444  22571033.4304                   22571032.7504
  12262422.52046   9645297.49643  24258786.8914                   24258793.5514
 -13163766.66048 -10237954.10246  21387346.3054                   21387344.7704
 11  8 15 20 15  0.0000000  0  8G17G24G07G08G26G11G04G28
 -14536352.69548 -11297335.66446  21002907.6724                   21002906.8594
 -10178835.95347  -7664423.54345  22033929.5164                   22033930.3444
   1529030.42247   1208486.26245  21796847.0164                   21796847.7774
 -16429414.38348 -12780315.95746  20130940.3914                   20130939.8554
  -1999940.03947  -1531917.22344  22814060.3914                   22814062.2234
  -7145087.73447  -5551522.87144  22577333.0164                   22577332.8284
  12105612.78946   9523108.35243  24228946.2584                   24228953.1764
 -13226625.28548 -10286934.84846  21375384.9064                   21375382.9384
 11  8 15 20 15 30.0000000  0  8G17G24G07G08G26G11G04G28
 -14614079.53548 -11357902.01646  20988116.6174                   20988115.8014
 -10187951.10547  -7671526.30145  22032194.8914                   22032195.9304
   1571952.15247   1241931.65245  21805015.1174                   21805015.1954
 -16435766.08248 -12785265.38746  20129732.1174                   20129731.2114
  -2011987.65647  -1541305.04344  22811767.5164                   22811770.5474
  -7111575.34047  -5525409.37944  22583710.8284                   22583709.7304
  11948765.06346   9400889.61343  24199099.0394                   24199105.6414
 -13289432.07048 -10335875.21146  21363433.0164                   21363431.3834
 11  8 15 20 16  0.0000000  0  8G17G24G07G08G26G11G04G28
 -14691440.95348 -11418183.62946  20973395.1804                   20973394.4534
 -10196513.82847  -7678198.58245  22030565.7734                   22030566.4414
   1615244.11347   1275665.52745  21813253.2504                   21813253.5314
 -16441537.91448 -12789762.97746  20128633.8054                   20128632.7344
  -2023522.64847  -1550293.40245  22809573.2034                   22809575.2774
  -7077656.28547  -5498979.00044  22590165.6174                   22590164.6524
  11791884.75446   9278645.43442  24169245.3674                   24169252.7734
 -13352183.27348 -10384772.25046  21351492.0944                   21351490.6804
 11  8 15 20 16 30.0000000  0  8G17G24G07G08G26G11G04G28
 -14768423.55548 -11478170.04746  20958746.0554                   20958745.1134
 -10204510.59048  -7684429.86345  22029044.0704                   22029044.6764
   1658918.62547   1309697.50045  21821564.1024                   21821565.1334
 -16446715.99648 -12793797.89846  20127648.2584                   20127647.3364
  -2034532.77747  -1558872.81645  22807479.0704                   22807479.6764
  -7043318.29747  -5472222.18044  22596699.4844                   22596698.9964
  11634988.87546   9156389.18843  24139389.0314                   24139395.6334
 -13414863.93448 -10433614.34446  21339564.1724                   21339562.8524
 11  8 15 20 17  0.0000000  0  8G17G24G07G08G26G11G04G28
 -14845043.52748 -11537873.91046  20944165.2814                   20944165.0354
 -10211959.22748  -7690234.02745  22027626.6484                   22027627.4534
   1702956.82047   1344012.82845  21829944.7274                   21829945.4224
 -16451317.00848 -12797383.15646  20126772.3674                   20126772.2624
  -2045036.93747  -1567057.98444  22805479.8134                   22805480.7074
  -7008580.46547  -5445153.80544  22603310.1254                   22603309.5984
  11478063.47746   9034109.81343  24109527.2504                   24109533.8914
 -13477489.82448 -10482413.75046  21327647.1724                   21327645.3874
 11  8 15 20 17 30.0000000  0  8G17G24G07G08G26G11G04G28
 -14921306.10248 -11597299.26646  20929653.3054                   20929652.2624
 -10218865.25047  -7695615.35945  22026312.2894                   22026313.1374
   1747352.18047   1378606.49245  21838392.9694                   21838393.5554
 -16455346.37548 -12800522.97746  20126006.0164                   20126005.4774
  -2055042.19547  -1574854.34844  22803575.3674                   22803576.9304
  -6973449.63747  -5417779.19944  22609995.7424                   22609995.0824
  11321106.52746   8911805.87543  24079659.2344                   24079665.3444
 -13540065.36348 -10531173.92646  21315739.2344                   21315738.0394
 11  8 15 20 18  0.0000000  0  8G17G24G07G08G26G11G04G28
 -13421787.55548 -10428843.23846  21215001.9534                   21215001.5394
  -8649807.36347  -6472972.87945  22324894.1414                   22324895.3674
   3367523.44147   2641077.48045  22146701.0554                   22146701.8914
 -14883381.99248 -11575615.72346  20425140.9384                   20425140.3094
   -489128.00847   -354661.56244  23101558.7664                   23101560.3674
  -5362507.57847  -4162499.71544  22916547.6804                   22916546.8954
  12739547.96146  10017085.12543  24349579.2424                   24349585.6374
 -12027165.36748  -9352290.81646  21603634.7734                   21603633.3674
 11  8 15 20 18 30.0000000  0  8G17G24G07G08G26G11G04G28
 -13497346.62148 -10487720.41846  21200623.7734                   21200622.9804
  -8655640.61347  -6477518.30545  22323783.5474                   22323785.2304
   3412618.19147   2676216.10945  22155282.6804                   22155283.3754
 -14886278.19148 -11577872.55946  20424589.8284                   20424589.3404
   -498150.79347   -361692.38744  23099841.8984                   23099844.1844
  -5326607.94547  -4134526.03544  22923379.1024                   22923378.2704
  12582526.69946   9894731.07843  24319699.3134                   24319705.2584
 -12089646.50848  -9400977.43046  21591744.6334                   21591743.0634
 11  8 15 20 19  0.0000000  0  8G17G24G07G08G26G11G04G28
 -13572549.73448 -10546320.22746  21186313.0864                   21186312.3794
  -8660933.91847  -6481642.97345  22322776.8594                   22322778.2274
   3458064.66847   2711628.82445  22163931.0634                   22163931.7234
 -14888603.96548 -11579684.89846  20424147.3204                   20424146.6524
   -506680.59447   -368339.06244  23098218.6804                   23098220.7154
  -5290322.58247  -4106251.78544  22930284.0634                   22930283.5084
  12425482.14547   9772358.88743  24289815.1724                   24289821.3134
 -12152074.57848  -9449622.69946  21579864.9384                   21579863.3014
 11  8 15 20 19 30.0000000  0  8G17G24G07G08G26G11G04G28
 -13647386.77048 -10604634.78146  21172072.0784                   21172071.3444
  -8665678.34847  -6485339.96145  22321873.7114                   22321875.3364
   3503870.70747   2747321.72345  22172647.7194                   22172648.3954
 -14890349.26248 -11581044.92246  20423815.1484                   20423814.6334
   -514710.04747   -374595.87144  23096691.6644                   23096692.6524
  -5253643.94947  -4077671.07844  22937263.4924                   22937262.9694
  12268427.12547   9649978.53543  24259927.7974                   24259934.0554
 -12214438.80148  -9498218.21546  21567997.5474                   21567996.2974
 11  8 15 20 20  0.0000000  0  8G17G24G07G08G26G11G04G28
 -13721869.55948 -10662673.30146  21157898.3284                   21157897.9304
  -8669885.52047  -6488618.29745  22321073.6954                   22321074.1684
   3550023.59847   2783284.88345  22181430.5474                   22181431.1764
 -14891525.42648 -11581961.46546  20423591.6884                   20423591.0004
   -522251.68047   -380472.53544  23095255.4304                   23095257.1374
  -5216585.12147  -4048794.12144  22944315.8984                   22944315.2074
  12111353.58647   9527583.77043  24230037.2664                   24230043.5314
 -12276749.04348  -9546771.66446  21556140.5634                   21556138.7424
 11  8 15 20 20 30.0000000  0  8G17G24G07G08G26G11G04G28
 -13795998.34048 -10720435.96546  21143792.0084                   21143791.4804
  -8673556.68447  -6491478.96945  22320374.8674                   22320376.0634
   3596521.59047   2819516.95745  22190278.4924                   22190279.1334
 -14892133.25048 -11582435.14546  20423476.0084                   20423475.7344
   -529308.14547   -385971.17644  23093912.7504                   23093913.7894
  -5179148.28947  -4019622.61344  22951439.3204                   22951439.2624
  11954264.43446   9405176.83243  24200144.7424                   24200149.8554
 -12339004.47748  -9595282.39846  21544293.8364                   21544292.5084
 11  8 15 20 21  0.0000000  0  8G17G24G07G08G26G11G04G28
 -13869762.05948 -10777914.17646  21129755.1804                   21129754.6454
  -8676681.46947  -6493913.90645  22319780.5944                   22319781.1994
   3643373.95347   2856025.16445  22199194.7274                   22199195.6484
 -14892161.81648 -11582457.45346  20423470.6094                   20423469.9454
   -535870.13347   -391084.50844  23092664.9384                   23092666.3324
  -5141324.71947  -3990149.75844  22958637.7034                   22958636.3794
  11797173.83647   9282768.75043  24170250.6414                   24170256.5004
 -12401192.81248  -9643740.85246  21532459.7274                   21532457.5474
 11  8 15 20 21 30.0000000  0  8G17G24G07G08G26G11G04G28
 -13943171.94948 -10835116.67246  21115786.1884                   21115785.1994
  -8679271.75847  -6495932.34045  22319287.3054                   22319288.0044
   3690567.93047   2892799.55145  22208175.3284                   22208176.2664
 -14891622.39548 -11582037.17646  20423573.2664                   20423572.6484
   -541950.65647   -395822.67244  23091508.3524                   23091510.1644
  -5103127.62947  -3960385.85544  22965905.1954                   22965905.6454
  11640073.55146   9160353.11743  24140355.5944                   24140361.1094
 -12463323.92648  -9692154.73046  21520636.4144                   21520634.8094
 11  8 15 20 22  0.0000000  0  8G17G24G07G08G26G11G04G28
 -14016233.90648 -10892048.05946  21101882.6174                   21101881.8014
  -8681333.72347  -6497539.09445  22318895.1484                   22318896.2624
   3738096.55547   2929834.70745  22217219.8594                   22217220.6374
 -14890520.56248 -11581178.66046  20423782.9064                   20423782.4224
   -547557.17647   -400191.47344  23090441.0164                   23090443.5354
  -5064564.53947  -3930336.73844  22973244.6724                   22973243.7464
  11482961.54746   9037928.34843  24110457.6414                   24110463.7584
 -12525402.13748  -9740527.37546  21508823.6334                   21508821.5904
 11  8 15 20 22 30.0000000  0  8G17G24G07G08G26G11G04G28
 -14088935.37948 -10948698.53946  21088048.0634                   21088046.9884
  -8682855.34847  -6498724.80145  22318605.6334                   22318606.3914
   3785970.60547   2967139.03545  22226330.0164                   22226330.7234
 -14888843.66048 -11579872.03946  20424101.9224                   20424101.6254
   -552678.85247   -404182.44944  23089465.3524                   23089468.4964
  -5025624.70347  -3899994.05944  22980654.7424                   22980653.9774
  11325853.59446   8915506.75443  24080560.7114                   24080567.1134
 -12587413.52348  -9788847.94946  21497022.7814                   21497021.1334
 11  8 15 20 23  0.0000000  0  8G17G24G07G08G26G11G04G28
 -14161290.43748 -11005079.09446  21074279.3444                   21074278.7034
  -8683851.70347  -6499501.21545  22318416.2504                   22318416.8444
   3834174.28547   3004700.21145  22235503.1484                   22235503.8754
 -14886606.73848 -11578129.03946  20424527.6484                   20424527.1724
   -557332.09047   -407808.42644  23088580.6414                   23088581.9184
  -4986324.66447  -3869370.71544  22988133.3674                   22988132.5904
  11168738.40246   8793079.50443  24050663.4304                   24050669.2274
 -12649371.18048  -9837126.65646  21485232.8364                   21485231.0204
 11  8 15 20 23 30.0000000  0  8G17G24G07G08G26G11G04G28
 -14233289.62948 -11061182.34046  21060577.9924                   21060577.3134
  -8684313.71547  -6499861.25445  22318328.3364                   22318329.1914
   3882715.91047   3042524.71145  22244740.3984                   22244741.2584
 -14883799.95348 -11575941.98846  20425061.9144                   20425061.7504
   -561508.98447   -411063.26244  23087786.0314                   23087786.6644
  -4946656.35247  -3838460.37144  22995681.4144                   22995681.4734
  11011629.16446   8670656.89143  24020766.2194                   24020771.8834
 -12711263.80148  -9885354.68746  21473454.8134                   21473453.1644
 11  8 15 20 24  0.0000000  0  8G17G24G07G08G26G11G04G28
 -14304949.70748 -11117021.34446  21046942.1024                   21046941.2154
  -8684259.45347  -6499819.00045  22318338.6254                   22318339.6604
   3931576.54347   3080597.79745  22254038.7894                   22254039.3594
 -14880440.53148 -11573324.31246  20425701.2344                   20425700.6414
   -565228.25447   -413961.48844  23087078.5474                   23087079.9384
  -4906638.89847  -3807278.01244  23003297.4774                   23003296.8914
  10854512.30147   8548228.31643  23990867.7734                   23990872.6604
 -12773107.35548  -9933544.48046  21461686.7424                   21461685.1524
 11  8 15 20 24 30.0000000  0  8G17G24G07G08G26G11G04G28
 -14376273.23048 -11172598.09846  21033369.2974                   21033368.3754
  -8683691.63347  -6499376.57445  22318446.6254                   22318447.6764
   3980752.72747   3118916.76645  22263396.6094                   22263397.5274
 -14876530.82448 -11570277.84846  20426445.0084                   20426444.9964
   -568494.15647   -416506.43444  23086457.3134                   23086459.2274
  -4866276.59047  -3775826.88344  23010977.1564                   23010976.6374
  10697388.89147   8425794.62143  23960968.2504                   23960972.9454
 -12834902.34448  -9981696.42246  21449927.4694                   21449925.7504
 11  8 15 20 25  0.0000000  0  8G17G24G07G08G26G11G04G28
 -14447250.26248 -11227904.86346  21019862.9224                   21019861.7114
  -8682601.05547  -6498526.81245  22318653.9844                   22318654.8444
   4030252.78147   3157488.09045  22272815.9774                   22272816.9304
 -14872061.59048 -11566795.38346  20427296.2734                   20427295.5664
   -571298.57047   -418691.74644  23085923.7424                   23085925.9574
  -4825561.39547  -3744100.81644  23018725.8594                   23018725.3204
  10540272.05547   8303366.03543  23931069.7974                   23931074.3054
 -12896637.45748 -10029801.71146  21438180.0394                   21438178.0314
